     2              OBSERVATION DATA    GPS                 RINEX VERSION / TYPE
teqc 2000Feb29 20030428 17:01:54UTC                         PGM / RUN BY / DATE
                                                            COMMENT
L2: 1 -> 1; 150 -> 5; 250 -> 9                              COMMENT
L2: 1 -> 1; 150 -> 5; 250 -> 9                              COMMENT
L2: 1 -> 1; 150 -> 5; 250 -> 9                              COMMENT
L2: 1 -> 1; 150 -> 5; 250 -> 9                              COMMENT
L2: 1 -> 1; 150 -> 5; 250 -> 9                              COMMENT
Original Marker Name: STG1                                  COMMENT
Campaign Name: Rose Canyon                                  COMMENT
4-Character Station Name: STG1                              COMMENT
6-Character Antenna Code: DMRCHT                            COMMENT
Vertical Measurement Point: BCR                             COMMENT
Vertical Offset to Rinex Ref. Point: 0.0348                 COMMENT
Radial Measurement Point: ECF                               COMMENT
Radial Offset to Rinex Ref. Point: 0.1897                   COMMENT
Antenna Height from Field Measurement: 0.8900 m             COMMENT
Additional Antenna Identification Info.:                    COMMENT
Turborogue and Ashtech Choke Ring                           COMMENT
Original XYZ: -2459962.3096 -4776509.0202 3425807.6431      COMMENT
New XYZ position is based on association with SCEC monument COMMENT
E1C8O6J3+0011. Position of that monument is believed to be  COMMENT
valid to within 1 m horizontally; vertical accuracy         COMMENT
should be no worse than 3-times this value.                 COMMENT
                                                            COMMENT
Revised Rinex header created by UCSD GPS archive for        COMMENT
GSAC on 11-Jul-2003 (2003:192) 15:54:47 GMT                 COMMENT
For assistance contact dagnew@ucsd.edu                      COMMENT
or anderson@python.ucsd.edu                                 COMMENT
                                                            COMMENT
UCSD SIO IGPP STG1                                          MARKER NAME
SJB SCRIPPS INSTITUTION OF OCEANOGRAPHY                     OBSERVER / AGENCY
319 ASHTECH Z-XII3 CC00                                     REC # / TYPE / VERS
756 DORNE-MARGOL. TYPE T                                    ANT # / TYPE
 -2459959.7922 -4776497.7478  3425796.3349                  APPROX POSITION XYZ
        0.8347        0.0000        0.0000                  ANTENNA: DELTA H/E/N
     1     1     0                                          WAVELENGTH FACT L1/2
     7    C1    L1    L2    P1    P2    S1    S2            # / TYPES OF OBSERV
     0                                                      INTERVAL
  2003     4    16     0     0   30.000000                  TIME OF FIRST OBS
  2003     4    16    23    59   30.000000                  TIME OF LAST OBS
                                                            END OF HEADER
 03  4 16  0  0 30.0000000  0  9G 9G21G14G17G23G31G15G 3G18
  23324225.927    -5782219.58549  -4495604.81845  23324225.605    23324232.636
       211.000         150.000
  22129727.006    -3336222.43449  -2589493.84946  22129726.269    22129731.559
       229.000         179.000
  20655326.904   -22829203.67149 -17777383.33047  20655326.695    20655330.830
       238.000         206.000
  22379727.367     -580327.01649   -339593.75846  22379727.007    22379734.624
       217.000         166.000
  21920242.055   -15825118.58049 -12316222.61947  21920241.523    21920247.139
       233.000         190.000
  22971679.197    -7078309.21249  -5505256.08745  22971678.578    22971684.194
       218.000         162.000
  20358660.377   -18087900.67049 -14056929.56647  20358659.753    20358665.269
       242.000         206.000
  21954672.405   -14475537.61449 -11234431.63647  21954672.207    21954678.383
       232.000         189.000
  21502441.644   -19867386.73349 -15464764.23847  21502441.460    21502445.904
       236.000         195.000
 03  4 16  0  1  0.0000000  0  9G 9G21G14G17G23G31G15G 3G18
  23325241.983    -5776880.49649  -4491444.45845  23325242.111    23325249.932
       216.000         152.000
  22143308.627    -3264850.33549  -2533879.26846  22143308.427    22143313.009
       228.000         179.000
  20646056.548   -22877919.62449 -17815343.77747  20646056.123    20646060.386
       238.000         206.000
  22393368.549     -508641.58149   -283735.04146  22393368.643    22393375.515
       218.000         165.000
  21928014.126   -15784276.14449 -12284397.34947  21928013.882    21928019.072
       233.000         190.000
  22963975.534    -7118791.63449  -5536800.82545  22963974.841    22963981.496
       214.000         161.000
  20363013.112   -18065026.93849 -14039105.88747  20363012.890    20363018.191
       243.000         207.000
  21955991.894   -14468603.86249 -11229028.73747  21955991.743    21955998.065
       230.000         189.000
  21511060.191   -19822096.02149 -15429472.77847  21511060.013    21511064.251
       236.000         195.000
 03  4 16  0  1 30.0000000  0  9G 9G21G14G17G23G31G15G 3G18
  23326368.096    -5770963.57749  -4486833.83745  23326368.041    23326375.166
       215.000         153.000
  22156953.111    -3193148.98049  -2478008.13046  22156953.660    22156957.489
       229.000         178.000
  20636882.348   -22926130.25349 -17852910.47647  20636881.754    20636885.994
       238.000         206.000
  22407072.969     -436625.04149   -227618.31346  22407072.576    22407079.692
       219.000         165.000
  21935796.494   -15743379.25549 -12252529.65747  21935796.074    21935801.733
       234.000         189.000
  22956373.070    -7158741.92349  -5567930.92945  22956373.034    22956378.372
       217.000         161.000
  20367447.352   -18041725.32849 -14020948.80647  20367446.940    20367452.220
       242.000         207.000
  21957414.708   -14461126.44049 -11223202.21047  21957414.558    21957420.875
       230.000         189.000
  21519701.437   -19776686.28649 -15394088.58847  21519700.901    21519705.652
       235.000         194.000
 03  4 16  0  2  0.0000000  0  9G 9G21G14G17G23G31G15G 3G18
  23327603.994    -5764468.85849  -4481772.98445  23327603.666    23327610.178
       214.000         153.000
  22170659.867    -3121119.68549  -2421881.44346  22170659.542    22170664.564
       229.000         177.000
  20627804.241   -22973835.64749 -17890083.48147  20627803.799    20627808.294
       239.000         206.000
  22420840.028     -364278.29449   -171244.29046  22420839.706    22420846.639
       219.000         165.000
  21943589.062   -15702429.14849 -12220620.48847  21943588.580    21943594.405
       233.000         190.000
  22948872.319    -7198159.69549  -5598646.06645  22948871.447    22948877.529
       218.000         162.000
  20371962.847   -18017996.06349 -14002458.46547  20371961.934    20371967.714
       242.000         207.000
  21958940.840   -14453106.84949 -11216953.21047  21958940.802    21958947.130
       231.000         189.000
  21528365.042   -19731158.72349 -15358612.58247  21528364.633    21528368.990
       237.000         194.000
 03  4 16  0  2 30.0000000  0  9G 9G21G14G17G23G31G15G 3G18
  23328949.826    -5757395.67949  -4476261.40145  23328949.464    23328956.981
       214.000         151.000
  22184428.889    -3048763.04249  -2365499.68346  22184428.320    22184433.316
       231.000         177.000
  20618822.520   -23021034.76249 -17926861.98247  20618822.316    20618826.357
       240.000         207.000
  22434670.031     -291601.55149   -114613.12746  22434669.491    22434677.363
       219.000         166.000
  21951391.711   -15661426.06249 -12188670.04447  21951391.698    21951396.571
       234.000         190.000
  22941473.032    -7237043.59549  -5628945.19046  22941473.319    22941478.635
       221.000         163.000
  20376559.856   -17993838.30049 -13983634.24147  20376559.461    20376564.808
       244.000         207.000
  21960570.067   -14444545.84449 -11210282.33347  21960570.353    21960576.044
       233.000         189.000
  21537051.055   -19685513.60649 -15323044.97347  21537050.700    21537054.474
       238.000         194.000
 03  4 16  0  3  0.0000000  0  9G 9G21G14G17G23G31G15G 3G18
  23330405.947    -5749742.82749  -4470298.13145  23330406.096    23330413.330
       215.000         152.000
  22198260.269    -2976079.13149  -2308862.91146  22198259.934    22198264.820
       228.000         177.000
  20609937.499   -23067726.06649 -17963244.79347  20609937.127    20609941.595
       239.000         207.000
  22448562.921     -218594.49949    -57724.57446  22448562.743    22448570.030
       219.000         166.000
  21959204.516   -15620369.73449 -12156678.11747  21959203.840    21959209.739
       233.000         190.000
  22934175.559    -7275392.01549  -5658827.09846  22934175.381    22934180.902
       219.000         164.000
  20381238.762   -17969250.94149 -13964475.28147  20381238.172    20381243.482
       242.000         207.000
  21962302.200   -14435443.67149 -11203189.75247  21962301.685    21962307.918
       230.000         188.000
  21545759.407   -19639751.02649 -15287385.83447  21545759.551    21545763.530
       237.000         194.000
 03  4 16  0  3 30.0000000  0  9G 9G21G14G17G23G31G15G 3G18
  23331972.630    -5741510.26649  -4463883.13545  23331972.931    23331979.887
       216.000         154.000
  22212153.660    -2903068.85849  -2251971.84846  22212153.876    22212158.068
       228.000         177.000
  20601149.065   -23113909.47149 -17999231.83147  20601148.981    20601153.062
       239.000         207.000
  22462518.230     -145258.66449      -579.83546  22462518.592    22462525.754
       218.000         167.000
  21967027.308   -15579261.05849 -12124645.39547  21967026.894    21967032.459
       234.000         190.000
  22926980.117    -7313204.39549  -5688291.30546  22926979.912    22926985.496
       218.000         164.000
  20385999.362   -17944233.81449 -13944981.42347  20385998.817    20386004.054
       242.000         207.000
  21964136.846   -14425801.62549 -11195676.49346  21964136.325    21964142.953
       231.000         187.000
  21554489.953   -19593872.05849 -15251636.01047  21554489.867    21554493.763
       237.000         194.000
 03  4 16  0  4  0.0000000  0  9G 9G21G14G17G23G31G15G 3G18
  23333649.786    -5732697.60749  -4457016.11645  23333649.700    23333656.948
       217.000         156.000
  22226109.108    -2829732.79249  -2194826.90846  22226109.245    22226113.372
       227.000         177.000
  20592457.560   -23159583.94649 -18034822.30547  20592457.129    20592461.387
       238.000         207.000
  22476536.251      -71594.32049     56820.89046  22476535.868    22476543.087
       219.000         166.000
  21974859.903   -15538100.44049 -12092572.20647  21974859.511    21974865.695
       232.000         190.000
  22919886.822    -7350479.59249  -5717336.92746  22919886.882    22919891.948
       218.000         164.000
  20390841.848   -17918786.17449 -13925152.09847  20390841.424    20390847.077
       243.000         207.000
  21966074.338   -14415620.11449 -11187742.86346  21966074.393    21966080.123
       231.000         187.000
  21563242.586   -19547876.98149 -15215795.70747  21563242.338    21563246.469
       237.000         194.000
 03  4 16  0  4 30.0000000  0  9G 9G21G14G17G23G31G15G 3G18
  23335437.213    -5723304.87449  -4449697.10045  23335437.363    23335443.838
       214.000         155.000
  22240126.310    -2756072.04649  -2137428.98246  22240126.041    22240130.597
       226.000         176.000
  20583862.757   -23204749.59949 -18070016.29647  20583862.379    20583866.513
       239.000         207.000
  22490616.568        2397.86049    114477.06646  22490616.580    22490623.665
       216.000         165.000
  21982702.213   -15496888.82549 -12060459.29047  21982702.262    21982707.378
       233.000         190.000
  22912895.974    -7387217.18049  -5745963.60646  22912895.662    22912901.073
       221.000         166.000
  20395766.364   -17892907.90949 -13904987.23847  20395765.605    20395771.563
       242.000         207.000
  21968114.287   -14404900.58849 -11179389.99846  21968114.361    21968120.219
       231.000         187.000
  21572016.990   -19501767.17949 -15179866.01047  21572016.873    21572021.047
       236.000         194.000
 03  4 16  0  5  0.0000000  0  9G 9G21G14G17G23G31G15G 3G18
  23337335.148    -5713331.40649  -4441925.54945  23337334.839    23337341.409
       214.000         153.000
  22254205.054    -2682087.07249  -2079778.40046  22254203.875    22254210.244
       228.000         175.000
  20575365.073   -23249405.04649 -18104812.71647  20575364.432    20575368.936
       240.000         207.000
  22504758.962       76717.54049    172388.43246  22504758.330    22504766.093
       219.000         164.000
  21990554.203   -15455626.49049 -12028306.83247  21990553.257    21990559.553
       234.000         189.000
  22906007.685    -7423415.98849  -5774170.45946  22906007.301    22906012.346
       223.000         166.000
  20400772.919   -17866598.16749 -13884486.15147  20400772.259    20400777.633
       244.000         207.000
  21970256.424   -14393643.86449 -11170618.54046  21970256.078    21970262.061
       235.000         187.000
  21580813.111   -19455542.91649 -15143847.11747  21580812.544    21580817.161
       238.000         194.000
 03  4 16  0  5 30.0000000  0  9G 9G21G14G17G23G31G15G 3G18
  23339343.622    -5702775.74149  -4433700.33745  23339343.449    23339350.214
       213.000         151.000
  22268345.717    -2607777.58649  -2021874.95646  22268345.715    22268350.315
       227.000         175.000
  20566964.844   -23293548.48749 -18139210.18047  20566964.487    20566969.081
       239.000         208.000
  22518963.987      151364.72149    230555.01146  22518963.546    22518971.064
       217.000         165.000
  21998415.923   -15414312.64949 -11996114.25447  21998416.003    21998421.612
       233.000         189.000
  22899222.145    -7459073.95249  -5801955.85746  22899221.859    22899226.756
       220.000         165.000
  20405861.902   -17839855.27049 -13863647.53247  20405861.326    20405866.846
       242.000         207.000
  21972500.783   -14381850.02149 -11161428.54647  21972500.624    21972507.412
       233.000         188.000
  21589631.212   -19409203.75949 -15107738.70447  21589631.119    21589635.301
       237.000         194.000
 03  4 16  0  6  0.0000000  0  9G 9G21G14G17G23G31G15G 3G18
  23341462.894    -5691638.50649  -4425021.95745  23341462.772    23341468.995
       213.000         150.000
  22282547.848    -2533145.09249  -1963719.81446  22282546.794    22282552.210
       227.000         175.000
  20558661.930   -23337180.57649 -18173209.18047  20558661.525    20558665.945
       238.000         208.000
  22533231.013      226337.92149    288975.62746  22533230.759    22533238.157
       219.000         164.000
  22006287.244   -15372948.87749 -11963882.75247  22006286.695    22006291.960
       233.000         189.000
  22892539.474    -7494191.21349  -5829319.93446  22892538.675    22892544.071
       219.000         165.000
  20411033.140   -17812680.07349 -13842472.05847  20411032.476    20411038.371
       242.000         207.000
  21974846.974   -14369520.65649 -11151821.25747  21974847.250    21974853.039
       233.000         188.000
  21598470.884   -19362751.14649 -15071541.87347  21598470.530    21598474.655
       235.000         193.000
 03  4 16  0  6 30.0000000  0  9G 9G21G14G17G23G31G15G 3G18
  23343693.028    -5679919.05849  -4415889.90345  23343692.238    23343699.438
       209.000         149.000
  22296811.194    -2458190.18149  -1905313.42946  22296811.099    22296816.455
       227.000         175.000
  20550456.390   -23380300.33249 -18206808.96047  20550455.905    20550460.334
       238.000         207.000
  22547559.968      301637.05649    347650.21446  22547560.029    22547566.679
       217.000         164.000
  22014167.994   -15331535.22049 -11931612.39147  22014167.489    22014173.414
       232.000         188.000
  22885959.997    -7528766.59749  -5856261.78046  22885959.550    22885965.452
       218.000         166.000
  20416286.752   -17785072.10549 -13820959.37047  20416286.489    20416291.723
       242.000         207.000
  21977294.984   -14356656.59849 -11141797.31847  21977294.755    21977300.288
       233.000         188.000
  21607332.025   -19316185.32249 -15035256.83747  21607331.616    21607336.481
       236.000         193.000
 03  4 16  0  7  0.0000000  0  9G 9G21G14G17G23G31G15G 3G18
  23346033.883    -5667617.60149  -4406304.32845  23346034.217    23346040.746
       210.000         146.000
  22311135.873    -2382913.79349  -1846656.56346  22311136.022    22311140.403
       227.000         175.000
  20542348.551   -23422907.49449 -18240009.32547  20542348.528    20542352.287
       239.000         208.000
  22561950.765      377261.10749    406577.97846  22561951.146    22561958.405
       219.000         164.000
  22022058.063   -15290072.57249 -11899303.84847  22022057.907    22022063.250
       234.000         188.000
  22879483.740    -7562799.63649  -5882781.02246  22879483.223    22879489.360
       221.000         167.000
  20421622.869   -17757030.87649 -13799109.07247  20421622.615    20421627.938
       241.000         207.000
  21979844.519   -14343259.04149 -11131357.68646  21979844.400    21979850.011
       233.000         187.000
  21616214.545   -19269507.26349 -14998884.34947  21616214.226    21616218.172
       236.000         192.000
 03  4 16  0  7 30.0000000  0  9G 9G21G14G17G23G31G15G 3G18
  23348485.553    -5654733.38949  -4396264.66545  23348486.579    23348491.877
       212.000         146.000
  22325521.744    -2307316.32549  -1787749.49146  22325521.113    22325527.000
       226.000         174.000
  20534338.422   -23465001.07949 -18272809.48947  20534338.283    20534342.458
       239.000         208.000
  22576403.341      453209.94349    465758.82046  22576403.331    22576411.078
       218.000         164.000
  22029957.577   -15248560.75449 -11866956.98647  22029957.468    22029962.869
       233.000         189.000
  22873110.910    -7596289.05849  -5908876.65146  22873110.175    22873116.480
       222.000         168.000
  20427041.587   -17728555.42649 -13776920.41447  20427040.974    20427046.637
       241.000         207.000
  21982495.360   -14329328.76949 -11120502.93346  21982494.806    21982501.233
       230.000         186.000
  21625118.377   -19222717.13749 -14962424.51847  21625117.972    21625122.478
       236.000         192.000
 03  4 16  0  8  0.0000000  0  9G 9G21G14G17G23G31G15G 3G18
  23351048.357    -5641266.42149  -4385770.91145  23351049.055    23351054.572
       213.000         146.000
  22339968.451    -2231398.65949  -1728592.93246  22339968.592    22339973.630
       226.000         173.000
  20526426.072   -23506580.70649 -18305209.17147  20526425.681    20526430.099
       238.000         208.000
  22590917.587      529482.56149    525191.98145  22590917.903    22590924.643
       217.000         162.000
  22037866.234   -15207000.55549 -11834572.43547  22037865.933    22037870.766
       232.000         188.000
  22866841.655    -7629234.33049  -5934548.26646  22866841.725    22866846.910
       223.000         169.000
  20432542.892   -17699645.68849 -13754393.35247  20432542.345    20432547.806
       240.000         207.000
  21985247.219   -14314867.20649 -11109234.21246  21985246.571    21985253.086
       230.000         185.000
  21634043.504   -19175815.63149 -14925877.90147  21634043.064    21634047.795
       237.000         192.000
 03  4 16  0  8 30.0000000  0  9G 9G21G14G17G23G31G15G 3G18
  23353722.030    -5627216.74749  -4374823.08945  23353721.705    23353728.222
       212.000         146.000
  22354475.834    -2155162.27349  -1669188.00746  22354475.519    22354480.219
       226.000         172.000
  20518611.522   -23547645.98849 -18337208.06347  20518610.991    20518615.368
       238.000         208.000
  22605493.184      606077.66849    584876.42945  22605492.103    22605500.092
       217.000         161.000
  22045783.979   -15165392.66649 -11802150.71846  22045783.542    22045789.260
       231.000         187.000
  22860676.046    -7661635.04749  -5959795.55946  22860674.874    22860681.216
       220.000         169.000
  20438126.827   -17670301.66849 -13731527.89247  20438126.190    20438132.061
       240.000         207.000
  21988100.032   -14299875.51249 -11097552.39546  21988099.755    21988106.043
       229.000         186.000
  21642989.559   -19128803.80049 -14889245.33147  21642989.800    21642993.716
       237.000         193.000
 03  4 16  0  9  0.0000000  0  9G 9G21G14G17G23G31G15G 3G18
  23356506.708    -5612583.89249  -4363420.85345  23356507.406    23356512.390
       213.000         145.000
  22369043.768    -2078606.98649  -1609534.58046  22369043.603    22369048.568
       225.000         172.000
  20510894.985   -23588196.02849 -18368805.47147  20510894.363    20510898.949
       237.000         207.000
  22620130.109      682995.56149    644812.39845  22620129.920    22620137.272
       217.000         160.000
  22053710.761   -15123736.92949 -11769691.71146  22053710.564    22053716.014
       232.000         187.000
  22854614.071    -7693489.81649  -5984617.43646  22854613.490    22854618.863
       219.000         167.000
  20443793.634   -17640522.19149 -13708323.11847  20443793.107    20443798.583
       240.000         207.000
  21991053.607   -14284354.27049 -11085457.94346  21991053.910    21991059.379
       230.000         187.000
  21651956.672   -19081681.42149 -14852526.59647  21651956.293    21651960.470
       236.000         191.000
 03  4 16  0  9 30.0000000  0  9G 9G21G14G17G23G31G15G 3G18
  23359402.292    -5597367.22949  -4351563.67745  23359400.763    23359408.148
       211.000         147.000
  22383672.312    -2001733.39149  -1549633.14646  22383671.856    22383677.119
       225.000         172.000
  20503276.782   -23628229.79949 -18400000.59247  20503276.727    20503280.944
       238.000         207.000
  22634828.619      760235.65549    704999.43245  22634828.594    22634835.740
       217.000         159.000
  22061646.753   -15082033.44949 -11737195.49846  22061646.400    22061651.709
       230.000         186.000
  22848656.174    -7724797.55049  -6009013.06246  22848655.625    22848662.193
       220.000         166.000
  20449543.543   -17610306.62949 -13684778.53647  20449543.306    20449548.485
       241.000         207.000
  21994107.928   -14268304.23349 -11072951.43847  21994107.776    21994113.603
       232.000         188.000
  21660944.832   -19034448.70749 -14815721.89947  21660944.700    21660949.290
       237.000         192.000
 03  4 16  0 10  0.0000000  0  9G 9G21G14G17G23G31G15G 3G18
  23362408.895    -5581566.77949  -4339251.60745  23362407.352    23362415.066
       211.000         145.000
  22398361.333    -1924542.48449  -1489484.43846  22398361.057    22398366.520
       224.000         172.000
  20495756.820   -23667747.09749 -18430793.26547  20495756.703    20495761.078
       237.000         208.000
  22649588.205      837797.70949    765437.35845  22649588.276    22649595.378
       216.000         158.000
  22069591.575   -15040282.63849 -11704662.40646  22069591.140    22069596.825
       230.000         186.000
  22842802.615    -7755557.65349  -6032981.96446  22842802.267    22842808.467
       221.000         166.000
  20455376.529   -17579654.48649 -13660893.76447  20455376.278    20455382.023
       241.000         208.000
  21997262.536   -14251726.60549 -11060033.82947  21997262.372    21997268.421
       231.000         188.000
  21669953.758   -18987106.22549 -14778831.67547  21669953.493    21669957.782
       235.000         191.000
 03  4 16  0 10 30.0000000  0  9G 9G21G14G17G23G31G15G 3G18
  23365526.448    -5565182.74249  -4326484.82545  23365525.943    23365532.815
       212.000         145.000
  22413110.569    -1847035.02649  -1429089.07646  22413109.917    22413115.553
       224.000         171.000
  20488335.263   -23706747.69549 -18461183.31247  20488334.861    20488339.435
       238.000         208.000
  22664408.665      915679.93649    826124.76945  22664408.157    22664415.950
       216.000         157.000
  22077545.323   -14998485.03449 -11672092.86146  22077544.664    22077549.954
       231.000         186.000
  22837053.470    -7785769.65249  -6056523.75946  22837052.548    22837057.820
       222.000         168.000
  20461292.521   -17548565.93549 -13636668.93647  20461291.872    20461297.638
       241.000         208.000
  22000517.097   -14234623.14749 -11046706.47647  22000517.129    22000523.201
       232.000         188.000
  21678983.393   -18939654.77649 -14741856.52547  21678982.822    21678987.662
       235.000         190.000
 03  4 16  0 11  0.0000000  0  9G 9G21G14G17G23G31G15G 3G18
  23368755.336    -5548215.07649  -4313263.24145  23368755.127    23368762.844
       214.000         146.000
  22427919.794    -1769212.19349  -1368447.96946  22427920.114    22427925.385
       226.000         171.000
  20481012.095   -23745231.08949 -18491170.35147  20481011.891    20481016.311
       238.000         208.000
  22679290.091      993881.91449    887061.34345  22679288.895    22679297.292
       216.000         158.000
  22085507.930   -14956640.98949 -11639487.13646  22085507.601    22085513.429
       232.000         186.000
  22831408.812    -7815432.95549  -6079637.99546  22831408.655    22831414.338
       222.000         169.000
  20467291.585   -17517040.55649 -13612103.71847  20467291.199    20467296.478
       242.000         207.000
  22003871.744   -14216994.70649 -11032970.05647  22003872.016    22003877.917
       233.000         189.000
  21688033.741   -18892094.85149 -14704796.86247  21688033.107    21688038.186
       235.000         190.000
 03  4 16  0 11 30.0000000  0  9G 9G21G14G17G23G31G15G 3G18
  23372095.090    -5530663.88149  -4299586.97545  23372095.475    23372101.557
       216.000         149.000
  22442788.886    -1691074.80449  -1307561.73746  22442788.591    22442794.112
       226.000         171.000
  20473787.396   -23783197.03049 -18520754.17747  20473787.312    20473791.575
       238.000         208.000
  22694231.955     1072402.70549    948246.29345  22694231.870    22694239.144
       215.000         157.000
  22093479.406   -14914750.98649 -11606845.59346  22093478.783    22093484.955
       230.000         186.000
  22825868.605    -7844547.02149  -6102324.27846  22825868.430    22825874.509
       222.000         170.000
  20473373.828   -17485078.11349 -13587197.92747  20473373.209    20473378.659
       241.000         207.000
  22007326.112   -14198842.65449 -11018825.63447  22007326.255    22007332.258
       232.000         189.000
  21697104.601   -18844427.31449 -14667653.35047  21697104.317    21697108.303
       235.000         190.000
 03  4 16  0 12  0.0000000  0  9G 9G21G14G17G23G31G15G 3G18
  23375546.248    -5512528.99849  -4285455.86645  23375546.326    23375552.471
       215.000         151.000
  22457717.663    -1612623.61949  -1246430.97546  22457717.296    22457722.060
       227.000         171.000
  20466661.378   -23820645.03749 -18549934.41647  20466661.125    20466665.177
       239.000         209.000
  22709234.716     1151241.86849   1009679.35145  22709234.234    22709242.535
       214.000         157.000
  22101459.538   -14872815.37049 -11574168.49946  22101459.258    22101464.687
       230.000         186.000
  22820432.985    -7873111.34649  -6124582.18646  22820432.743    22820438.440
       220.000         170.000
  20479539.264   -17452678.26349 -13561951.31047  20479538.800    20479544.393
       241.000         207.000
  22010879.686   -14180168.39749 -11004274.29147  22010879.935    22010885.599
       232.000         189.000
  21706195.902   -18796652.28949 -14630426.05647  21706195.254    21706200.131
       235.000         189.000
 03  4 16  0 12 30.0000000  0  9G 9G21G14G17G23G31G15G 3G18
  23379108.295    -5493809.75449  -4270869.42445  23379108.220    23379114.756
       215.000         149.000
  22472706.117    -1533858.83949  -1185055.86046  22472705.780    22472711.039
       226.000         172.000
  20459634.011   -23857574.11349 -18578710.29047  20459633.421    20459638.103
       237.000         209.000
  22724297.929     1230399.24949   1071360.35745  22724297.936    22724304.297
       214.000         156.000
  22109448.353   -14830833.82849 -11541455.62646  22109447.948    22109453.923
       230.000         186.000
  22815102.123    -7901124.52349  -6146410.64246  22815101.654    22815107.509
       217.000         166.000
  20485788.227   -17419840.11249 -13536363.15547  20485787.944    20485793.369
       241.000         207.000
  22014532.529   -14160972.30949 -10989316.33147  22014532.426    22014538.865
       231.000         189.000
  21715307.494   -18748769.72049 -14593114.99747  21715307.026    21715312.141
       235.000         190.000
 03  4 16  0 13  0.0000000  0  9G 9G21G14G17G23G31G15G 3G18
  23382781.678    -5474506.71949  -4255828.08945  23382781.697    23382787.656
       215.000         152.000
  22487753.985    -1454781.86249  -1123437.48546  22487754.162    22487759.528
       227.000         172.000
  20452705.270   -23893984.40449 -18607081.91247  20452704.857    20452709.152
       238.000         208.000
  22739421.383     1309873.38149   1133288.20045  22739420.607    22739428.912
       213.000         154.000
  22117445.740   -14788807.17449 -11508707.60046  22117445.091    22117451.016
       231.000         185.000
  22809876.237    -7928586.46849  -6167809.53846  22809876.931    22809881.199
       220.000         165.000
  20492120.494   -17386564.02149 -13510433.74147  20492119.771    20492125.767
       241.000         207.000
  22018284.317   -14141256.47549 -10973953.36647  22018284.179    22018290.314
       232.000         188.000
  21724439.560   -18700780.68849 -14555720.96047  21724439.304    21724443.351
       236.000         190.000
 03  4 16  0 13 30.0000000  0  9G 9G21G14G17G23G31G15G 3G18
  23386565.849    -5454620.03449  -4240331.94145  23386565.198    23386573.002
       215.000         152.000
  22502861.210    -1375393.54549  -1061576.49546  22502861.543    22502866.156
       225.000         172.000
  20445875.427   -23929875.26849 -18635048.78447  20445875.225    20445879.082
       238.000         209.000
  22754604.933     1389663.40449   1195462.19045  22754604.885    22754612.100
       211.000         154.000
  22125451.709   -14746735.48449 -11475924.48046  22125451.109    22125456.777
       230.000         185.000
  22804755.514    -7955496.52349  -6188778.40246  22804755.396    22804761.588
       221.000         167.000
  20498536.066   -17352849.73349 -13484162.88447  20498535.629    20498541.413
       241.000         207.000
  22022134.821   -14121021.95749 -10958186.22346  22022134.444    22022140.361
       231.000         186.000
  21733591.785   -18652685.41749 -14518244.12847  21733591.907    21733596.028
       235.000         190.000
 03  4 16  0 14  0.0000000  0  9G 9G21G14G17G23G31G15G 3G18
  23390461.095    -5434149.95249  -4224381.23145  23390461.151    23390467.163
       218.000         153.000
  22518027.442    -1295694.84649   -999473.67746  22518026.754    22518032.361
       224.000         172.000
  20439144.407   -23965246.88449 -18662611.06247  20439144.375    20439148.466
       238.000         209.000
  22769848.499     1469768.66149   1257881.79145  22769848.582    22769855.259
       212.000         153.000
  22133466.119   -14704619.41049 -11443106.77946  22133466.150    22133471.317
       229.000         185.000
  22799739.735    -7981854.46149  -6209317.05446  22799739.119    22799745.563
       221.000         169.000
  20505035.143   -17318696.76749 -13457550.20547  20505034.710    20505040.619
       241.000         207.000
  22026083.828   -14100270.18349 -10942016.03946  22026083.610    22026090.010
       232.000         185.000
  21742764.169   -18604484.61849 -14480685.08947  21742764.088    21742768.883
       236.000         191.000
 03  4 16  0 14 30.0000000  0  9G 9G21G14G17G23G31G15G 3G18
  23394467.498    -5413096.22049  -4207975.71445  23394467.127    23394474.298
       216.000         153.000
  22533252.548    -1215686.30449   -937129.41146  22533251.864    22533258.264
       225.000         172.000
  20432512.375   -24000098.49149 -18689768.12947  20432512.156    20432516.423
       238.000         209.000
  22785151.929     1550188.59749   1320546.59845  22785152.417    22785159.288
       211.000         152.000
  22141488.918   -14662458.81649 -11410254.38846  22141488.536    22141494.691
       229.000         184.000
  22794829.189    -8007659.35349  -6229424.78246  22794828.818    22794835.230
       221.000         169.000
  20511617.829   -17284104.72449 -13430595.38047  20511617.343    20511623.081
       241.000         207.000
  22030130.986   -14079002.20849 -10925443.61046  22030130.658    22030136.725
       230.000         184.000
  21751956.558   -18556178.37349 -14443043.88647  21751956.234    21751960.873
       235.000         190.000
 03  4 16  0 15  0.0000000  0  9G 9G21G14G17G23G31G15G 3G18
  23398584.936    -5391459.32349  -4191115.76545  23398585.077    23398591.349
       216.000         152.000
  22548536.612    -1135369.21049   -874544.70246  22548537.053    22548540.823
       226.000         172.000
  20425979.305   -24034429.99749 -18716519.92147  20425978.989    20425983.087
       238.000         209.000
  22800514.976     1630922.29949   1383455.90545  22800514.772    22800523.175
       212.000         153.000
  22149520.251   -14620254.28449 -11377367.74046  22149520.126    22149525.949
       230.000         184.000
  22790024.079    -8032910.98049  -6249101.38546  22790023.955    22790030.067
       223.000         169.000
  20518284.017   -17249073.56549 -13403298.37847  20518283.678    20518289.093
       242.000         207.000
  22034276.056   -14057219.64149 -10908470.19646  22034275.918    22034281.959
       231.000         184.000
  21761168.901   -18507767.45449 -14405321.08947  21761168.886    21761173.251
       236.000         190.000
 03  4 16  0 15 30.0000000  0  9G 9G21G14G17G23G31G15G 3G18
  23402813.315    -5369238.87249  -4173801.13145  23402812.930    23402819.706
       214.000         151.000
  22563879.216    -1054743.79049   -811719.73746  22563878.572    22563884.179
       225.000         170.000
  20419545.319   -24068240.71449 -18742865.91247  20419544.903    20419548.907
       239.000         210.000
  22815937.864     1711969.11949   1446609.18445  22815937.625    22815945.326
       211.000         154.000
  22157559.904   -14578005.53449 -11344446.64446  22157559.331    22157565.297
       230.000         185.000
  22785324.477    -8057608.42449  -6268346.16346  22785323.809    22785329.787
       223.000         169.000
  20525033.903   -17213602.69649 -13375658.74747  20525033.265    20525038.913
       241.000         206.000
  22038519.021   -14034923.26949 -10891096.42946  22038519.301    22038524.741
       230.000         185.000
  21770401.195   -18459251.63049 -14367516.57647  21770400.695    21770405.337
       235.000         190.000
 03  4 16  0 16  0.0000000  0  9G 9G21G14G17G23G31G15G 3G18
  23407152.438    -5346436.50049  -4156033.02845  23407152.246    23407159.875
       215.000         152.000
  22579279.848     -973812.34449   -748656.31446  22579278.641    22579285.102
       223.000         168.000
  20413210.323   -24101531.58349 -18768806.83947  20413210.019    20413213.936
       239.000         210.000
  22831419.877     1793327.36949   1510005.13645  22831419.867    22831427.801
       213.000         156.000
  22165607.761   -14535714.03949 -11311492.24746  22165607.709    22165613.026
       232.000         185.000
  22780730.053    -8081752.54749  -6287159.78146  22780729.879    22780735.488
       222.000         170.000
  20531867.213   -17177693.05249 -13347677.22547  20531866.644    20531872.503
       241.000         206.000
  22042859.033   -14012115.66349 -10873324.28246  22042858.617    22042864.959
       230.000         184.000
  21779653.144   -18410632.67849 -14329631.69047  21779652.890    21779656.870
       237.000         189.000
 03  4 16  0 16 30.0000000  0  9G 9G21G14G17G23G31G15G 3G18
  23411602.719    -5323050.79049  -4137810.34645  23411603.384    23411609.649
       216.000         153.000
  22594738.863     -892574.26149   -685353.95546  22594738.968    22594744.402
       221.000         167.000
  20406974.477   -24134301.03749 -18794341.46147  20406974.096    20406978.327
       237.000         210.000
  22846961.440     1874997.42849   1573644.05545  22846961.438    22846969.010
       216.000         157.000
  22173664.010   -14493378.51049 -11278503.54146  22173663.882    22173669.106
       230.000         186.000
  22776241.213    -8105341.42449  -6305540.73946  22776240.727    22776246.679
       221.000         170.000
  20538784.461   -17141342.88449 -13319352.44247  20538784.056    20538789.942
       239.000         206.000
  22047296.338   -13988797.01649 -10855153.94846  22047296.354    22047303.509
       229.000         185.000
  21788924.797   -18361909.70849 -14291665.75347  21788924.242    21788929.119
       234.000         189.000
 03  4 16  0 17  0.0000000  0  9G 9G21G14G17G23G31G15G 3G18
  23416163.837    -5299082.50449  -4119133.77345  23416163.527    23416170.316
       215.000         152.000
  22610255.977     -811031.08149   -621813.86846  22610254.966    22610261.190
       221.000         167.000
  20400837.726   -24166549.37849 -18819470.01347  20400837.434    20400841.860
       238.000         210.000
  22862561.947     1956978.01649   1637524.94245  22862562.218    22862569.526
       216.000         158.000
  22181728.379   -14450999.61749 -11245481.06546  22181728.599    22181734.278
       230.000         186.000
  22771857.984    -8128375.03449  -6323489.01446  22771857.641    22771863.834
       221.000         169.000
  20545785.417   -17104552.58049 -13290684.68647  20545784.989    20545790.947
       240.000         206.000
  22051830.524   -13964969.14549 -10836586.81346  22051830.296    22051836.862
       229.000         185.000
  21798216.095   -18313083.36849 -14253619.28447  21798216.339    21798219.997
       235.000         189.000
 03  4 16  0 17 30.0000000  0  9G 9G21G14G17G23G31G15G 3G18
  23420835.650    -5274532.02349  -4100003.53445  23420835.553    23420841.723
       214.000         153.000
  22625830.883     -729183.90649   -558036.91046  22625831.073    22625836.377
       222.000         168.000
  20394800.268   -24198276.65149 -18844192.54147  20394800.124    20394804.258
       239.000         210.000
  22878221.475     2039267.80249   1701646.77645  22878221.217    22878228.760
       214.000         158.000
  22189801.095   -14408578.07749 -11212425.32746  22189800.900    22189806.486
       231.000         186.000
  22767580.568    -8150853.42549  -6341004.63946  22767580.412    22767585.863
       222.000         168.000
  20552870.106   -17067322.38049 -13261674.15047  20552869.355    20552875.493
       240.000         206.000
  22056461.486   -13940633.62249 -10817624.09546  22056461.489    22056467.531
       230.000         186.000
  21807527.098   -18264154.34649 -14215492.79447  21807526.663    21807531.176
       234.000         189.000
 03  4 16  0 18  0.0000000  0  9G 9G21G14G17G23G31G15G 3G18
  23425618.233    -5249399.33949  -4080419.63345  23425617.782    23425625.497
       215.000         153.000
  22641463.696     -647033.43049   -494023.61446  22641463.151    22641469.198
       221.000         169.000
  20388862.030   -24229482.20749 -18868508.53647  20388861.715    20388865.893
       239.000         210.000
  22893939.414     2121866.42049   1766009.26345  22893938.946    22893946.938
       212.000         157.000
  22197881.781   -14366113.68349 -11179336.21346  22197881.237    22197887.599
       231.000         185.000
  22763408.850    -8172775.75449  -6358086.97646  22763408.890    22763415.168
       222.000         170.000
  20560038.603   -17029651.65249 -13232320.35347  20560037.992    20560043.669
       241.000         206.000
  22061188.737   -13915791.67549 -10798266.77246  22061188.797    22061194.924
       231.000         186.000
  21816857.383   -18215122.59649 -14177286.26347  21816857.614    21816861.801
       235.000         188.000
 03  4 16  0 18 30.0000000  0  9G 9G21G14G17G23G31G15G 3G18
  23430511.551    -5223684.51449  -4060382.11145  23430510.905    23430517.768
       217.000         154.000
  22657154.019     -564580.25349   -429774.43746  22657153.749    22657159.137
       224.000         170.000
  20383023.168   -24260165.64049 -18892417.67747  20383022.807    20383026.847
       240.000         210.000
  22909716.000     2204773.31049   1830611.95645  22909715.464    22909724.168
       214.000         156.000
  22205970.719   -14323606.31549 -11146213.60646  22205970.297    22205976.900
       232.000         186.000
  22759343.027    -8194141.46949  -6374735.58046  22759342.775    22759348.126
       224.000         170.000
  20567291.064   -16991540.02149 -13202622.99547  20567290.571    20567296.373
       242.000         206.000
  22066012.229   -13890444.63849 -10778515.85646  22066012.547    22066018.864
       234.000         187.000
  21826207.326   -18165988.48949 -14138999.96747  21826207.001    21826211.539
       236.000         189.000
 03  4 16  0 19  0.0000000  0  9G 9G21G14G17G23G31G15G 3G18
  23435515.471    -5197388.37449  -4039891.61045  23435514.951    23435521.928
       214.000         154.000
  22672901.726     -481825.78849   -365290.50246  22672901.547    22672906.675
       222.000         169.000
  20377283.561   -24290327.33449 -18915920.27147  20377283.310    20377287.453
       238.000         210.000
  22925551.210     2287987.07849   1895453.77345  22925551.311    22925558.497
       213.000         156.000
  22214067.650   -14281056.71849 -11113058.09246  22214066.882    22214073.174
       229.000         185.000
  22755383.256    -8214950.79549  -6390950.63446  22755382.876    22755388.459
       222.000         170.000
  20574627.387   -16952987.84849 -13172582.37247  20574626.792    20574632.639
       240.000         206.000
  22070931.566   -13864594.32449 -10758372.77647  22070931.962    22070937.351
       233.000         188.000
  21835576.636   -18116752.61549 -14100634.38347  21835576.295    21835580.752
       233.000         188.000
 03  4 16  0 19 30.0000000  0  9G 9G21G14G17G23G31G15G 3G18
  23440629.745    -5170511.65549  -4018948.71845  23440629.890    23440636.308
       214.000         153.000
  22688706.626     -398771.26749   -300572.75746  22688706.156    22688712.115
       221.000         167.000
  20371643.269   -24319967.46349 -18939016.44547  20371642.955    20371647.156
       240.000         211.000
  22941444.511     2371506.30949   1960533.62245  22941443.429    22941450.916
       213.000         155.000
  22222172.438   -14238465.42549 -11079870.09746  22222172.580    22222178.236
       231.000         185.000
  22751529.187    -8235203.57049  -6406732.02946  22751528.475    22751534.642
       222.000         171.000
  20582047.474   -16913995.03649 -13142198.38947  20582047.165    20582052.689
       241.000         206.000
  22075946.301   -13838242.62949 -10737839.00747  22075946.230    22075952.481
       232.000         188.000
  21844965.182   -18067415.61349 -14062189.97047  21844965.135    21844969.132
       235.000         188.000
 03  4 16  0 20  0.0000000  0  9G 9G21G14G17G23G31G15G 3G18
  23445854.541    -5143054.89849  -3997553.84945  23445854.073    23445861.011
       215.000         152.000
  22704568.209     -315417.74549   -235622.02746  22704567.635    22704573.324
       220.000         165.000
  20366102.218   -24349085.89749 -18961706.10447  20366101.951    20366105.956
       241.000         211.000
  22957395.786     2455330.52249   2025851.12745  22957395.296    22957403.154
       213.000         153.000
  22230285.385   -14195832.47549 -11046649.63046  22230284.604    22230291.405
       231.000         186.000
  22747781.033    -8254899.61549  -6422079.59746  22747781.039    22747786.096
       222.000         172.000
  20589551.447   -16874561.76349 -13111471.18347  20589550.761    20589556.603
       241.000         205.000
  22081056.064   -13811390.96449 -10716915.64446  22081055.503    22081061.998
       232.000         187.000
  21854372.880   -18017977.84349 -14023667.04647  21854372.203    21854377.330
       234.000         188.000
 03  4 16  0 20 30.0000000  0  9G 9G21G14G17G23G31G15G 3G18
  23451190.108    -5115017.22149  -3975706.30845  23451191.218    23451196.751
       217.000         154.000
  22720486.730     -231764.85849   -170438.02846  22720487.214    22720492.270
       220.000         165.000
  20360660.675   -24377681.17849 -18983988.11447  20360659.998    20360664.360
       239.000         210.000
  22973405.158     2539460.19549   2091406.63845  22973404.423    22973412.904
       213.000         153.000
  22238406.328   -14153156.61349 -11013395.73346  22238406.012    22238411.340
       231.000         185.000
  22744139.160    -8274037.35349  -6436992.11846  22744138.800    22744144.440
       222.000         172.000
  20597139.473   -16834686.31749 -13080399.43447  20597139.047    20597144.670
       240.000         205.000
  22086260.735   -13784039.85249 -10695603.11246  22086260.680    22086266.651
       231.000         186.000
  21863799.877   -17968438.36149 -13985064.86846  21863799.896    21863803.891
       233.000         187.000
 03  4 16  0 21  0.0000000  0  9G 9G21G14G17G23G31G15G 3G18
  23456635.802    -5086400.43849  -3953407.49545  23456635.269    23456642.635
       214.000         154.000
  22736461.904     -147815.28549   -105022.84446  22736461.505    22736468.088
       222.000         166.000
  20355318.312   -24405755.04749 -19005863.83047  20355317.997    20355322.072
       239.000         210.000
  22989472.185     2623892.43949   2157197.92045  22989472.849    22989479.574
       212.000         153.000
  22246535.132   -14110439.68349 -10980109.82046  22246534.585    22246540.602
       231.000         186.000
  22740603.454    -8292618.17949  -6451470.67946  22740603.048    22740609.481
       224.000         172.000
  20604811.347   -16794370.38549 -13048984.44447  20604811.126    20604816.588
       241.000         206.000
  22091559.994   -13756192.37149 -10673903.79946  22091559.542    22091565.972
       230.000         185.000
  21873245.910   -17918799.39049 -13946385.17747  21873246.057    21873250.250
       233.000         188.000
 03  4 16  0 21 30.0000000  0  9G 9G21G14G17G23G31G15G 3G18
  23462191.571    -5057204.69849  -3930657.56645  23462191.683    23462197.747
       215.000         155.000
  22752493.457      -63569.67149    -39376.98646  22752493.746    22752499.031
       224.000         167.000
  20350075.365   -24433306.89249 -19027332.77647  20350075.136    20350079.165
       240.000         210.000
  23005596.791     2708627.13349   2223224.86845  23005597.216    23005603.894
       211.000         153.000
  22254671.751   -14067681.22449 -10946791.57046  22254671.312    22254677.793
       229.000         186.000
  22737173.830    -8310641.50249  -6465514.82246  22737173.782    22737179.123
       224.000         172.000
  20612567.202   -16753613.49149 -13017225.83547  20612566.637    20612572.260
       240.000         205.000
  22096953.339   -13727849.75749 -10651818.66446  22096952.568    22096959.475
       230.000         184.000
  21882710.983   -17869060.43149 -13907627.55847  21882710.954    21882715.237
       235.000         189.000
 03  4 16  0 22  0.0000000  0  9G 9G21G14G17G23G31G15G 3G18
  23467857.397    -5027430.30949  -3907456.74145  23467856.831    23467863.241
       213.000         155.000
  22768581.126       20971.01949     26498.81646  22768581.299    22768586.098
       222.000         167.000
  20344931.748   -24460336.78749 -19048395.00547  20344931.177    20344935.354
       239.000         210.000
  23021778.685     2793663.30449   2289486.74045  23021777.375    23021785.727
       210.000         153.000
  22262816.253   -14024881.63449 -10913441.24646  22262816.163    22262821.407
       231.000         185.000
  22733850.216    -8328107.19949  -6479124.42546  22733849.084    22733856.468
       224.000         173.000
  20620406.830   -16712415.79349 -12985123.75447  20620405.970    20620411.664
       239.000         204.000
  22102440.629   -13699013.61649 -10629348.95146  22102439.999    22102446.834
       229.000         184.000
  21892195.044   -17819221.85649 -13868792.30847  21892195.069    21892198.649
       235.000         189.000
 03  4 16  0 22 30.0000000  0  9G 9G21G14G17G23G31G15G 3G18
  23473633.221    -4997077.45749  -3883805.16745  23473633.322    23473639.982
       215.000         156.000
  22784724.766      105806.38649     92604.22746  22784724.673    22784729.777
       224.000         168.000
  20339887.528   -24486843.93049 -19069049.88947  20339887.139    20339891.283
       239.000         210.000
  23038017.706     2879000.15749   2355982.90145  23038016.863    23038025.164
       209.000         153.000
  22270968.720   -13982040.31449 -10880058.40646  22270968.120    22270974.547
       229.000         184.000
  22730632.696    -8345014.43149  -6492298.89446  22730631.861    22730638.490
       221.000         171.000
  20628330.455   -16670776.42649 -12952677.51647  20628329.964    20628335.744
       240.000         205.000
  22108021.594   -13669684.96649 -10606495.47646  22108021.925    22108027.925
       230.000         184.000
  21901698.116   -17769283.32649 -13829879.17547  21901698.130    21901702.050
       234.000         188.000
 03  4 16  0 23  0.0000000  0  9G 9G21G14G17G23G31G15G 3G18
  23479519.230    -4966146.52349  -3859703.13045  23479519.087    23479526.498
       215.000         156.000
  22800924.395      190935.27549    158938.34546  22800924.259    22800930.360
       222.000         167.000
  20334942.784   -24512828.55449 -19089297.64047  20334942.632    20334946.647
       239.000         210.000
  23054313.747     2964636.84849   2422712.70545  23054313.101    23054321.668
       211.000         153.000
  22279129.097   -13939157.35249 -10846643.13446  22279129.220    22279134.723
       230.000         185.000
  22727521.598    -8361363.00349  -6505038.02646  22727520.885    22727527.325
       222.000         171.000
  20636338.243   -16628695.12249 -12919886.90347  20636337.691    20636343.732
       239.000         205.000
  22113696.171   -13639865.01649 -10583259.17146  22113696.427    22113702.311
       230.000         184.000
  21911220.072   -17719245.30649 -13790888.51746  21911219.598    21911224.544
       234.000         187.000
 03  4 16  0 23 30.0000000  0  9G 9G21G14G17G23G31G15G 3G18
  23485514.927    -4934639.66349  -3835152.33445  23485515.146    23485520.731
       216.000         155.000
  22817179.306      276355.42949    225499.43546  22817179.515    22817184.743
       222.000         166.000
  20330097.199   -24538292.32149 -19109139.51647  20330096.817    20330100.881
       239.000         210.000
  23070666.463     3050570.84549   2489674.17145  23070665.940    23070674.080
       211.000         153.000
  22287297.025   -13896234.47049 -10813196.72446  22287296.436    22287301.854
       229.000         184.000
  22724516.473    -8377154.55449  -6517343.12046  22724516.275    22724522.491
       221.000         171.000
  20644429.789   -16586173.60949 -12886753.26647  20644429.239    20644435.233
       240.000         205.000
  22119463.668   -13609557.39349 -10559642.85346  22119463.444    22119469.921
       230.000         184.000
  21920760.545   -17669109.50349 -13751821.66146  21920760.253    21920764.662
       233.000         187.000
 03  4 16  0 24  0.0000000  0  9G 9G21G14G17G23G31G15G 3G18
  23491620.279    -4902555.71549  -3810151.83745  23491619.370    23491627.155
       214.000         155.000
  22833489.877      362067.40149    292287.90346  22833490.923    22833495.331
       221.000         164.000
  20325351.034   -24563233.28849 -19128574.02647  20325350.683    20325354.977
       239.000         211.000
  23087075.966     3136803.04449   2556868.00945  23087075.530    23087084.308
       212.000         154.000
  22295472.798   -13853270.12349 -10779718.02546  22295472.705    22295478.277
       230.000         183.000
  22721617.824    -8392387.03049  -6529212.60046  22721618.061    22721623.886
       224.000         173.000
  20652605.536   -16543210.03649 -12853275.18847  20652604.879    20652611.008
       239.000         205.000
  22125323.857   -13578762.00949 -10535646.47846  22125323.337    22125330.366
       229.000         184.000
  21930319.952   -17618874.43449 -13712677.47246  21930319.885    21930324.350
       234.000         187.000
 03  4 16  0 24 30.0000000  0  9G 9G21G14G17G23G31G15G 3G18
  23497835.094    -4869896.70649  -3784703.23845  23497834.668    23497841.108
       215.000         156.000
  22849855.543      448068.62049    359301.76045  22849855.514    22849861.012
       220.000         162.000
  20320704.085   -24587653.12349 -19147602.45047  20320703.750    20320708.256
       240.000         211.000
  23103541.757     3223330.92949   2624292.25145  23103541.421    23103550.319
       212.000         154.000
  22303656.350   -13810265.62749 -10746208.02546  22303655.481    22303661.805
       230.000         184.000
  22718825.432    -8407061.85049  -6540647.53446  22718825.255    22718831.356
       227.000         175.000
  20660865.038   -16499805.94449 -12819453.84747  20660864.581    20660870.531
       240.000         204.000
  22131276.181   -13547481.76249 -10511272.27446  22131276.076    22131283.003
       229.000         184.000
  21939897.970   -17568541.71349 -13673457.17946  21939897.505    21939902.324
       234.000         187.000
 03  4 16  0 25  0.0000000  0  9G 9G21G14G17G23G31G15G 3G18
  23504159.215    -4836662.48549  -3758806.44945  23504159.839    23504165.432
       217.000         158.000
  22866276.042      534358.69849    426540.71145  22866275.087    22866282.101
       219.000         161.000
  20316156.519   -24611551.09449 -19166224.23447  20316156.438    20316160.162
       240.000         211.000
  23120063.770     3310154.29149   2691946.72645  23120063.373    23120071.455
       212.000         154.000
  22311847.497   -13767220.29049 -10712666.22546  22311847.040    22311852.353
       229.000         183.000
  22716139.246    -8421178.29749  -6551647.35946  22716139.024    22716144.938
       224.000         175.000
  20669208.524   -16455960.65149 -12785288.70647  20669208.105    20669213.744
       240.000         204.000
  22137320.672   -13515717.71849 -10486521.09346  22137320.522    22137326.826
       230.000         184.000
  21949494.593   -17518111.05349 -13634160.58246  21949494.851    21949498.684
       234.000         186.000
 03  4 16  0 25 30.0000000  0  9G 9G21G14G17G23G31G15G 3G18
  23510592.866    -4802853.75149  -3732461.98145  23510593.025    23510600.028
       215.000         160.000
  22882751.242      620936.61449    494003.95045  22882751.291    22882756.138
       220.000         161.000
  20311708.240   -24634927.39549 -19184439.50447  20311708.147    20311711.659
       240.000         211.000
  23136641.884     3397272.29049   2759830.80845  23136641.446    23136649.976
       213.000         153.000
  22320046.448   -13724134.30949 -10679092.72046  22320045.614    22320051.636
       229.000         183.000
  22713559.274    -8434736.43749  -6562212.16046  22713559.190    22713564.976
       222.000         173.000
  20677635.902   -16411674.45849 -12750780.00347  20677635.091    20677641.107
       239.000         203.000
  22143456.898   -13483471.94149 -10461394.52546  22143456.914    22143462.962
       230.000         184.000
  21959109.865   -17467582.84749 -13594787.95446  21959109.375    21959113.186
       233.000         185.000
 03  4 16  0 26  0.0000000  0  9G 9G21G14G17G23G31G15G 3G18
  23517135.573    -4768471.54649  -3705670.63145  23517135.396    23517141.527
       217.000         159.000
  22899281.034      707801.04049    561690.45345  22899282.087    22899286.455
       220.000         162.000
  20307359.097   -24657782.22549 -19202248.43947  20307358.668    20307362.830
       239.000         211.000
  23153275.710     3484683.45449   2827943.32445  23153275.101    23153282.704
       213.000         152.000
  22328253.109   -13681007.74149 -10645487.62746  22328252.972    22328259.110
       229.000         183.000
  22711085.434    -8447736.32349  -6572341.95546  22711084.793    22711091.225
       221.000         172.000
  20686147.243   -16366947.29049 -12715927.69447  20686146.799    20686152.564
       239.000         203.000
  22149684.441   -13450746.29149 -10435894.04446  22149684.922    22149690.514
       231.000         184.000
  21968743.591   -17416957.03049 -13555339.29546  21968743.505    21968747.868
       233.000         185.000
 03  4 16  0 26 30.0000000  0  9G 9G21G14G17G23G31G15G 3G18
  23523787.398    -4733516.47649  -3678432.89745  23523787.461    23523794.119
       214.000         158.000
  22915865.278      794951.08049    629599.50245  22915865.586    22915869.936
       220.000         162.000
  20303109.053   -24680115.80649 -19219651.20247  20303108.480    20303112.890
       239.000         211.000
  23169965.067     3572386.40549   2896283.21645  23169964.727    23169973.103
       212.000         150.000
  22336467.612   -13637840.66749 -10611850.95846  22336467.345    22336473.439
       230.000         183.000
  22708717.826    -8460178.03949  -6582036.81546  22708717.902    22708723.204
       223.000         173.000
  20694742.418   -16321779.47049 -12680732.00447  20694742.088    20694747.862
       240.000         204.000
  22156002.919   -13417542.62349 -10410021.07646  22156002.748    22156009.434
       230.000         184.000
  21978395.836   -17366234.03549 -13515814.89846  21978394.904    21978400.009
       233.000         185.000
 03  4 16  0 27  0.0000000  0  9G 9G21G14G17G23G31G15G 3G18
  23530547.896    -4697989.56649  -3650749.60445  23530547.061    23530554.131
       213.000         157.000
  22932503.529      882385.13149    697729.85845  22932504.877    22932509.036
       219.000         162.000
  20298958.135   -24701928.65749 -19236648.20247  20298957.734    20298962.152
       239.000         211.000
  23186709.741     3660380.49649   2964849.98445  23186710.055    23186717.315
       212.000         148.000
  22344689.700   -13594633.53749 -10578183.06546  22344688.674    22344695.295
       229.000         183.000
  22706456.481    -8472061.97049  -6591297.01646  22706456.237    22706462.272
       223.000         174.000
  20703421.414   -16276171.12149 -12645193.04647  20703420.780    20703426.962
       238.000         204.000
  22162411.967   -13383862.85349 -10383777.13246  22162411.832    22162418.660
       230.000         184.000
  21988066.373   -17315414.74449 -13476215.48546  21988065.249    21988070.320
       231.000         184.000
 03  4 16  0 27 30.0000000  0  9G 9G21G14G17G23G31G15G 3G18
  23537417.022    -4661891.41649  -3622621.17545  23537416.596    23537423.140
       211.000         155.000
  22949195.691      970102.38349    766080.90045  22949194.683    22949201.086
       219.000         161.000
  20294906.368   -24723220.60649 -19253239.31047  20294906.279    20294910.529
       241.000         212.000
  23203509.676     3748664.98549   3033643.01645  23203509.615    23203518.408
       211.000         146.000
  22352919.322   -13551386.06549 -10544483.76846  22352918.996    22352924.662
       229.000         183.000
  22704301.256    -8483387.82749  -6600122.36446  22704301.449    22704307.470
       224.000         173.000
  20712184.237   -16230122.15049 -12609310.76147  20712184.043    20712189.733
       239.000         203.000
  22168911.369   -13349708.48749 -10357163.36046  22168911.422    22168917.513
       232.000         184.000
  21997755.366   -17264498.78749 -13436540.73246  21997755.081    21997758.994
       234.000         184.000
 03  4 16  0 28  0.0000000  0  9G 9G21G14G17G23G31G15G 3G18
  23544394.706    -4625222.36649  -3594047.89445  23544394.565    23544400.566
       210.000         154.000
  22965941.528     1058102.27349    834652.16445  22965941.719    22965946.211
       215.000         160.000
  20290953.871   -24743991.40649 -19269424.32647  20290953.575    20290957.498
       241.000         212.000
  23220364.664     3837238.67449   3102661.40845  23220364.486    23220372.836
       208.000         144.000
  22361156.906   -13508097.65149 -10510752.54746  22361156.783    22361162.475
       229.000         183.000
  22702252.157    -8494155.20549  -6608512.52246  22702252.248    22702258.314
       223.000         173.000
  20721031.098   -16183632.14549 -12573084.79447  20721030.859    20721036.070
       240.000         203.000
  22175500.833   -13315080.76149 -10330180.73446  22175500.530    22175506.792
       232.000         184.000
  22007462.926   -17213485.61749 -13396790.21146  22007462.631    22007467.076
       233.000         184.000
 03  4 16  0 28 30.0000000  0  9G 9G21G14G17G23G31G15G 3G18
  23551481.132    -4587983.75449  -3565030.80845  23551481.059    23551487.746
       214.000         155.000
  22982740.782     1146382.92849    903442.20045  22982739.600    22982746.211
       216.000         159.000
  20287100.297   -24764242.10649 -19285204.06947  20287099.833    20287103.947
       240.000         212.000
  23237274.288     3926099.82549   3171903.79245  23237273.680    23237281.635
       209.000         143.000
  22369401.995   -13464769.08849 -10476990.06246  22369401.196    22369406.663
       228.000         182.000
  22700309.300    -8504364.94549  -6616468.16446  22700309.053    22700315.258
       223.000         173.000
  20729961.637   -16136701.94849 -12536515.82747  20729961.137    20729966.285
       239.000         202.000
  22182179.846   -13279982.24349 -10302831.26646  22182179.637    22182187.038
       233.000         185.000
  22017188.587   -17162376.52649 -13356964.98446  22017188.138    22017192.570
       233.000         184.000
 03  4 16  0 29  0.0000000  0  9G 9G21G14G17G23G31G15G 3G18
  23558675.716    -4550176.24549  -3535570.41345  23558675.388    23558681.821
       211.000         155.000
  22999593.193     1234943.25649    972450.16945  22999592.793    22999599.393
       215.000         160.000
  20283345.624   -24783972.86049 -19300578.66147  20283345.232    20283349.229
       240.000         212.000
  23254238.795     4015248.02249   3241369.83045  23254238.456    23254245.886
       209.000         143.000
  22377654.764   -13421400.44349 -10443196.33246  22377655.082    22377660.014
       229.000         182.000
  22698472.597    -8514017.27149  -6623989.46446  22698472.524    22698478.506
       221.000         174.000
  20738975.897   -16089331.71249 -12499603.96647  20738975.236    20738981.249
       239.000         202.000
  22188948.128   -13244414.87649 -10275116.45646  22188947.841    22188953.799
       232.000         185.000
  22026932.681   -17111171.45449 -13317064.93546  22026933.012    22026936.628
       233.000         184.000
 03  4 16  0 29 30.0000000  0  9G 9G21G14G17G23G31G15G 3G18
  23565978.194    -4511801.34049  -3505667.90445  23565978.662    23565984.175
       214.000         153.000
  23016498.550     1323781.83049   1041674.96845  23016497.880    23016504.035
       217.000         160.000
  20279689.789   -24803184.38249 -19315548.65647  20279689.563    20279693.452
       239.000         212.000
  23271257.566     4104681.45749   3311058.13845  23271257.853    23271266.668
       206.000         142.000
  22385915.128   -13377991.93349 -10409371.52846  22385914.994    22385920.863
       228.000         182.000
  22696741.769    -8523112.70449  -6631076.80846  22696741.823    22696747.776
       223.000         173.000
  20748073.803   -16041522.00549 -12462349.67547  20748073.578    20748079.311
       239.000         202.000
  22195805.163   -13208380.93649 -10247038.08346  22195804.904    22195811.186
       232.000         185.000
  22036694.856   -17059871.02849 -13277090.59546  22036694.164    22036699.300
       231.000         184.000
 03  4 16  0 30  0.0000000  0  9G 9G21G14G17G23G31G15G 3G18
  23573388.719    -4472859.67449  -3475323.75645  23573389.502    23573395.157
       214.000         153.000
  23033456.790     1412897.39249   1111115.58545  23033456.390    23033462.275
       220.000         160.000
  20276132.752   -24821876.66349 -19330114.05147  20276132.226    20276136.298
       240.000         212.000
  23288330.263     4194399.13249   3380967.92445  23288329.565    23288338.882
       207.000         142.000
  22394183.168   -13334543.47649 -10375515.60346  22394183.210    22394188.914
       229.000         181.000
  22695116.941    -8531651.28549  -6637730.23046  22695117.007    22695122.465
       224.000         173.000
  20757255.319   -15993272.73649 -12424752.85747  20757254.752    20757260.567
       239.000         202.000
  22202750.676   -13171882.13249 -10218597.48646  22202750.736    22202757.091
       233.000         186.000
  22046474.941   -17008475.45649 -13237042.12646  22046474.293    22046478.821
       232.000         184.000
 03  4 16  0 30 30.0000000  0  9G 9G21G14G17G23G31G15G 3G18
  23580906.742    -4433352.24549  -3444538.72345  23580907.158    23580913.624
       213.000         153.000
  23050467.361     1502288.92749   1180771.25545  23050466.764    23050473.249
       220.000         161.000
  20272674.446   -24840049.97049 -19344275.04847  20272673.970    20272678.021
       238.000         212.000
  23305456.843     4284399.83949   3451098.26045  23305455.629    23305465.588
       206.000         143.000
  22402458.844   -13291054.96949 -10341628.46746  22402458.771    22402464.914
       228.000         182.000
  22693598.055    -8539633.17649  -6643949.87346  22693597.989    22693603.667
       223.000         172.000
  20766520.469   -15944584.16749 -12386813.73747  20766519.807    20766526.115
       238.000         203.000
  22209784.391   -13134920.34149 -10189796.11646  22209784.196    22209790.475
       232.000         186.000
  22056273.338   -16956984.82749 -13196919.57346  22056273.010    22056276.920
       231.000         184.000
 03  4 16  0 31  0.0000000  0  9G 9G21G14G17G23G31G15G 3G18
  23588532.211    -4393279.43349  -3413313.17045  23588532.409    23588538.922
       211.000         152.000
  23067530.362     1591955.73449   1250641.43045  23067530.351    23067535.805
       221.000         160.000
  20269314.899   -24857704.17549 -19358031.55747  20269314.765    20269318.855
       239.000         212.000
  23322637.233     4374682.86549   3521448.57145  23322636.645    23322645.219
       206.000         143.000
  22410742.171   -13247525.75349 -10307709.62146  22410741.916    22410747.535
       227.000         181.000
  22692185.092    -8547058.11449  -6649735.52946  22692185.037    22692190.203
       223.000         170.000
  20775869.273   -15895455.90149 -12348532.00147  20775868.835    20775874.827
       238.000         202.000
  22216905.840   -13097497.03649 -10160635.12646  22216905.976    22216911.792
       231.000         185.000
  22066089.804   -16905398.75649 -13156722.65046  22066089.534    22066093.649
       232.000         183.000
 03  4 16  0 31 30.0000000  0  9G 9G21G14G17G23G31G15G 3G18
  23596265.138    -4352642.53249  -3381648.04345  23596265.285    23596272.443
       214.000         152.000
  23084645.586     1681896.32449   1320724.93145  23084645.562    23084651.857
       222.000         160.000
  20266054.034   -24874840.18849 -19371384.26947  20266053.773    20266057.819
       239.000         212.000
  23339871.034     4465247.24149   3592018.11245  23339871.173    23339880.151
       206.000         145.000
  22419033.146   -13203956.48249 -10273759.54246  22419032.767    22419038.216
       229.000         181.000
  22690878.093    -8553926.82549  -6655087.75146  22690878.092    22690882.604
       225.000         171.000
  20785301.607   -15845888.69249 -12309908.20447  20785301.115    20785306.458
       239.000         201.000
  22224114.676   -13059614.57249 -10131116.34546  22224114.756    22224121.357
       232.000         185.000
  22075924.352   -16853717.96349 -13116451.91146  22075924.286    22075929.007
       233.000         184.000
 03  4 16  0 32  0.0000000  0  9G 9G21G14G17G23G31G15G 3G18
  23604105.036    -4311443.78249  -3349545.11545  23604104.768    23604111.642
       212.000         152.000
  23101812.592     1772108.31949   1391019.93045  23101812.998    23101817.767
       222.000         159.000
  20262891.467   -24891459.30249 -19384334.20947  20262890.753    20262895.208
       239.000         211.000
  23357158.073     4556090.47049   3662804.94045  23357157.746    23357166.480
       208.000         147.000
  22427331.728   -13160347.89049 -10239778.83146  22427331.082    22427337.347
       229.000         181.000
  22689676.732    -8560240.70749  -6660007.64646  22689676.914    22689681.476
       226.000         173.000
  20794817.280   -15795883.77149 -12270943.34247  20794816.678    20794822.711
       239.000         202.000
  22231410.384   -13021275.89049 -10101242.08246  22231410.295    22231416.657
       231.000         185.000
  22085776.792   -16801943.30849 -13076108.04446  22085776.305    22085781.136
       232.000         184.000
 03  4 16  0 32 30.0000000  0  9G 9G21G14G17G23G31G15G 3G18
  23612051.781    -4269682.59049  -3317003.92145  23612051.007    23612058.650
       212.000         152.000
  23119031.153     1862591.81449   1461526.48545  23119031.757    23119036.081
       220.000         157.000
  20259827.448   -24907560.50649 -19396880.58647  20259827.353    20259831.130
       240.000         211.000
  23374498.129     4647212.98949   3733809.40345  23374498.431    23374506.669
       209.000         148.000
  22435637.869   -13116698.63049 -10205766.44246  22435637.971    22435642.999
       230.000         180.000
  22688581.106    -8565998.57549  -6664494.29046  22688579.943    22688585.625
       223.000         173.000
  20804416.427   -15745440.08949 -12231636.62247  20804416.272    20804421.914
       239.000         202.000
  22238792.569   -12982481.65049 -10071012.84046  22238792.534    22238799.224
       232.000         184.000
  22095647.288   -16750073.69749 -13035690.17846  22095646.972    22095651.307
       233.000         183.000
 03  4 16  0 33  0.0000000  0  9G 9G21G14G17G23G31G15G 3G18
  23620105.306    -4227361.11549  -3284026.18745  23620104.872    23620111.541
       211.000         151.000
  23136300.890     1953344.74949   1532242.99145  23136301.512    23136306.516
       217.000         155.000
  20256861.788   -24923145.20849 -19409024.48447  20256861.387    20256865.259
       240.000         211.000
  23391890.895     4738612.09149   3805029.39245  23391890.741    23391899.608
       210.000         150.000
  22443951.602   -13073009.59749 -10171723.03446  22443951.036    22443956.664
       229.000         180.000
  22687590.762    -8571201.83149  -6668548.76546  22687589.878    22687596.305
       224.000         173.000
  20814098.806   -15694558.93849 -12191988.98347  20814098.160    20814104.047
       239.000         201.000
  22246261.086   -12943234.87049 -10040430.95846  22246260.754    22246266.606
       232.000         184.000
  22105535.642   -16698110.07349 -12995199.05146  22105535.566    22105540.016
       233.000         184.000
 03  4 16  0 33 30.0000000  0 10G 9G21G25G14G17G23G31G15G 3G18
  23628264.732    -4184482.90149  -3250614.62245  23628264.863    23628271.528
       208.000         149.000
  23153621.240     2044363.23949   1603166.42045  23153621.331    23153625.651
       217.000         154.000
  24506693.843    -1944849.01359  -1294912.42045  24506692.320    24506702.334
       208.000         142.000
  20253993.839   -24938216.36949 -19420768.23647  20253993.392    20253997.780
       239.000         212.000
  23409335.656     4830284.26849   3876462.16345  23409335.814    23409344.351
       211.000         152.000
  22452272.469   -13029283.18549 -10137650.53046  22452272.016    22452278.126
       228.000         180.000
  22686705.574    -8575853.39449  -6672173.37046  22686705.071    22686711.293
       222.000         173.000
  20823863.906   -15643243.01249 -12152002.57947  20823863.449    20823869.275
       238.000         201.000
  22253814.793   -12903540.13549 -10009500.02246  22253814.385    22253820.776
       230.000         183.000
  22115441.423   -16646055.31749 -12954636.95046  22115441.339    22115445.779
       231.000         185.000
 03  4 16  0 34  0.0000000  0 10G 9G21G25G14G17G23G31G15G 3G18
  23636530.590    -4141045.68949  -3216767.46845  23636529.961    23636537.322
       206.000         146.000
  23170992.614     2135649.83849   1674298.75345  23170993.105    23170997.763
       218.000         155.000
  24488082.418    -2042652.21149  -1371122.51445  24488081.714    24488090.481
       207.000         142.000
  20251224.195   -24952771.03249 -19432109.51547  20251224.149    20251228.191
       240.000         212.000
  23426832.767     4922231.83849   3948109.52445  23426833.021    23426841.151
       212.000         153.000
  22460601.109   -12985515.92449 -10103546.20346  22460600.730    22460606.194
       229.000         181.000
  22685926.047    -8579949.99049  -6675365.52346  22685926.090    22685932.118
       222.000         174.000
  20833712.314   -15591489.00949 -12111674.81447  20833711.961    20833717.853
       239.000         202.000
  22261453.937   -12863395.87449  -9978218.81746  22261453.696    22261460.276
       231.000         183.000
  22125365.077   -16593906.22049 -12914001.32146  22125365.128    22125368.572
       230.000         184.000
 03  4 16  0 34 30.0000000  0 10G 9G21G25G14G17G23G31G15G 3G18
  23644902.834    -4097048.55249  -3182483.99545  23644902.714    23644909.311
       203.000         144.000
  23188415.044     2227204.73649   1745640.14645  23188414.495    23188420.137
       216.000         155.000
  24469458.658    -2140519.55249  -1447382.61545  24469457.857    24469467.570
       206.000         141.000
  20248553.043   -24966807.99449 -19443047.39047  20248552.789    20248556.808
       239.000         212.000
  23444382.476     5014455.08849   4019971.68645  23444382.482    23444391.229
       213.000         154.000
  22468937.862   -12941706.11549 -10069408.70946  22468937.208    22468942.955
       229.000         181.000
  22685252.186    -8583490.62549  -6678124.47446  22685251.857    22685258.687
       222.000         174.000
  20843644.398   -15539295.61049 -12071004.65247  20843643.786    20843649.672
       238.000         201.000
  22269178.562   -12822802.65749  -9946587.76246  22269178.778    22269184.348
       231.000         183.000
  22135306.989   -16541661.18049 -12873290.92646  22135306.636    22135311.271
       231.000         183.000
 03  4 16  0 35  0.0000000  0 10G 9G21G25G14G17G23G31G15G 3G18
  23653381.223    -4052494.62849  -3147766.70145  23653380.545    23653387.816
       205.000         144.000
  23205887.703     2319024.69149   1817188.08345  23205887.149    23205892.593
       217.000         155.000
  24450822.825    -2238450.23049  -1523692.05345  24450821.499    24450830.559
       204.000         142.000
  20245979.887   -24980329.81449 -19453583.85147  20245979.550    20245983.415
       238.000         212.000
  23461984.164     5106951.31649   4092046.57945  23461984.046    23461992.670
       212.000         154.000
  22477282.361   -12897855.61349 -10035239.51646  22477282.351    22477288.019
       228.000         180.000
  22684683.771    -8586477.58449  -6680451.98646  22684683.331    22684689.071
       223.000         173.000
  20853659.686   -15486665.22749 -12029993.98547  20853659.462    20853665.185
       238.000         201.000
  22276987.960   -12781764.43849  -9914609.94646  22276987.293    22276993.400
       230.000         182.000
  22145266.723   -16489322.24249 -12832507.36946  22145266.431    22145271.674
       230.000         183.000
 03  4 16  0 35 30.0000000  0 10G 9G21G25G14G17G23G31G15G 3G18
  23661965.102    -4007385.86149  -3112617.01045  23661965.402    23661971.631
       208.000         145.000
  23223410.456     2411107.95549   1888941.20045  23223410.647    23223416.077
       219.000         156.000
  24432175.387    -2336442.23049  -1600049.27545  24432173.268    24432183.601
       206.000         140.000
  20243504.598   -24993337.52949 -19463719.72047  20243504.344    20243508.254
       241.000         212.000
  23479637.353     5199718.70249   4164332.76345  23479637.415    23479646.156
       212.000         153.000
  22485634.477   -12853964.91149 -10001039.00746  22485634.689    22485639.588
       231.000         182.000
  22684220.623    -8588912.01949  -6682348.93546  22684220.301    22684225.652
       227.000         172.000
  20863757.969   -15433598.70849 -11988643.47947  20863757.461    20863763.524
       241.000         201.000
  22284881.381   -12740283.69449  -9882287.32546  22284881.368    22284887.846
       231.000         181.000
  22155244.202   -16436890.01949 -12791651.13346  22155244.094    22155248.679
       232.000         183.000
 03  4 16  0 36  0.0000000  0 10G 9G21G25G14G17G23G31G15G 3G18
  23670654.548    -3961722.14149  -3077034.90145  23670654.317    23670662.077
       207.000         145.000
  23240983.418     2503454.58749   1960899.54745  23240983.612    23240989.586
       218.000         156.000
  24413516.800    -2434491.78649  -1676451.33345  24413516.734    24413524.715
       206.000         140.000
  20241127.274   -25005830.32849 -19473454.34647  20241126.869    20241130.905
       239.000         212.000
  23497342.040     5292757.05349   4236830.07545  23497341.809    23497350.919
       211.000         152.000
  22493994.611   -12810032.64549  -9966806.10046  22493994.911    22493999.883
       229.000         181.000
  22683862.717    -8590793.02449  -6683814.64146  22683862.199    22683868.114
       226.000         173.000
  20873939.385   -15380095.09149 -11946952.37847  20873938.623    20873944.707
       238.000         202.000
  22292858.831   -12698361.34049  -9849620.58246  22292858.905    22292865.191
       229.000         181.000
  22165239.772   -16384363.37249 -12750721.30746  22165240.134    22165243.669
       231.000         182.000
 03  4 16  0 36 30.0000000  0 10G 9G21G25G14G17G23G31G15G 3G18
  23679449.157    -3915506.44249  -3041022.67945  23679449.478    23679454.736
       209.000         146.000
  23258606.015     2596061.49749   2033060.69745  23258605.443    23258611.909
       218.000         156.000
  24394847.763    -2532598.13949  -1752897.66345  24394847.489    24394855.910
       205.000         140.000
  20238847.593   -25017810.24349 -19482789.32947  20238847.427    20238851.394
       240.000         212.000
  23515097.568     5386063.54049   4309536.34945  23515096.867    23515106.194
       209.000         151.000
  22502362.296   -12766060.33849  -9932541.98446  22502362.359    22502367.950
       229.000         180.000
  22683609.785    -8592122.85049  -6684850.86046  22683610.343    22683615.441
       225.000         173.000
  20884203.487   -15326156.48649 -11904922.32847  20884203.157    20884208.766
       239.000         200.000
  22300919.805   -12656001.31749  -9816612.80146  22300919.635    22300925.988
       231.000         182.000
  22175252.899   -16331744.24049 -12709719.40246  22175252.272    22175257.438
       231.000         181.000
 03  4 16  0 37  0.0000000  0 10G 9G21G25G14G17G23G31G15G 3G18
  23688348.652    -3868739.48149  -3004580.89845  23688348.278    23688355.070
       208.000         144.000
  23276277.895     2688927.73549   2105423.91945  23276278.178    23276284.812
       216.000         155.000
  24376168.397    -2630758.35649  -1829385.93945  24376167.720    24376176.453
       206.000         141.000
  20236665.336   -25029277.76449 -19491725.05347  20236664.759    20236668.907
       239.000         212.000
  23532903.971     5479636.97549   4382450.61845  23532903.100    23532911.669
       208.000         149.000
  22510737.697   -12722047.41349  -9898246.22746  22510737.541    22510743.057
       229.000         181.000
  22683461.566    -8592901.66049  -6685457.72246  22683460.507    22683466.629
       224.000         173.000
  20894550.379   -15271783.03049 -11862553.42547  20894549.924    20894555.930
       239.000         200.000
  22309063.700   -12613205.20249  -9783265.20746  22309063.377    22309070.094
       231.000         183.000
  22185283.650   -16279032.19349 -12668645.11046  22185283.448    22185288.265
       231.000         181.000
 03  4 16  0 37 30.0000000  0 10G 9G21G25G14G17G23G31G15G 3G18
  23697352.651    -3821422.18549  -2967710.27045  23697351.705    23697359.696
       207.000         144.000
  23293998.882     2782052.33049   2177988.45345  23293998.580    23294004.641
       218.000         154.000
  24357479.132    -2728969.47949  -1905913.88145  24357477.849    24357487.516
       205.000         140.000
  20234580.609   -25040233.12649 -19500261.69148  20234580.691    20234584.284
       240.000         213.000
  23550761.014     5573476.60249   4455572.31545  23550760.658    23550770.205
       207.000         148.000
  22519120.834   -12677993.60049  -9863918.61646  22519120.517    22519126.427
       227.000         179.000
  22683418.007    -8593129.71949  -6685635.44046  22683418.026    22683424.103
       222.000         173.000
  20904980.156   -15216974.68849 -11819845.66147  20904979.764    20904985.838
       238.000         201.000
  22317290.241   -12569974.93349  -9749579.31146  22317290.521    22317296.959
       231.000         184.000
  22195332.235   -16226226.78749 -12627498.06846  22195332.311    22195336.385
       230.000         180.000
 03  4 16  0 38  0.0000000  0 10G 9G21G25G14G17G23G31G15G 3G18
  23706461.365    -3773555.17649  -2930411.32645  23706462.098    23706466.237
       209.000         141.000
  23311769.049     2875434.62949   2250753.79445  23311768.958    23311775.901
       216.000         154.000
  24338780.795    -2827228.30749  -1982479.01545  24338780.633    24338788.410
       205.000         139.000
  20232593.462   -25050676.09849 -19508399.04548  20232593.217    20232597.132
       240.000         213.000
  23568668.752     5667581.58649   4528900.76545  23568668.280    23568677.282
       211.000         147.000
  22527511.993   -12633897.98149  -9829558.40646  22527511.948    22527516.570
       228.000         178.000
  22683479.317    -8592806.93149  -6685383.92046  22683478.704    22683485.261
       223.000         173.000
  20915492.686   -15161731.16149 -11776798.78747  20915492.256    20915498.052
       239.000         201.000
  22325599.091   -12526312.13249  -9715556.36546  22325599.089    22325605.476
       230.000         183.000
  22205398.650   -16173327.76249 -12586278.03946  22205398.802    22205402.738
       231.000         179.000
 03  4 16  0 38 30.0000000  0 10G 9G21G25G14G17G23G31G15G 3G18
  23715674.201    -3725141.02349  -2892686.02045  23715673.371    23715681.220
       207.000         139.000
  23329587.740     2969072.12949   2323717.99945  23329587.483    23329593.052
       215.000         154.000
  24320073.866    -2925533.34949  -2059080.15645  24320073.014    24320082.480
       205.000         137.000
  20230703.316   -25060608.74249 -19516138.75248  20230702.996    20230707.064
       240.000         213.000
  23586626.744     5761950.07949   4602434.57045  23586626.778    23586634.855
       209.000         146.000
  22535910.888   -12589761.49149  -9795166.35146  22535910.094    22535916.448
       226.000         177.000
  22683645.194    -8591935.10549  -6684704.59146  22683644.310    22683651.080
       223.000         174.000
  20926087.675   -15106054.12649 -11733414.10647  20926087.011    20926092.961
       238.000         200.000
  22333989.434   -12482219.87749  -9681198.79946  22333989.381    22333995.086
       229.000         182.000
  22215482.649   -16120336.31349 -12544986.01646  22215482.232    22215487.147
       229.000         180.000
 03  4 16  0 39  0.0000000  0 10G 9G21G25G14G17G23G31G15G 3G18
  23724990.988    -3676181.30349  -2854535.59345  23724991.580    23724998.031
       208.000         136.000
  23347454.673     3062963.25349   2396879.82245  23347455.203    23347460.653
       217.000         155.000
  24301358.496    -3023882.15249  -2135715.38245  24301358.560    24301366.352
       205.000         137.000
  20228910.088   -25070031.96449 -19523481.50648  20228909.577    20228913.894
       239.000         213.000
  23604634.509     5856580.32349   4676172.31945  23604634.382    23604642.604
       207.000         144.000
  22544317.449   -12545584.17849  -9760742.51046  22544317.384    22544323.016
       226.000         177.000
  22683915.410    -8590515.19749  -6683598.19646  22683915.862    22683920.673
       227.000         175.000
  20936764.986   -15049944.36149 -11689692.23347  20936764.300    20936770.133
       237.000         200.000
  22342461.145   -12437700.54349  -9646508.42746  22342461.126    22342468.287
       229.000         181.000
  22225584.037   -16067252.88449 -12503622.34246  22225584.128    22225589.021
       230.000         181.000
 03  4 16  0 39 30.0000000  0 10G 9G21G25G14G17G23G31G15G 3G18
  23734411.440    -3626677.12049  -2815960.91745  23734411.119    23734416.510
       204.000         133.000
  23365369.827     3157106.92549   2470238.43945  23365369.062    23365376.061
       216.000         155.000
  24282635.279    -3122272.19649  -2212382.74745  24282634.482    24282642.774
       204.000         136.000
  20227213.753   -25078946.08049 -19530427.55848  20227213.561    20227217.559
       239.000         213.000
  23622691.685     5951471.13149   4750113.13545  23622692.470    23622700.361
       207.000         143.000
  22552731.995   -12501365.79249  -9726286.63846  22552732.318    22552736.955
       226.000         176.000
  22684289.938    -8588547.51349  -6682064.95346  22684289.613    22684295.316
       227.000         177.000
  20947524.564   -14993402.08149 -11645633.35047  20947524.301    20947530.356
       238.000         200.000
  22351013.744   -12392756.46349  -9611487.10846  22351013.875    22351019.372
       228.000         181.000
  22235703.186   -16014076.82049 -12462186.47046  22235703.443    22235707.541
       230.000         181.000
 03  4 16  0 40  0.0000000  0 10G 9G21G25G14G17G23G31G15G 3G18
  23743935.160    -3576629.98249  -2776963.16144  23743935.106    23743941.730
       204.000         130.000
  23383332.634     3251501.46649   2543792.54545  23383332.086    23383338.550
       216.000         154.000
  24263904.745    -3220700.98649  -2289080.32045  24263904.259    24263914.021
       208.000         137.000
  20225614.186   -25087351.75849 -19536977.42248  20225613.899    20225617.759
       240.000         213.000
  23640798.171     6046620.94049   4824255.73745  23640796.787    23640807.177
       204.000         140.000
  22561154.227   -12457106.48849  -9691798.87046  22561153.399    22561159.570
       226.000         175.000
  22684768.508    -8586033.18949  -6680105.76946  22684768.352    22684774.037
       227.000         178.000
  20958366.457   -14936428.11049 -11601238.08047  20958366.385    20958371.912
       240.000         201.000
  22359646.645   -12347390.15149  -9576136.76846  22359646.879    22359652.784
       229.000         180.000
  22245839.719   -15960808.96349 -12420679.05346  22245839.816    22245844.002
       229.000         180.000
 03  4 16  0 40 30.0000000  0 10G 9G21G25G14G17G23G31G15G 3G18
  23753562.197    -3526040.37349  -2737542.67544  23753562.341    23753570.236
       205.000         131.000
  23401343.087     3346146.64949   2617541.96445  23401341.428    23401349.063
       215.000         153.000
  24245167.425    -3319165.31049  -2365805.60245  24245166.660    24245177.069
       206.000         137.000
  20224111.389   -25095249.14049 -19543131.21648  20224111.189    20224114.907
       240.000         213.000
  23658953.709     6142029.23449   4898599.77845  23658952.548    23658961.964
       206.000         139.000
  22569584.427   -12412805.23549  -9657278.42746  22569584.192    22569589.592
       226.000         175.000
  22685351.072    -8582971.88149  -6677720.36246  22685350.159    22685357.100
       224.000         175.000
  20969290.609   -14879021.88549 -11556505.98847  20969290.162    20969296.182
       239.000         201.000
  22368359.627   -12301602.72349  -9540458.26446  22368359.207    22368365.480
       227.000         179.000
  22255993.934   -15907448.20749 -12379099.27246  22255993.756    22255998.792
       229.000         180.000
 03  4 16  0 41  0.0000000  0 10G 9G21G25G14G17G23G31G15G 3G18
  23763292.131    -3474910.35849  -2697701.13145  23763292.495    23763296.594
       205.000         133.000
  23419400.808     3441040.49749   2691485.13945  23419402.005    23419407.233
       214.000         153.000
  24226423.828    -3417662.78049  -2442556.69245  24226423.936    24226432.098
       210.000         137.000
  20222705.094   -25102639.31349 -19548889.76648  20222704.893    20222708.687
       239.000         213.000
  23677158.178     6237694.27149   4973143.87445  23677157.325    23677167.277
       204.000         137.000
  22578022.669   -12368462.11149  -9622725.36346  22578022.570    22578028.312
       226.000         176.000
  22686037.382    -8579364.83849  -6674909.69446  22686036.744    22686043.576
       222.000         172.000
  20980296.706   -14821184.73349 -11511438.11147  20980296.413    20980302.241
       240.000         201.000
  22377152.167   -12255397.02449  -9504453.84746  22377152.270    22377159.498
       228.000         179.000
  22266165.678   -15853995.25749 -12337447.64246  22266165.594    22266170.143
       231.000         180.000
 03  4 16  0 41 30.0000000  0 10G 9G21G25G14G17G23G31G15G 3G18
  23773124.374    -3423242.10149  -2657440.13045  23773124.518    23773131.004
       208.000         136.000
  23437505.584     3536180.73449   2765620.30845  23437506.172    23437512.718
       215.000         151.000
  24207674.306    -3516191.57249  -2519332.18445  24207672.487    24207682.103
       210.000         138.000
  20221394.912   -25109524.09049 -19554254.50848  20221394.470    20221398.537
       240.000         213.000
  23695411.122     6333613.84249   5047886.29545  23695410.369    23695420.047
       200.000         135.000
  22586468.663   -12324077.85049  -9588140.23546  22586468.653    22586473.603
       224.000         174.000
  22686827.183    -8575213.72749  -6671675.09946  22686826.637    22686833.310
       223.000         171.000
  20991384.570   -14762917.83249 -11466035.34147  20991384.447    20991389.758
       239.000         200.000
  22386023.924   -12208776.03249  -9468125.82346  22386024.628    22386031.045
       228.000         179.000
  22276354.940   -15800450.79049 -12295724.69746  22276354.910    22276359.393
       230.000         179.000
 03  4 16  0 42  0.0000000  0 10G 9G21G25G14G17G23G31G15G 3G18
  23783059.187    -3371035.61849  -2616759.81045  23783059.431    23783065.036
       205.000         137.000
  23455657.209     3631567.43049   2839947.50945  23455657.946    23455663.798
       212.000         150.000
  24188919.500    -3614747.83049  -2596129.07345  24188919.420    24188929.142
       211.000         139.000
  20220181.115   -25115902.57449 -19559224.75648  20220180.790    20220184.720
       241.000         213.000
  23713712.444     6429788.15449   5122827.24145  23713711.379    23713721.067
       200.000         132.000
  22594922.778   -12279651.01949  -9553521.93246  22594921.871    22594927.988
       227.000         174.000
  22687720.808    -8570517.87749  -6668016.00946  22687720.888    22687727.025
       226.000         173.000
  21002554.332   -14704220.37649 -11420297.08747  21002554.084    21002560.062
       240.000         201.000
  22394974.544   -12161740.56249  -9431474.85046  22394974.752    22394981.231
       229.000         179.000
  22286561.781   -15746813.60749 -12253929.51646  22286561.824    22286565.699
       233.000         180.000
 03  4 16  0 42 30.0000000  0 10G 9G21G25G14G17G23G31G15G 3G18
  23793095.659    -3318292.96549  -2575661.66645  23793095.373    23793102.080
       203.000         137.000
  23473855.259     3727198.39449   2914465.05245  23473854.179    23473861.017
       211.000         149.000
  24170159.882    -3713329.22049  -2672945.56445  24170159.487    24170168.803
       210.000         139.000
  20219063.378   -25121776.40249 -19563801.74847  20219063.134    20219066.824
       239.000         212.000
  23732061.821     6526214.76649   5197964.76244  23732061.945    23732073.231
       200.000         130.000
  22603384.970   -12235181.96349  -9518870.72446  22603384.023    22603391.055
       224.000         175.000
  22688717.909    -8565278.71349  -6663933.57046  22688718.837    22688723.810
       226.000         175.000
  21013805.788   -14645093.61949 -11374224.32047  21013805.445    21013811.375
       238.000         201.000
  22404003.457   -12114293.67449  -9394503.27246  22404004.051    22404009.510
       228.000         178.000
  22296786.177   -15693084.25749 -12212062.50346  22296785.826    22296790.531
       230.000         180.000
 03  4 16  0 43  0.0000000  0 10G 9G21G25G14G17G23G31G15G 3G18
  23803233.500    -3265016.95949  -2534147.90745  23803234.234    23803239.951
       204.000         137.000
  23492099.248     3823071.49549   2989171.27645  23492099.578    23492106.590
       209.000         148.000
  24151395.869    -3811934.24549  -2749780.46845  24151395.627    24151405.188
       209.000         140.000
  20218041.307   -25127147.15049 -19567986.72347  20218041.111    20218044.735
       239.000         212.000
  23750458.914     6622891.73049   5273297.36244  23750458.740    23750467.956
       195.000         128.000
  22611855.083   -12190671.49049  -9484187.26946  22611854.989    22611860.405
       226.000         175.000
  22689818.031    -8559497.98449  -6659429.12646  22689818.026    22689823.197
       224.000         175.000
  21025138.636   -14585539.14749 -11327818.27347  21025137.930    21025143.909
       238.000         200.000
  22413110.044   -12066438.76349  -9357213.74846  22413110.397    22413116.265
       228.000         178.000
  22307027.901   -15639263.77349 -12170124.49246  22307027.906    22307031.944
       230.000         179.000
 03  4 16  0 43 30.0000000  0 10G 9G21G25G14G17G23G31G15G 3G18
  23813473.043    -3211207.66649  -2492218.61145  23813472.956    23813479.536
       206.000         142.000
  23510389.372     3919186.51449   3064066.02145  23510388.807    23510395.664
       210.000         148.000
  24132628.059    -3910559.28149  -2826630.94945  24132627.689    24132636.830
       210.000         141.000
  20217115.117   -25132014.30049 -19571779.28047  20217114.933    20217118.869
       240.000         212.000
  23768903.416     6719818.63549   5348824.74244  23768902.871    23768912.881
       197.000         126.000
  22620333.366   -12146118.20649  -9449470.43446  22620332.400    22620338.981
       226.000         175.000
  22691021.170    -8553175.51649  -6654502.56146  22691020.673    22691026.721
       223.000         173.000
  21036553.077   -14525556.19249 -11281078.31747  21036553.007    21036558.270
       240.000         199.000
  22422294.014   -12018176.90249  -9319607.14046  22422293.579    22422301.129
       227.000         178.000
  22317287.178   -15585351.05149 -12128114.60646  22317287.194    22317291.438
       231.000         179.000
 03  4 16  0 44  0.0000000  0 10G 9G21G25G14G17G23G31G15G 3G18
  23823813.716    -3156866.44949  -2449874.82345  23823813.487    23823820.907
       209.000         144.000
  23528725.235     4015542.00849   3139148.15445  23528724.923    23528732.215
       211.000         149.000
  24113857.105    -4009201.38349  -2903494.73145  24113856.425    24113866.427
       210.000         142.000
  20216284.531   -25136379.01849 -19575180.35747  20216284.148    20216288.247
       239.000         212.000
  23787395.469     6816994.40049   5424546.04144  23787394.759    23787406.283
       195.000         124.000
  22628819.844   -12101521.63149  -9414719.88646  22628819.105    22628826.010
       226.000         176.000
  22692327.130    -8546312.01649  -6649154.40946  22692326.959    22692331.968
       226.000         172.000
  21048048.961   -14465145.18349 -11234004.82347  21048048.609    21048054.343
       238.000         200.000
  22431554.776   -11969510.44549  -9281685.28346  22431555.038    22431561.471
       228.000         177.000
  22327563.938   -15531345.99049 -12086032.77046  22327563.150    22327567.788
       230.000         178.000
 03  4 16  0 44 30.0000000  0 10G 9G21G25G14G17G23G31G15G 3G18
  23834255.249    -3101996.18149  -2407118.80845  23834255.408    23834261.232
       211.000         146.000
  23547106.366     4112135.08949   3214415.41145  23547105.948    23547111.944
       211.000         148.000
  24095082.876    -4107859.35349  -2980370.85545  24095083.151    24095091.274
       210.000         142.000
  20215549.159   -25140243.29749 -19578191.45748  20215549.057    20215552.780
       240.000         213.000
  23805934.368     6914416.43248   5500459.20444  23805933.145    23805943.541
       194.000         121.000
  22637314.350   -12056882.92449  -9379936.50446  22637314.503    22637321.106
       227.000         177.000
  22693735.897    -8538909.73949  -6643386.39946  22693735.234    22693741.953
       226.000         173.000
  21059625.757   -14404308.30949 -11186599.50347  21059625.245    21059631.538
       237.000         200.000
  22440892.151   -11920442.82049  -9243450.80346  22440892.523    22440897.913
       228.000         177.000
  22337858.114   -15477249.90649 -12043880.00446  22337857.423    22337862.685
       229.000         178.000
 03  4 16  0 45  0.0000000  0 10G 9G21G25G14G17G23G31G15G 3G18
  23844797.083    -3046598.22349  -2363951.60045  23844796.831    23844803.580
       212.000         148.000
  23565532.422     4208964.83549   3289867.08145  23565531.912    23565538.475
       211.000         149.000
  24076306.344    -4206529.99449  -3057256.89145  24076305.890    24076313.554
       209.000         142.000
  20214908.989   -25143607.65249 -19580813.01848  20214908.790    20214912.580
       239.000         213.000
  23824519.937     7012083.23848   5576563.10544  23824519.169    23824531.437
       191.000         119.000
  22645816.999   -12012201.60849  -9345119.92646  22645817.067    22645821.980
       226.000         177.000
  22695246.737    -8530969.30649  -6637199.05246  22695246.428    22695252.034
       225.000         174.000
  21071283.662   -14343045.93849 -11138862.62547  21071283.274    21071288.728
       239.000         200.000
  22450305.421   -11870976.15849  -9204905.39146  22450304.687    22450311.675
       227.000         176.000
  22348169.530   -15423062.66649 -12001656.21146  22348169.414    22348173.948
       229.000         178.000
 03  4 16  0 45 30.0000000  0 10G 9G21G25G14G17G23G31G15G 3G18
  23855439.127    -2990673.16549  -2320373.64445  23855439.193    23855445.591
       214.000         150.000
  23584003.538     4306030.82249   3365502.83545  23584002.605    23584009.761
       212.000         150.000
  24057528.135    -4305209.72449  -3134149.96245  24057528.180    24057535.595
       209.000         142.000
  20214363.910   -25146471.94449 -19583044.92447  20214363.437    20214367.271
       239.000         212.000
  23843152.089     7109994.74548   5652857.66844  23843152.349    23843159.145
       191.000         117.000
  22654327.957   -11967476.30549  -9310269.04846  22654328.205    22654333.629
       228.000         176.000
  22696860.182    -8522490.53149  -6630592.22246  22696860.361    22696866.760
       226.000         175.000
  21083022.676   -14281357.39149 -11090793.63747  21083022.127    21083027.275
       239.000         199.000
  22459794.259   -11821111.87549  -9166050.15346  22459793.898    22459801.299
       226.000         176.000
  22358498.679   -15368782.97749 -11959360.37546  22358498.134    22358502.943
       230.000         178.000
 03  4 16  0 46  0.0000000  0 10G 9G21G25G14G17G23G31G15G 3G18
  23866181.030    -2934223.41149  -2276386.82645  23866180.787    23866187.757
       210.000         150.000
  23602519.157     4403330.83549   3441320.93645  23602518.986    23602525.615
       212.000         151.000
  24038748.448    -4403896.63249  -3211048.63745  24038746.962    24038756.193
       208.000         142.000
  20213913.577   -25148837.74949 -19584888.38647  20213913.269    20213917.113
       239.000         212.000
  23861830.200     7208148.58948   5729341.09844  23861828.670    23861838.151
       188.000         116.000
  22662847.290   -11922707.59149  -9275384.36446  22662847.137    22662853.678
       227.000         177.000
  22698575.840    -8513475.25449  -6623567.35246  22698575.383    22698581.985
       225.000         175.000
  21094842.392   -14219244.25749 -11042393.80847  21094841.655    21094847.574
       237.000         198.000
  22469358.250   -11770853.22549  -9126887.62846  22469358.147    22469365.424
       226.000         177.000
  22368845.244   -15314411.32449 -11916992.88246  22368844.931    22368849.407
       228.000         178.000
 03  4 16  0 46 30.0000000  0 10G 9G21G25G14G17G23G31G15G 3G18
  23877022.587    -2877250.85249  -2231992.65645  23877023.051    23877030.498
       215.000         151.000
  23621078.962     4500863.26749   3517320.16345  23621078.957    23621085.019
       213.000         151.000
  24019967.639    -4502588.62349  -3287951.27145  24019966.883    24019975.378
       206.000         143.000
  20213558.013   -25150706.30749 -19586344.38547  20213557.895    20213561.470
       239.000         212.000
  23880554.040     7306543.23448   5806012.14144  23880548.850    23880562.156
       189.000         114.000
  22671374.776   -11877895.47649  -9240465.87246  22671374.704    22671380.735
       227.000         178.000
  22700393.431    -8503924.65949  -6616125.35846  22700393.954    22700398.447
       224.000         172.000
  21106742.686   -14156707.50149 -10993663.90547  21106742.276    21106748.442
       237.000         198.000
  22478996.829   -11720202.65749  -9087419.70046  22478996.175    22479002.036
       225.000         176.000
  22379209.201   -15259948.30849 -11874554.19546  22379208.606    22379213.316
       227.000         177.000
 03  4 16  0 47  0.0000000  0 10G 9G21G25G14G17G23G31G15G 3G18
  23887963.660    -2819756.83049  -2187192.14745  23887963.377    23887970.324
       213.000         151.000
  23639682.773     4598626.89649   3593499.52645  23639682.129    23639689.718
       213.000         152.000
  24001186.566    -4601282.24949  -3364855.18545  24001186.594    24001195.016
       209.000         144.000
  20213296.963   -25152078.27149 -19587413.42847  20213296.686    20213300.504
       238.000         212.000
  23899323.416     7405177.58748   5882869.96644  23899321.824    23899330.603
       185.000         111.000
  22679910.641   -11833039.29449  -9205513.02746  22679911.054    22679916.779
       228.000         178.000
  22702312.569    -8493839.36149  -6608266.67846  22702311.667    22702317.768
       222.000         171.000
  21118723.589   -14093747.57649 -10944604.25647  21118723.212    21118729.366
       239.000         199.000
  22488709.527   -11669162.08849  -9047647.85846  22488709.031    22488715.992
       225.000         175.000
  22389590.680   -15205393.67949 -11832044.12846  22389590.239    22389595.638
       228.000         178.000
 03  4 16  0 47 30.0000000  0 10G 9G21G25G14G17G23G31G15G 3G18
  23899003.407    -2761743.28449  -2141986.80845  23899003.774    23899008.807
       212.000         149.000
  23658330.129     4696619.73749   3669857.50145  23658329.759    23658337.001
       212.000         152.000
  23982405.765    -4699975.22949  -3441758.59745  23982405.436    23982414.003
       211.000         145.000
  20213130.058   -25152954.97749 -19588096.55748  20213129.701    20213133.721
       239.000         213.000
  23918138.238     7504049.80448   5959913.16344  23918137.758
       187.000         105.000
  22688454.968   -11788139.13249  -9170525.89946  22688454.750    22688460.371
       227.000         177.000
  22704333.022    -8483220.83749  -6599992.51346  22704332.837    22704338.450
       222.000         170.000
  21130784.903   -14030365.45949 -10895215.62247  21130784.402    21130790.680
       237.000         200.000
  22498495.879   -11617734.39649  -9007574.36546  22498496.295    22498502.629
       226.000         177.000
  22399989.550   -15150747.66549 -11789462.84246  22399989.170    22399994.388
       228.000         179.000
 03  4 16  0 48  0.0000000  0 10G 9G21G25G14G17G23G31G15G 3G18
  23910141.691    -2703211.83949  -2096377.93345  23910141.753    23910148.050
       210.000         147.000
  23677021.004     4794840.57449   3746393.12545  23677021.459    23677027.650
       215.000         152.000
  23963625.660    -4798664.94349  -3518659.47145  23963626.407    23963634.267
       209.000         146.000
  20213057.276   -25153337.26949 -19588394.43348  20213057.212    20213061.037
       239.000         213.000
  23936998.291     7603158.05448   6037140.24344  23936989.907
       185.000         103.000
  22697007.572   -11743194.82649  -9135504.37946  22697007.289    22697012.724
       228.000         177.000
  22706454.979    -8472070.10349  -6591303.64246  22706455.308    22706460.254
       224.000         170.000
  21142926.343   -13966561.67749 -10845498.42947  21142925.787    21142931.505
       236.000         197.000
  22508355.571   -11565922.03449  -8967201.12746  22508355.959    22508362.375
       227.000         178.000
  22410405.703   -15096010.12649 -11746810.24646  22410405.969    22410410.875
       229.000         178.000
 03  4 16  0 48 30.0000000  0 10G 9G21G25G14G17G23G31G15G 3G18
  23921377.439    -2644165.95749  -2050368.18245  23921376.686    23921385.043
       212.000         148.000
  23695754.796     4893286.44249   3823104.10845  23695754.381    23695761.169
       215.000         152.000
  23944846.375    -4897350.08049  -3595556.77845  23944845.189    23944854.244
       207.000         146.000
  20213078.133   -25153227.76149 -19588309.09648  20213078.167    20213081.977
       240.000         213.000
  23955902.475     7702499.38548   6114548.94644  23955904.472
       180.000         105.000
  22705568.394   -11698207.64049  -9100449.45946  22705568.672    22705573.633
       227.000         177.000
  22708677.698    -8460389.97549  -6582202.25246  22708677.580    22708683.567
       224.000         172.000
  21155147.508   -13902338.69249 -10795454.56947  21155146.887    21155153.278
       237.000         196.000
  22518287.448   -11513729.19949  -8926531.42046  22518287.034    22518294.670
       224.000         177.000
  22420839.090   -15041182.73049 -11704087.60546  22420839.466    22420843.349
       229.000         177.000
 03  4 16  0 49  0.0000000  0 10G 9G21G25G14G17G23G31G15G 3G18
  23932712.048    -2584602.11749  -2003954.82445  23932712.618    23932718.804
       212.000         148.000
  23714531.946     4991960.83949   3899993.15545  23714531.821    23714539.175
       214.000         153.000
  23926069.143    -4996023.18649  -3672444.72145  23926068.378    23926077.203
       209.000         147.000
  20213193.376   -25152622.35949 -19587837.34848  20213193.048    20213196.867
       238.000         213.000
                   7802077.68948  -5367699.57343
       185.000          74.000
  22714138.375   -11653171.95549  -9065356.73846  22714137.280    22714144.311
       227.000         176.000
  22711001.898    -8448176.23649  -6572685.06046  22711001.331    22711008.226
       224.000         174.000
  21167449.421   -13837692.25049 -10745080.74347  21167449.140    21167455.381
       238.000         198.000
  22528292.039   -11461153.02549  -8885563.01046  22528291.858    22528297.643
       225.000         174.000
  22431290.526   -14986260.20949 -11661290.85346  22431290.141    22431294.957
       229.000         178.000
 03  4 16  0 49 30.0000000  0 10G 9G21G25G14G17G23G31G15G 3G18
  23944144.173    -2524526.80149  -1957142.91145  23944144.484    23944149.401
       211.000         147.000
  23733351.251     5090857.41949   3977055.34345  23733350.573    23733358.632
       213.000         152.000
  23907294.037    -5094685.99749  -3749324.63045  23907293.725    23907302.442
       213.000         148.000
  20213401.783   -25151526.64449 -19586983.53447  20213401.433    20213405.398
       239.000         212.000
                   7901886.68258  -5289942.04643
       179.000          74.000
  22722716.758   -11608092.35149  -9030229.79146  22722715.991    22722723.198
       226.000         175.000
  22713426.463    -8435434.85649  -6562756.70246  22713425.992    22713432.838
       222.000         174.000
  21179830.850   -13772627.73749 -10694381.15947  21179830.239    21179837.080
       235.000         199.000
  22538368.545   -11408200.94549  -8844301.64846  22538368.842    22538375.674
       226.000         175.000
  22441759.152   -14931247.21349 -11618423.62446  22441759.163    22441764.244
       227.000         178.000
 03  4 16  0 50  0.0000000  0 10G 9G21G25G14G17G23G31G15G 3G18
  23955673.208    -2463941.28149  -1909933.44145  23955672.853    23955679.687
       210.000         146.000
  23752212.964     5189975.51749   4054290.14045  23752213.275    23752219.345
       215.000         152.000
  23888521.764    -5193335.22049  -3826193.98545  23888521.411    23888529.466
       212.000         149.000
  20213703.520   -25149941.05649 -19585747.99848  20213703.534    20213707.067
       240.000         213.000
                   8001926.03448  -5212014.79643
       179.000          74.000
  22731303.659   -11562967.77949  -8995067.79246  22731303.456    22731309.854
       226.000         176.000
  22715951.244    -8422166.16249  -6552417.47546  22715951.114    22715957.505
       224.000         174.000
  21192291.691   -13707145.24149 -10643355.88147  21192291.112    21192297.162
       236.000         197.000
  22548516.320   -11354874.37449  -8802748.50446  22548516.097    22548523.816
       227.000         176.000
  22452245.120   -14876143.09549 -11575485.36846  22452244.914    22452249.518
       228.000         176.000
 03  4 16  0 50 30.0000000  0 10G 9G21G25G14G17G23G31G15G 3G18
  23967299.036    -2402846.51349  -1862327.14645  23967298.385    23967306.113
       211.000         144.000
  23771116.720     5289314.25149   4131696.85445  23771117.768    23771122.560
       216.000         151.000
  23869752.584    -5291967.50449  -3903050.13745  23869752.754    23869760.352
       212.000         151.000
  20214098.358   -25147866.19349 -19584131.22548  20214097.821    20214101.949
       239.000         213.000
                   8102194.50258  -5396197.53743
       177.000          74.000
  22739899.290   -11517797.35149  -8959870.09346  22739898.866    22739905.135
       225.000         176.000
  22718576.509    -8408370.72849  -6541667.80446  22718577.026    22718582.653
       224.000         174.000
  21204832.089   -13641245.17349 -10592005.20347  21204831.910    21204837.501
       237.000         196.000
  22558734.881   -11301175.31249  -8760905.13446  22558735.662    22558741.633
       228.000         177.000
  22462748.676   -14820947.05449 -11532475.48346  22462748.083    22462753.940
       227.000         176.000
 03  4 16  0 51  0.0000000  0 10G 9G21G25G14G17G23G31G15G 3G18
  23979021.398    -2341245.71349  -1814326.56345  23979022.008    23979027.303
       211.000         144.000
  23790061.848     5388870.89549   4209273.37845  23790061.803    23790067.300
       212.000         150.000
  23850986.720    -5390581.43949  -3979892.01245  23850986.316    23850994.851
       212.000         151.000
  20214585.775   -25145304.35449 -19582134.99447  20214585.494    20214589.472
       239.000         212.000
                   8202689.20758  -5317834.36543
       169.000          74.000
  22748503.430   -11472581.98349  -8924637.35746  22748503.149    22748509.317
       225.000         175.000
  22721301.533    -8394051.17949  -6530509.72446  22721301.151    22721307.597
       224.000         174.000
  21217451.569   -13574929.61349 -10540330.76047  21217451.434    21217457.091
       236.000         196.000
  22569023.901   -11247107.47449  -8718774.38646  22569024.240    22569030.531
       227.000         176.000
  22473269.360   -14765660.44049 -11489395.03646  22473269.749    22473274.085
       226.000         175.000
 03  4 16  0 51 30.0000000  0 10G 9G21G25G14G17G23G31G15G 3G18
  23990839.761    -2279139.21049  -1765931.91245  23990841.026    23990846.268
       214.000         144.000
  23809048.246     5488645.34749   4287019.60345  23809047.300    23809054.961
       209.000         148.000
  23832225.338    -5489172.31649  -4056715.92545  23832224.824    23832233.095
       213.000         153.000
  20215166.125   -25142254.77549 -19579758.67848  20215165.802    20215169.698
       239.000         213.000
                   8303410.40358  -5239246.02143
       169.000          74.000
  22757116.612   -11427319.65749  -8889368.03146  22757116.516    22757122.030
       226.000         176.000
  22724126.272    -8379206.91549  -6518942.79846  22724125.375    22724132.176
       223.000         174.000
  21230150.287   -13508197.49149 -10488331.74547  21230149.383    21230155.967
       234.000         195.000
  22579382.760   -11192671.79349  -8676356.97846  22579382.009    22579388.392
       225.000         175.000
  22483807.644   -14710281.41849 -11446242.56646  22483807.094    22483811.833
       225.000         173.000
 03  4 16  0 52  0.0000000  0 10G 9G21G25G14G17G23G31G15G 3G18
  24002753.999    -2216529.40449  -1717145.08945  24002754.509    24002759.565
       210.000         145.000
  23828075.667     5588635.60949   4364934.01345  23828075.247    23828082.864
       210.000         146.000
  23813468.596    -5587738.35349  -4133520.47745  23813468.639    23813476.104
       213.000         153.000
  20215838.878   -25138719.30149 -19577003.74248  20215838.656    20215842.422
       239.000         213.000
                   8404355.57158  -5424860.50343
       173.000          74.000
  22765738.525   -11382010.69049  -8854062.35746  22765737.858    22765744.266
       224.000         175.000
  22727050.409    -8363839.89749  -6506968.49946  22727049.941    22727055.833
       222.000         173.000
  21242927.856   -13441050.32149 -10436009.31547  21242927.227    21242933.127
       234.000         195.000
  22589810.734   -11137871.38049  -8633655.39246  22589809.720    22589818.220
       222.000         174.000
  22494363.287   -14654810.54249 -11403018.52246  22494362.517    22494367.217
       226.000         173.000
 03  4 16  0 52 30.0000000  0 10G 9G21G25G14G17G23G31G15G 3G18
  24014763.671    -2153418.41449  -1667967.70345  24014763.535    24014769.824
       210.000         145.000
  23847143.860     5688839.56549   4443014.92745  23847143.846    23847150.966
       209.000         145.000
  23794717.142    -5686277.32149  -4210303.94945  23794716.800    23794724.334
       215.000         154.000
  20216603.825   -25134699.40549 -19573871.35348  20216603.637    20216607.568
       239.000         213.000
                   8505523.43958  -5346038.68943
       177.000          74.000
  22774369.452   -11336655.15749  -8818720.42046  22774368.643    22774375.384
       225.000         175.000
  22730073.881    -8347951.77049  -6494588.15346  22730073.198    22730079.682
       225.000         172.000
  21255784.268   -13373489.40849 -10383364.47847  21255784.277    21255790.120
       236.000         195.000
  22600307.631   -11082709.27349  -8590671.96946  22600307.852    22600315.692
       225.000         175.000
  22504936.525   -14599248.07449 -11359723.10946  22504936.047    22504941.107
       226.000         173.000
 03  4 16  0 53  0.0000000  0 10G 9G21G25G14G17G23G31G15G 3G18
  24026868.515    -2089808.11649  -1618401.25845  24026868.855    24026875.085
       210.000         144.000
  23866252.501     5789255.75749   4521261.21845  23866253.397    23866260.801
       208.000         143.000
  23775971.392    -5784786.26549  -4287064.03545  23775971.587    23775978.792
       214.000         155.000
  20217460.757   -25130196.28849 -19570362.43148  20217460.533    20217464.519
       239.000         213.000
                   8606912.25058  -5267057.37643
       175.000          74.000
  22783009.244   -11291252.89249  -8783342.04746  22783008.481    22783015.155
       224.000         176.000
  22733196.305    -8331543.91349  -6481802.81246  22733196.645    22733202.214
       226.000         173.000
  21268719.310   -13305515.68149 -10330397.96447  21268718.642    21268725.110
       234.000         194.000
  22610873.198   -11027188.09249  -8547408.75046  22610874.367    22610880.582
       225.000         176.000
  22515527.050   -14543594.09749 -11316356.40246  22515526.815    22515532.175
       225.000         173.000
 03  4 16  0 53 30.0000000  0 10G 9G21G25G14G17G23G31G15G 3G18
  24039068.079    -2025700.14049  -1568447.02445  24039068.010    24039075.115
       211.000         145.000
  23885401.277     5889883.07849   4599672.01245  23885401.770    23885406.881
       206.000         141.000
  23757232.065    -5883262.11549  -4363798.34445  23757231.711    23757239.077
       215.000         155.000
  20218409.427   -25125210.73249 -19566477.57148  20218409.167    20218413.086
       239.000         213.000
                   8708522.25757  -5453573.87443
       162.000          74.000
  22791657.976   -11245803.13949  -8747926.66346  22791657.854    22791663.714
       226.000         175.000
  22736417.395    -8314617.21449  -6468613.16346  22736417.766    22736423.597
       227.000         174.000
  21281732.764   -13237129.60449 -10277110.16047  21281732.243    21281738.789
       235.000         194.000
  22621506.556   -10971309.91949  -8503867.36046  22621506.687    22621512.884
       226.000         174.000
  22526135.172   -14487848.35849 -11272918.19046  22526135.541    22526139.397
       226.000         173.000
 03  4 16  0 54  0.0000000  0 10G 9G21G25G14G17G23G31G15G 3G18
  24051361.680    -1961097.25549  -1518107.13145  24051361.089    24051368.078
       209.000         144.000
  23904589.773     5990718.94949   4678245.33545  23904588.488    23904597.120
       206.000         139.000
  23738499.275    -5981703.30149  -4440505.63645  23738498.130    23738506.516
       213.000         154.000
  20219449.513   -25119744.92349 -19562218.47748  20219449.177    20219453.112
       239.000         213.000
                   8810348.52758  -5374208.61243
       170.000          74.000
  22800315.766   -11200306.38249  -8712474.66646  22800316.160    22800321.841
       225.000         175.000
  22739736.748    -8297173.98149  -6455021.02146  22739736.948    22739742.878
       226.000         174.000
  21294824.338   -13168333.14849 -10223502.56847  21294824.090    21294830.152
       238.000         195.000
  22632207.017   -10915078.25849  -8460050.52646  22632206.849    22632212.834
       227.000         174.000
  22536760.542   -14432011.31649 -11229408.83846  22536760.725    22536766.182
       227.000         172.000
 03  4 16  0 54 30.0000000  0 10G 9G21G25G14G17G23G31G15G 3G18
  24063749.105    -1896000.03649  -1467382.06145  24063748.843    24063755.812
       210.000         140.000
  23923817.942     6091763.27849   4756981.09645  23923818.525    23923825.427
       206.000         137.000
  23719773.819    -6080105.38649  -4517182.47745  23719773.932    23719782.095
       211.000         153.000
  20220581.094   -25113798.42949 -19557584.82348  20220580.593    20220584.823
       240.000         213.000
                   8912391.12958  -5294640.24943
       175.000          74.000
  22808982.851   -11154760.92449  -8676984.71746  22808982.380    22808988.544
       225.000         175.000
  22743154.483    -8279214.02049  -6441026.22746  22743154.522    22743160.255
       226.000         174.000
  21307994.143   -13099125.78449 -10169574.77647  21307993.523    21307999.582
       237.000         195.000
  22642974.730   -10858494.40449  -8415959.23946  22642975.005    22642980.842
       228.000         175.000
  22547403.714   -14376081.55949 -11185827.20846  22547402.878    22547408.515
       226.000         173.000
 03  4 16  0 55  0.0000000  0 10G 9G21G25G14G17G23G31G15G 3G18
  24076230.170    -1830412.08849  -1416274.57645  24076229.713    24076235.802
       212.000         136.000
  23943085.275     6193012.77249   4835876.68345  23943084.358    23943091.701
       206.000         136.000
  23701055.969    -6178467.24249  -4593827.95745  23701055.071    23701063.975
       212.000         152.000
  20221803.557   -25107374.26149 -19552578.95748  20221803.267    20221807.272
       241.000         213.000
                   9014649.26458  -5480886.72243
       172.000          74.000
  22817658.849   -11109168.02649  -8641457.79546  22817658.434    22817664.222
       224.000         174.000
  22746669.900    -8260740.39249  -6426631.20046  22746669.229    22746674.573
       226.000         173.000
  21321241.595   -13029510.06549 -10115328.79347  21321240.632    21321246.936
       235.000         193.000
  22653808.627   -10801562.43749  -8371596.69546  22653807.855    22653815.504
       227.000         175.000
  22558064.072   -14320060.71049 -11142174.65146  22558064.427    22558068.754
       226.000         173.000
 03  4 16  0 55 30.0000000  0 10G 9G21G25G14G17G23G31G15G 3G18
  24088804.649    -1764333.87849  -1364785.03745  24088804.238    24088811.661
       206.000         135.000
  23962391.928     6294467.60149   4914932.30845  23962392.371    23962399.790
       205.000         134.000
  23682346.437    -6276784.54549  -4670438.73145  23682345.563    23682354.682
       209.000         152.000
  20223117.037   -25100471.87349 -19547200.46748  20223116.868    20223120.638
       239.000         213.000
                   9117119.21458  -5401053.50243
       169.000          74.000
  22826344.236   -11063525.72249  -8605892.38846  22826343.721    22826349.978
       224.000         173.000
  22750283.040    -8241752.94649  -6411835.79846  22750281.338    22750288.396
       222.000         172.000
  21334566.799   -12959485.47149 -10060764.22647  21334566.647    21334572.604
       235.000         193.000
  22664708.376   -10744283.19149  -8326963.56846  22664708.159    22664715.078
       225.000         175.000
  22568742.294   -14263946.98349 -11098449.70246  22568742.615    22568746.953
       226.000         173.000
 03  4 16  0 56  0.0000000  0 10G 9G21G25G14G17G23G31G15G 3G18
  24101471.493    -1697767.94049  -1312915.49945  24101469.570    24101477.066
       201.000         132.000
  23981736.962     6396125.41649   4994146.06945  23981738.368    23981742.827
       201.000         133.000
  23663645.864    -6375055.01049  -4747013.00045  23663645.559    23663653.954
       209.000         151.000
  20224521.113   -25093093.34549 -19541450.94548  20224520.856    20224524.504
       240.000         213.000
                   9219799.45157  -5321087.58243
       164.000          74.000
  22835039.050   -11017834.28749  -8570288.69546  22835038.542    22835044.399
       223.000         173.000
  22753993.551    -8222253.68649  -6396641.57046  22753993.338    22753999.390
       221.000         170.000
  21347969.722   -12889053.40849 -10005882.13447  21347969.708    21347975.619
       238.000         195.000
  22675673.710   -10686660.25849  -8282062.60446  22675672.918    22675681.113
       226.000         175.000
  22579438.015   -14207740.92849 -11054652.80446  22579437.321    22579442.520
       225.000         172.000
 03  4 16  0 56 30.0000000  0 10G 9G21G25G14G17G23G31G15G 3G18
  24114230.621    -1630716.78649  -1260667.87244  24114229.187    24114237.552
       198.000         128.000
  24001120.121     6497984.33249   5073516.56244  24001120.280    24001125.887
       200.000         129.000
  23644954.732    -6473276.85449  -4823549.38845  23644954.998    23644964.142
       209.000         150.000
  20226015.518   -25085240.13249 -19535331.55348  20226015.231    20226018.992
       239.000         213.000
                   9322690.54358  -5240957.16143
       172.000          74.000
  22843743.150   -10972093.66749  -8534646.68546  22843742.596    22843749.642
       222.000         172.000
  22757801.144    -8202244.43949  -6381049.96646  22757800.553    22757806.885
       218.000         169.000
  21361449.960   -12818215.22549  -9950683.57247  21361449.666    21361454.979
       235.000         195.000
  22686703.886   -10628696.62349  -8236896.16746  22686703.872    22686710.962
       226.000         176.000
  22590151.123   -14151442.88849 -11010784.25146  22590151.274    22590155.805
       227.000         174.000
 03  4 16  0 57  0.0000000  0 10G 9G21G25G14G17G23G31G15G 3G18
  24127081.796    -1563182.49649  -1208043.79044  24127082.788    24127087.384
       196.000         126.000
  24020541.201     6600042.57549   5153042.35944  24020540.386    24020545.874
       198.000         128.000
  23626273.489    -6571446.86649  -4900045.37545  23626273.701    23626282.572
       210.000         150.000
  20227599.961   -25076913.62249 -19528843.34848  20227599.754    20227603.408
       240.000         213.000
                   9425789.17058  -5445404.71543
       172.000          74.000
  22852456.767   -10926303.68849  -8498966.20546  22852456.663    22852461.766
       221.000         171.000
  22761705.442    -8181726.80349  -6365062.22446  22761704.720    22761711.331
       218.000         167.000
  21375007.078   -12746972.08149  -9895169.46347  21375006.701    21375012.477
       235.000         192.000
  22697798.454   -10570394.74949  -8191466.16246  22697798.471    22697804.381
       225.000         175.000
  22600881.845   -14095052.67449 -10966843.85446  22600880.906    22600885.746
       225.000         173.000
 03  4 16  0 57 30.0000000  0  9G 9G21G25G14G23G31G15G 3G18
  24140024.930    -1495164.57449  -1155042.83644  24140021.801    24140030.739
       195.000         120.000
  24040000.333     6702301.02449   5232724.16444  24040000.244    24040006.662
       197.000         125.000
  23607603.375    -6669559.73049  -4976496.85245  23607603.286    23607611.597
       211.000         150.000
  20229274.758   -25068112.68149 -19521985.45748  20229274.455    20229278.626
       240.000         213.000
  22861180.258   -10880461.45049  -8463245.01746  22861180.174    22861186.791
       221.000         171.000
  22765706.647    -8160699.73149  -6348677.51946  22765705.990    22765712.669
       218.000         166.000
  21388641.551   -12675322.53049  -9839338.67947  21388640.872    21388647.211
       234.000         192.000
  22708957.229   -10511755.07549  -8145772.94746  22708957.256    22708963.447
       224.000         173.000
  22611630.542   -14038567.96049 -10922829.81846  22611630.864    22611635.907
       226.000         172.000
 03  4 16  0 58  0.0000000  0  9G 9G21G25G14G23G31G15G 3G18
  24153059.196    -1426667.71749  -1101668.70744  24153056.087    24153065.062
       196.000         120.000
  24059496.534     6804755.25548   5312558.52144  24059494.009    24059501.938
       192.000         121.000
  23588943.982    -6767615.46149  -5052903.79745  23588943.994    23588952.405
       212.000         150.000
  20231039.023   -25058841.31649 -19514760.99448  20231038.793    20231042.735
       241.000         214.000
  22869913.245   -10834569.09849  -8427484.76746  22869912.439    22869919.580
       221.000         171.000
  22769804.111    -8139167.43149  -6331899.10746  22769803.913    22769809.658
       220.000         167.000
  21402352.546   -12603270.32149  -9783194.13547  21402352.090    21402358.326
       235.000         193.000
  22720179.302   -10452782.74449  -8099820.51646  22720179.267    22720185.314
       224.000         173.000
  22622396.858   -13981990.81449 -10878743.76746  22622396.441    22622402.271
       223.000         172.000
 03  4 16  0 58 30.0000000  0  9G 9G21G25G14G23G31G15G 3G18
  24166184.658    -1357694.34049  -1047923.23844  24166187.776    24166192.294
       199.000         121.000
  24079029.645     6907403.57148   5392544.12544  24079030.524    24079038.841
       193.000         119.000
  23570295.885    -6865611.58049  -5129264.28845  23570295.404    23570304.204
       213.000         150.000
  20232892.580   -25049100.77249 -19507170.93848  20232892.470    20232896.192
       240.000         214.000
  22878655.769   -10788626.55049  -8391685.39846  22878655.317    22878662.260
       223.000         169.000
  22773997.304    -8117131.59849  -6314728.35346  22773996.960    22774003.346
       222.000         167.000
  21416139.973   -12530816.68549  -9726736.78847  21416139.275    21416145.518
       237.000         194.000
  22731464.214   -10393480.44149  -8053610.97546  22731464.055    22731470.806
       225.000         173.000
  22633180.464   -13925321.74749 -10834586.08346  22633180.845    22633184.616
       225.000         170.000
 03  4 16  0 59  0.0000000  0  9G 9G21G25G14G23G31G15G 3G18
  24179400.202    -1288247.51849   -993808.82344  24179400.799    24179405.229
       202.000         122.000
  24098599.345     7010243.48348   5472679.02744  24098597.168    24098607.415
       193.000         116.000
  23551659.302    -6963546.33949  -5205576.97445  23551659.405    23551667.282
       212.000         151.000
  20234834.922   -25038893.56249 -19499217.24148  20234834.586    20234838.365
       239.000         214.000
  22887407.851   -10742634.42349  -8355847.37846  22887408.237    22887413.512
       223.000         170.000
  22778285.893    -8094594.87849  -6297167.28846  22778285.491    22778292.059
       222.000         168.000
  21430003.443   -12457963.61349  -9669968.19847  21430002.908    21430008.956
       234.000         192.000
  22742811.160   -10333851.88449  -8007147.20246  22742810.960    22742818.168
       225.000         173.000
  22643981.621   -13868561.62849 -10790357.42746  22643980.628    22643985.956
       225.000         172.000
 03  4 16  0 59 30.0000000  0  9G 9G21G25G14G23G31G15G 3G18
  24192705.624    -1218327.39949   -939325.65744  24192706.248    24192714.437
       202.000         122.000
  24118205.631     7113275.00348   5552963.22644  24118203.115    24118210.756
       193.000         115.000
  23533035.379    -7061414.87049  -5281838.04745  23533035.968    23533042.734
       212.000         151.000
  20236866.258   -25028219.12849 -19490899.48548  20236866.009    20236869.836
       239.000         214.000
  22896169.709   -10696590.53049  -8319969.06646  22896169.102    22896175.090
       220.000         170.000
  22782669.844    -8071556.88049  -6279215.61146  22782669.776    22782675.574
       224.000         169.000
  21443943.000   -12384710.54949  -9612887.91947  21443942.837    21443948.497
       236.000         189.000
  22754220.076   -10273897.84449  -7960429.81046  22754220.251    22754226.073
       226.000         173.000
  22654800.431   -13811708.19049 -10746056.10446  22654799.329    22654805.202
       222.000         171.000
 03  4 16  1  0  0.0000000  0  9G 9G21G25G14G23G31G15G 3G18
  24206100.411    -1147937.91349   -884476.71444  24206100.765    24206106.521
       195.000         121.000
  24137847.928     7216494.82348   5633394.15144  24137848.305    24137858.260
       191.000         113.000
  23514424.226    -7159216.26549  -5358046.79445  23514423.953    23514431.861
       211.000         152.000
  20238985.852   -25017080.39049 -19482219.92748  20238985.662    20238989.397
       238.000         213.000
  22904941.064   -10650495.91649  -8284051.22446  22904941.119    22904946.564
       221.000         169.000
  22787148.743    -8048020.94549  -6260875.92846  22787149.005    22787154.164
       226.000         170.000
  21457958.268   -12311060.23849  -9555498.09047  21457958.015    21457963.634
       236.000         190.000
  22765690.126   -10213622.89649  -7913462.36746  22765690.281    22765695.444
       226.000         172.000
  22665636.684   -13754763.31149 -10701683.49046  22665636.496    22665642.105
       224.000         171.000
 03  4 16  1  0 30.0000000  0  9G 9G21G25G14G23G31G15G 3G18
  24219584.468    -1077080.15849   -829262.84544  24219584.501    24219593.037
       198.000         120.000
  24157526.131     7319902.60348   5713971.52244  24157524.494    24157532.659
       189.000         112.000
  23495826.734    -7256946.63649  -5434200.19945  23495826.658    23495834.670
       212.000         153.000
  20241193.681   -25005477.68149 -19473178.83248  20241193.214    20241196.938
       238.000         213.000
  22913722.593   -10604348.99049  -8248092.57546  22913722.250    22913729.092
       220.000         169.000
  22791722.349    -8023987.35749  -6242148.46546  22791723.238    22791727.337
       226.000         170.000
  21472049.209   -12237012.29049  -9497798.42247  21472048.260    21472055.041
       236.000         192.000
  22777220.814   -10153028.79349  -7866246.21846  22777220.688    22777227.583
       223.000         172.000
  22676490.663   -13697725.33349 -10657238.31746  22676490.542    22676496.344
       224.000         170.000
 03  4 16  1  1  0.0000000  0  9G 9G21G25G14G23G31G15G 3G18
  24233157.593    -1005755.42049   -773685.13844  24233154.846    24233162.595
       199.000         123.000
  24177239.671     7423497.09948   5794694.40144  24177242.533    24177244.097
       191.000         109.000
  23477243.292    -7354602.58849  -5510295.60745  23477242.463    23477250.886
       214.000         153.000
  20243489.676   -24993411.96849 -19463776.96548  20243489.564    20243493.222
       238.000         213.000
  22922514.147   -10558148.98149  -8212092.61246  22922513.934    22922521.029
       223.000         169.000
  22796390.354    -7999457.45049  -6223034.26946  22796391.487    22796395.064
       225.000         170.000
  21486215.576   -12162567.25149  -9439789.34747  21486215.013    21486221.661
       233.000         192.000
  22788811.870   -10092117.29049  -7818782.75646  22788813.063    22788819.539
       225.000         173.000
  22687362.406   -13640593.76149 -10612720.24746  22687362.186    22687367.902
       225.000         172.000
 03  4 16  1  1 30.0000000  0  9G 9G21G25G14G23G31G15G 3G18
  24246818.395     -933967.83749   -717746.77344  24246820.046    24246825.770
       197.000         123.000
  24196988.041     7527274.90748   5875560.11044  24196987.524    24197000.239
       188.000         109.000
  23458674.364    -7452183.06249  -5586332.20245  23458675.057    23458681.943
       213.000         155.000
  20245873.294   -24980886.18349 -19454016.59948  20245873.214    20245877.013
       239.000         214.000
  22931315.786   -10511897.17449  -8176052.25946  22931315.840    22931322.159
       224.000         171.000
  22801152.144    -7974434.48549  -6203535.86646  22801151.591    22801157.071
       226.000         170.000
  21500456.920   -12087728.24349  -9381473.27647  21500456.294    21500462.984
       234.000         191.000
  22800462.620   -10030893.04949  -7771075.60446  22800462.668    22800469.875
       224.000         173.000
  22698251.779   -13583370.15449 -10568130.42946  22698251.697    22698256.511
       222.000         171.000
 03  4 16  1  2  0.0000000  0 10G 9G21G11G25G14G23G31G15G 3G18
  24260566.903     -861718.27948   -661448.46244  24260567.898    24260570.811
       192.000         121.000
  24216771.207     7631235.64248   5956568.33644                  24216769.959
       191.000         107.000
                  -1170204.62059   -901548.84144                  24678514.236
       205.000         122.000
  23440120.646    -7549683.93049  -5662306.79145  23440120.782    23440128.498
       214.000         156.000
  20248344.387   -24967900.58649 -19443897.94148  20248344.343    20248348.166
       239.000         214.000
  22940127.449   -10465591.85849  -8139970.21446  22940127.190    22940133.497
       222.000         170.000
  22806007.660    -7948918.84749  -6183653.57646  22806007.959    22806013.641
       225.000         172.000
  21514773.361   -12012495.25349  -9322850.19547  21514772.943    21514779.098
       234.000         190.000
  22812172.513    -9969357.49749  -7723125.86146  22812172.951    22812179.314
       224.000         174.000
  22709158.664   -13526053.01449 -10523467.75446  22709158.687    22709164.779
       222.000         169.000
 03  4 16  1  2 30.0000000  0 10G 9G21G11G25G14G23G31G15G 3G18
  24274403.421     -789010.05449   -604792.71044  24274401.671    24274408.346
       197.000         119.000
  24236589.003     7735376.68158   6037717.10144                  24236586.720
       179.000         105.000
  24659463.685    -1270299.30749   -979544.62845  24659463.349    24659467.162
       206.000         132.000
  23421582.346    -7647103.18149  -5738217.77245  23421582.726    23421589.268
       215.000         157.000
  20250902.532   -24954457.50249 -19433422.80348  20250902.142    20250905.904
       239.000         214.000
  22948949.168   -10419233.45149  -8103846.81746  22948949.903    22948955.121
       225.000         171.000
  22810956.490    -7922913.25449  -6163389.49146  22810956.274    22810961.747
       224.000         172.000
  21529164.301   -11936870.39149  -9263921.75147  21529164.030    21529170.186
       235.000         190.000
  22823940.745    -9907514.32549  -7674936.41146  22823939.955    22823947.134
       224.000         172.000
  22720083.483   -13468643.31449 -10478732.93246  22720083.663    22720088.757
       225.000         171.000
 03  4 16  1  3  0.0000000  0 10G 9G21G11G25G14G23G31G15G 3G18
  24288326.276     -715846.09348   -547781.78744  24288322.264    24288331.118
       192.000         118.000
                   7839695.47648   6119004.38544
       180.000         101.000
  24640430.218    -1370321.29149  -1057483.77645  24640429.106    24640434.643
       207.000         135.000
  23403059.956    -7744439.13749  -5814063.85745  23403060.408    23403067.242
       216.000         158.000
  20253547.275   -24940558.97849 -19422592.77148  20253547.181    20253550.771
       238.000         213.000
  22957781.063   -10372822.40249  -8067682.38046  22957781.339    22957787.287
       223.000         171.000
  22815997.945    -7896420.19149  -6142745.57646  22815997.883    22816004.762
       222.000         172.000
  21543629.509   -11860855.55049  -9204689.43747  21543629.346    21543635.276
       235.000         190.000
  22835767.010    -9845366.73849  -7626509.76746  22835766.588    22835773.942
       223.000         172.000
  22731025.806   -13411141.54549 -10433926.37646  22731025.608    22731030.718
       224.000         170.000
 03  4 16  1  3 30.0000000  0 10G 9G21G11G25G14G23G31G15G 3G18
  24302335.174     -642227.03848   -490416.29444  24302333.005    24302341.424
       190.000         119.000
                   7944191.68258  -5585000.22243
       174.000          74.000
  24621411.348    -1470266.98049  -1135363.49545  24621411.442    24621415.926
       208.000         136.000
  23384554.227    -7841687.51949  -5889841.72445  23384554.220    23384561.334
       216.000         158.000
  20256278.640   -24926205.32749 -19411408.08948  20256278.021    20256281.930
       238.000         213.000
  22966623.125   -10326356.66749  -8031475.32246  22966622.788    22966628.862
       224.000         170.000
  22821132.038    -7869439.88649  -6121721.98246  22821131.739    22821138.591
       221.000         171.000
  21558169.030   -11784450.31749  -9145152.92347  21558168.411    21558174.687
       235.000         191.000
  22847650.995    -9782916.25349  -7577847.10046  22847650.511    22847658.190
       225.000         172.000
  22741985.796   -13353546.20349 -10389046.91346  22741985.691    22741990.751
       225.000         170.000
 03  4 16  1  4  0.0000000  0 10G 9G21G11G25G14G23G31G15G 3G18
  24316430.279     -568154.71848   -432697.65144  24316430.056    24316439.161
       188.000         117.000
                   8048864.84058  -5503426.01643
       181.000          74.000
  24602407.209    -1570133.69249  -1213181.66545  24602406.159    24602409.854
       208.000         136.000
  23366065.815    -7938845.03449  -5965548.77845  23366066.049    23366072.870
       216.000         158.000
  20259096.455   -24911397.34049 -19399869.38748  20259096.130    20259100.112
       239.000         213.000
  22975475.901   -10279835.32549  -7995224.93546  22975475.659    22975481.628
       224.000         171.000
  22826358.590    -7841973.53349  -6100319.66446  22826357.452    22826365.081
       220.000         170.000
  21572782.575   -11707655.47149  -9085312.81547  21572782.124    21572788.231
       234.000         190.000
  22859592.222    -9720165.12649  -7528950.16446  22859591.364    22859598.917
       223.000         171.000
  22752963.864   -13295856.53649 -10344093.94946  22752962.832    22752968.959
       223.000         171.000
 03  4 16  1  4 30.0000000  0 10G 9G21G11G25G14G23G31G15G 3G18
  24330612.100     -493630.74648   -374627.00144  24330610.449    24330619.518
       183.000         116.000
                   8153713.58658  -5421704.23943
       178.000          74.000
  24583418.691    -1669918.54549  -1290936.04645  24583419.223    24583423.914
       210.000         137.000
  23347595.227    -8035908.07949  -6041182.22945  23347594.367    23347601.910
       217.000         157.000
  20262000.651   -24896135.58849 -19387977.10448  20262000.339    20262004.267
       240.000         214.000
  22984339.403   -10233257.16149  -7958930.28946  22984338.993    22984344.925
       224.000         169.000
  22831677.492    -7814022.26749  -6078539.50246  22831678.018    22831683.657
       221.000         170.000
  21587470.074   -11630471.55849  -9025169.52947  21587469.466    21587475.815
       235.000         189.000
  22871590.121    -9657115.18049  -7479820.37146  22871590.318    22871596.060
       225.000         170.000
  22763959.915   -13238071.72849 -10299066.86146  22763959.489    22763963.858
       225.000         170.000
 03  4 16  1  5  0.0000000  0 10G 9G21G11G25G14G23G31G15G 3G18
  24344878.557     -418657.98458   -316206.68844  24344874.724    24344888.926
       186.000         109.000
                   8258734.83858  -5612291.04943
       176.000          74.000
  24564446.063    -1769620.30249  -1368625.69645  24564445.208    24564449.838
       208.000         137.000
  23329143.066    -8132874.32049  -6116740.24945  23329142.531    23329149.587
       216.000         156.000
  20264990.736   -24880422.47949 -19375733.11848  20264990.619    20264994.475
       239.000         214.000
  22993213.736   -10186622.47749  -7922591.56846  22993213.240    22993220.681
       225.000         168.000
  22837088.320    -7785588.49249  -6056383.33946  22837088.433    22837094.272
       221.000         170.000
  21602231.395   -11552900.43449  -8964724.52647  21602230.857    21602237.373
       232.000         188.000
  22883644.331    -9593769.95349  -7430460.49446  22883643.773    22883650.886
       222.000         170.000
  22774974.141   -13180192.01949 -10253965.78946  22774974.583    22774978.899
       225.000         169.000
 03  4 16  1  5 30.0000000  0  9G21G11G25G14G23G31G15G 3G18
                   8363926.86158  -5530385.46243
       182.000          74.000
  24545489.469    -1869237.13449  -1446249.15345  24545488.702    24545494.031
       208.000         136.000
  23310709.556    -8229741.89449  -6192221.40345  23310709.312    23310716.356
       214.000         156.000
  20268066.366   -24864260.11249 -19363139.06148  20268066.040    20268069.980
       239.000         214.000
  23002098.820   -10139931.52349  -7886209.02446  23002097.889    23002105.267
       222.000         170.000
  22842590.510    -7756674.69349  -6033853.15046  22842590.014    22842597.339
       219.000         170.000
  21617065.990   -11474943.77849  -8903979.12347  21617065.457    21617072.448
       233.000         189.000
  22895753.967    -9530133.07349  -7380873.36046  22895753.919    22895760.825
       222.000         170.000
  22786006.302   -13122218.01749 -10208791.26146  22786005.746    22786011.052
       222.000         168.000
 03  4 16  1  6  0.0000000  0  9G21G11G25G14G23G31G15G 3G18
                   8469288.86058  -5448428.94043
       174.000          74.000
  24526549.631    -1968766.22049  -1523804.26545  24526549.163    24526554.527
       210.000         136.000
  23292295.596    -8326506.95649  -6267622.67245  23292295.849    23292303.513
       218.000         157.000
  20271227.304   -24847649.05849 -19350195.36748  20271226.932    20271230.730
       240.000         214.000
  23010994.622   -10093182.87749  -7849781.54646  23010993.121    23011000.487
       223.000         169.000
  22848183.675    -7727281.69149  -6010949.53146  22848183.961    22848189.930
       221.000         170.000
  21631973.944   -11396602.04249  -8842933.64847  21631973.776    21631980.613
       236.000         190.000
  22907918.799    -9466206.18949  -7331060.23346  22907918.658    22907926.146
       222.000         170.000
  22797056.424   -13064148.79049 -10163542.55846  22797055.437    22797060.920
       223.000         168.000
 03  4 16  1  6 30.0000000  0  9G21G11G25G14G23G31G15G 3G18
                   8574817.85758  -5640963.89143
       176.000          74.000
  24507626.515    -2068206.56849  -1601290.20345  24507626.173    24507631.650
       207.000         136.000
  23273901.614    -8423167.90049  -6342942.81745  23273901.543    23273908.629
       217.000         159.000
  20274473.200   -24830591.95149 -19336904.11248  20274473.204    20274476.893
       239.000         214.000
  23019901.448   -10046377.27749  -7813309.64146  23019900.764    23019906.756
       223.000         168.000
  22853867.469    -7697412.66049  -5987675.00646  22853866.318    22853873.797
       219.000         170.000
  21646954.752   -11317877.70449  -8781590.04747  21646955.035    21646961.076
       234.000         190.000
  22920137.942    -9401993.33949  -7281024.30646  22920137.239    22920146.360
       222.000         169.000
  22808124.681   -13005985.07949 -10118220.19846  22808123.954    22808129.912
       223.000         168.000
 03  4 16  1  7  0.0000000  0  9G21G11G25G14G23G31G15G 3G18
                   8680511.85558  -5558654.74743
       175.000          74.000
  24488720.652    -2167556.35349  -1678705.59145  24488720.811    24488725.876
       208.000         136.000
  23255527.908    -8519722.25349  -6418179.89645  23255528.762    23255535.501
       218.000         161.000
  20277803.600   -24813090.60149 -19323266.68748  20277803.299    20277807.293
       239.000         214.000
  23028818.995    -9999514.46549  -7776793.18046  23028818.421    23028825.508
       222.000         168.000
  22859641.543    -7667069.68349  -5964031.16946  22859641.130    22859648.113
       220.000         170.000
  21662008.134   -11238772.30449  -8719949.50847  21662008.094    21662014.770
       234.000         189.000
  22932411.066    -9337497.42049  -7230767.78246  22932411.432    22932419.067
       223.000         169.000
  22819210.809   -12947727.06749 -10072824.38146  22819210.339    22819215.456
       222.000         167.000
 03  4 16  1  7 30.0000000  0  9G21G11G25G14G23G31G15G 3G18
                   8786368.43158  -5476311.64543
       168.000          74.000
  24469832.609    -2266813.70649  -1756048.92945  24469830.829    24469836.224
       207.000         135.000
  23237175.098    -8616167.54449  -6493331.98745  23237174.629    23237182.409
       219.000         162.000
  20281218.219   -24795146.88649 -19309284.55748  20281218.025    20281221.682
       240.000         214.000
  23037747.511    -9952594.54249  -7740232.24946  23037747.859    23037753.946
       225.000         170.000
  22865505.326    -7636255.14649  -5940019.88746  22865505.040    22865511.386
       222.000         171.000
  21677133.600   -11159287.79249  -8658013.56547  21677133.523    21677139.614
       233.000         188.000
  22944737.757    -9272721.63849  -7180293.20446  22944738.628    22944744.753
       224.000         169.000
  22830314.806   -12889375.19549 -10027355.41546  22830315.342    22830319.697
       224.000         168.000
 03  4 16  1  8  0.0000000  0  9G21G11G25G14G23G31G15G 3G18
                   8892388.01358  -5672671.72043
       165.000          74.000
  24450962.810    -2365975.61249  -1833317.90645  24450961.831    24450967.736
       210.000         135.000
  23218843.717    -8712500.02349  -6568396.15046  23218843.489    23218851.010
       217.000         163.000
  20284716.722   -24776761.97649 -19294958.63348  20284716.183    20284720.138
       239.000         214.000
  23046687.368    -9905616.24649  -7703625.79446  23046686.801    23046692.794
       222.000         169.000
  22871458.761    -7604970.16049  -5915642.00446  22871458.918    22871465.003
       223.000         172.000
  21692331.070   -11079424.63749  -8595782.57246  21692330.542    21692336.472
       232.000         187.000
  22957117.282    -9207668.11949  -7129602.20446  22957117.868    22957123.871
       224.000         169.000
  22841436.891   -12830928.63949  -9981812.68246  22841436.952    22841441.282
       222.000         167.000
 03  4 16  1  8 30.0000000  0  9G21G11G25G14G23G31G15G 3G18
                   8998566.39957  -5589956.92343
       161.000          74.000
  24432111.393    -2465040.68049  -1910511.40345  24432109.443    24432115.661
       209.000         136.000
  23200534.138    -8808717.54349  -6643370.73546  23200533.785    23200541.042
       218.000         163.000
  20288298.789   -24757937.65349 -19280290.30748  20288298.283    20288302.393
       240.000         214.000
  23055638.136    -9858579.28049  -7666973.63946  23055637.734    23055644.748
       222.000         168.000
  22877501.266    -7573216.99349  -5890899.30146  22877500.876    22877507.786
       224.000         173.000
  21707600.318   -10999184.47849  -8533257.80946  21707599.242    21707606.083
       233.000         187.000
  22969548.902    -9142340.04049  -7078697.26946  22969549.482    22969556.368
       225.000         169.000
  22852577.023   -12772387.13349  -9936195.94546  22852577.300    22852581.442
       225.000         166.000
 03  4 16  1  9  0.0000000  0  8G11G25G14G23G31G15G 3G18
  24413278.895    -2564005.28349  -1987626.60945  24413277.680    24413284.004
       208.000         137.000
  23182247.110    -8904816.34749  -6718252.81946  23182247.044    23182253.021
       218.000         164.000
  20291964.525   -24738674.44649 -19265280.01148  20291964.415    20291967.998
       239.000         214.000
  23064600.326    -9811482.48449  -7630274.85746  23064600.419    23064606.916
       223.000         170.000
  22883632.587    -7540996.73449  -5865792.63946  22883632.321    22883639.172
       223.000         173.000
  21722941.203   -10918567.68049  -8470439.56747  21722941.121    21722946.736
       232.000         188.000
  22982032.424    -9076739.02649  -7027579.64546  22982032.420    22982039.114
       223.000         169.000
  22863735.492   -12713749.83049  -9890504.56346  22863736.145    22863740.282
       224.000         167.000
 03  4 16  1  9 30.0000000  0  8G11G25G14G23G31G15G 3G18
  24394465.505    -2662868.84249  -2064663.10245  24394464.624    24394470.358
       207.000         135.000
  23163983.009    -9000794.42649  -6793040.80946  23163982.818    23163989.858
       219.000         164.000
  20295713.147   -24718975.11249 -19249929.87148  20295712.720    20295716.741
       238.000         214.000
  23073573.895    -9764326.14649  -7593529.68746  23073574.347    23073579.381
       221.000         168.000
  22889852.240    -7508312.34149  -5840324.30646  22889852.055    22889858.783
       224.000         173.000
  21738353.241   -10837576.63649  -8407329.70546  21738352.402    21738359.354
       230.000         187.000
  22994567.176    -9010869.10249  -6976252.46746  22994567.732    22994574.224
       223.000         169.000
  22874911.977   -12655017.34249  -9844739.03846  22874911.238    22874916.148
       221.000         167.000
 03  4 16  1 10  0.0000000  0  8G11G25G14G23G31G15G 3G18
  24375671.956    -2761628.25849  -2141618.44645  24375672.103    24375677.043
       204.000         135.000
  23145742.447    -9096648.52349  -6867732.21246  23145742.006    23145749.166
       221.000         164.000
  20299544.546   -24698840.60549 -19234240.63348  20299544.488    20299548.276
       239.000         214.000
  23082559.028    -9717109.11449  -7556737.22246  23082559.846    23082565.324
       223.000         168.000
  22896160.081    -7475165.08149  -5814495.29846  22896160.288    22896166.324
       226.000         174.000
  21753836.330   -10756212.20249  -8343928.89146  21753835.993    21753842.568
       231.000         186.000
  23007152.486    -8944732.59949  -6924717.55846  23007152.420    23007160.052
       222.000         169.000
  22886106.539   -12596188.87649  -9798898.70246  22886105.969    22886111.423
       221.000         165.000
 03  4 16  1 10 30.0000000  0  8G11G25G14G23G31G15G 3G18
  24356898.798    -2860281.99649  -2218491.42445  24356898.560    24356904.245
       204.000         135.000
  23127525.978    -9192376.38649  -6942325.25646  23127526.377    23127533.092
       222.000         164.000
  20303458.395   -24678273.31349 -19218214.15648  20303458.218    20303461.871
       240.000         214.000
  23091555.704    -9669831.82249  -7519897.79746  23091555.659    23091561.948
       224.000         170.000
  22902555.427    -7441557.74949  -5788307.80946  22902554.561    22902561.534
       226.000         175.000
  21769390.223   -10674476.52149  -8280238.76746  21769390.215    21769395.719
       233.000         187.000
  23019787.788    -8878333.09049  -6872977.71946  23019787.323    23019795.276
       223.000         170.000
  22897319.282   -12537264.94549  -9752983.95646  22897319.406    22897324.036
       222.000         164.000
 03  4 16  1 11  0.0000000  0  8G11G25G14G23G31G15G 3G18
  24338146.457    -2958827.21449  -2295279.86545  24338146.242    24338151.842
       204.000         133.000
  23109334.218    -9287974.76249  -7016817.40946  23109334.311    23109339.953
       224.000         164.000
  20307454.378   -24657274.17249 -19201851.18848  20307454.002    20307458.057
       239.000         214.000
  23100563.989    -9622493.09449  -7483010.54146  23100563.223    23100570.344
       221.000         169.000
  22909037.996    -7407491.67249  -5761762.84346  22909037.274    22909044.194
       225.000         175.000
  21785014.637   -10592370.38649  -8216259.98446  21785014.408    21785020.643
       232.000         187.000
  23032472.879    -8811672.59349  -6821034.53346  23032473.251    23032480.362
       224.000         171.000
  22908550.356   -12478244.96249  -9706994.41446  22908550.500    22908555.921
       219.000         165.000
 03  4 16  1 11 30.0000000  0  8G11G25G14G23G31G15G 3G18
  24319414.821    -3057262.10149  -2371982.32745  24319413.171    24319419.979
       203.000         133.000
  23091167.667    -9383441.10549  -7091206.69546  23091167.158    23091172.735
       223.000         163.000
  20311532.224   -24635844.92749 -19185153.06448  20311531.989    20311535.743
       239.000         214.000
  23109583.961    -9575092.80249  -7446075.27646  23109583.948    23109590.649
       222.000         167.000
  22915607.306    -7372969.25249  -5734862.29646  22915606.686    22915613.283
       224.000         174.000
  21800709.181   -10509895.33949  -8151993.75646  21800708.514    21800715.585
       229.000         187.000
  23045207.174    -8744754.31849  -6768890.45746  23045207.295    23045214.145
       225.000         171.000
  22919799.770   -12419128.76549  -9660929.89846  22919800.422    22919804.735
       220.000         164.000
 03  4 16  1 12  0.0000000  0  8G11G25G14G23G31G15G 3G18
  24300704.395    -3155584.81349  -2448597.39245  24300702.434    24300709.806
       202.000         133.000
  23073026.512    -9478772.81549  -7165491.05245  23073026.896    23073032.502
       224.000         162.000
  20315691.454   -24613987.94849 -19168121.64448  20315691.010    20315695.001
       241.000         215.000
  23118615.746    -9527630.82249  -7409091.92046  23118615.645    23118621.885
       221.000         166.000
  22922263.094    -7337992.87849  -5707608.00946  22922262.558    22922270.013
       227.000         173.000
  21816473.461   -10427053.20249  -8087441.49946  21816473.280    21816480.307
       233.000         187.000
  23057989.879    -8677581.60549  -6716548.12346  23057989.516    23057996.337
       225.000         169.000
  22931067.581   -12359916.90049  -9614790.79046  22931067.972    22931072.558
       222.000         163.000
 03  4 16  1 12 30.0000000  0  8G11G25G14G23G31G15G 3G18
  24282015.563    -3253793.46949  -2525123.60645  24282015.321    24282019.918
       200.000         132.000
  23054911.405    -9573967.63149  -7239668.74946  23054911.187    23054917.006
       222.000         163.000
  20319931.752   -24591704.99449 -19150758.29648  20319931.394    20319935.249
       239.000         214.000
  23127659.166    -9480106.83749  -7372060.28246  23127659.305    23127665.417
       220.000         166.000
  22929004.902    -7302565.07849  -5680001.95946  22929005.250    22929012.206
       226.000         173.000
  21832307.406   -10343845.79149  -8022604.59347  21832306.968    21832313.162
       233.000         188.000
  23070820.112    -8610157.54749  -6664009.93346  23070819.434    23070827.489
       221.000         166.000
  22942353.425   -12300609.28649  -9568577.09845  22942353.209    22942357.753
       219.000         161.000
 03  4 16  1 13  0.0000000  0  8G11G25G14G23G31G15G 3G18
  24263349.385    -3351883.07648  -2601557.04044  24263349.403    24263355.579
       194.000         131.000
  23036823.622    -9669019.55149  -7313735.09346  23036822.879    23036829.418
       221.000         164.000
  20324253.295   -24568994.90149 -19133062.11648  20324252.962    20324257.011
       240.000         214.000
  23136715.221    -9432517.28149  -7334977.57046  23136714.686    23136721.021
       221.000         166.000
  22935832.699    -7266684.82249  -5652043.36746  22935832.873    22935838.673
       226.000         172.000
  21848211.171   -10260271.27049  -7957481.61346  21848210.988    21848216.730
       233.000         187.000
  23083698.242    -8542481.93149  -6611275.71046  23083697.918    23083704.720
       221.000         165.000
  22953658.061   -12241202.56349  -9522286.19945  22953657.633    22953663.532
       219.000         161.000
 03  4 16  1 13 30.0000000  0  8G11G25G14G23G31G15G 3G18
  24244705.707    -3449855.10449  -2677898.85144  24244705.010    24244711.056
       202.000         131.000
  23018762.548    -9763929.86149  -7387691.09546  23018761.463    23018768.834
       222.000         164.000
  20328655.084   -24545863.32849 -19115037.50648  20328654.785    20328658.781
       242.000         215.000
  23145783.048    -9384865.63349  -7297846.42746  23145782.178    23145789.326
       221.000         166.000
  22942745.450    -7230358.19049  -5623736.92946  22942745.038    22942751.447
       228.000         172.000
  21864183.751   -10176335.28049  -7892076.97146  21864183.481    21864189.094
       232.000         184.000
  23096622.998    -8474561.77949  -6558350.93446  23096622.331    23096630.171
       223.000         166.000
  22964980.966   -12181700.54049  -9475921.00546  22964980.375    22964985.734
       222.000         163.000
 03  4 16  1 14  0.0000000  0  8G11G25G14G23G31G15G 3G18
  24226085.501    -3547704.42349  -2754145.02245  24226085.230    24226091.081
       200.000         133.000
  23000729.533    -9858692.97949  -7461532.39346  23000728.407    23000735.698
       218.000         164.000
  20333137.366   -24522309.11149 -19096683.56048  20333137.462    20333140.755
       240.000         215.000
  23154863.250    -9337148.64249  -7260664.39946  23154863.252    23154869.712
       220.000         165.000
  22949743.309    -7193584.60649  -5595082.22646  22949743.303    22949750.017
       225.000         171.000
  21880225.184   -10092036.51849  -7826389.66746  21880224.266    21880230.919
       229.000         183.000
  23109594.366    -8406396.97349  -6505235.55246  23109594.501    23109601.095
       222.000         166.000
  22976322.344   -12122100.35749  -9429479.33345  22976321.344    22976327.999
       216.000         160.000
 03  4 16  1 14 30.0000000  0  8G11G25G14G23G31G15G 3G18
  24207488.821    -3645430.88349  -2830295.46845  24207488.684    24207493.758
       202.000         134.000
  22982724.732    -9953308.16049  -7535258.40946  22982725.330    22982731.608
       222.000         166.000
  20337699.358   -24498336.15549 -19078003.32548  20337699.104    20337702.972
       241.000         215.000
  23163955.684    -9289367.94649  -7223432.71446  23163955.267    23163962.014
       222.000         166.000
  22956825.336    -7156368.27449  -5566082.50846  22956825.390    22956831.325
       226.000         168.000
  21896334.998   -10007378.86949  -7760422.71346  21896334.573    21896341.435
       232.000         185.000
  23122611.353    -8337992.64649  -6451933.51746  23122611.699    23122618.168
       223.000         165.000
  22987682.086   -12062403.87349  -9382962.64245  22987682.129    22987687.776
       219.000         161.000
 03  4 16  1 15  0.0000000  0  8G11G25G14G23G31G15G 3G18
  24188916.059    -3743031.85349  -2906348.15045  24188916.931    24188922.166
       204.000         136.000
  22964748.888   -10047772.09949  -7608866.58046  22964749.235    22964755.053
       222.000         167.000
  20342340.743   -24473945.25549 -19058997.42248  20342340.671    20342344.362
       240.000         215.000
  23173060.424    -9241522.27949  -7186150.40946  23173060.954    23173066.911
       220.000         165.000
  22963991.380    -7118710.50249  -5536738.80346  22963991.509    22963998.449
       225.000         166.000
  21912513.139    -9922362.76649  -7694176.43647  21912512.603    21912519.487
       233.000         188.000
  23135673.535    -8269350.69349  -6398446.30646  23135672.997    23135680.666
       221.000         165.000
  22999060.561   -12002610.11449  -9336370.13146  22999060.122    22999066.440
       221.000         163.000
 03  4 16  1 15 30.0000000  0  8G11G25G14G23G31G15G 3G18
  24170367.666    -3840505.44349  -2982301.55945  24170368.202    24170373.713
       206.000         138.000
  22946802.293   -10142082.21449  -7682354.89846  22946801.560    22946808.920
       224.000         168.000
  20347061.259   -24449138.72649 -19039667.65048  20347060.903    20347064.818
       239.000         215.000
  23182177.586    -9193611.59549  -7148817.42546  23182178.152    23182183.151
       222.000         164.000
  22971241.082    -7080614.00549  -5507053.22546  22971241.990    22971248.180
       225.000         164.000
  21928759.069    -9836990.25649  -7627652.43347  21928758.207    21928765.066
       230.000         188.000
  23148780.146    -8200474.64249  -6344776.70246  23148780.163    23148787.114
       219.000         164.000
  23010457.490   -11942719.20349  -9289701.90745  23010456.942    23010463.093
       219.000         162.000
 03  4 16  1 16  0.0000000  0  8G11G25G14G23G31G15G 3G18
  24151843.993    -3937849.29849  -3058153.86545  24151843.727    24151848.460
       208.000         141.000
  22928885.369   -10236235.54649  -7755721.05046  22928885.093    22928890.804
       225.000         170.000
  20351860.403   -24423918.31349 -19020015.37448  20351860.010    20351863.995
       239.000         214.000
  23191307.402    -9145635.09949  -7111433.15346  23191307.192    23191313.408
       221.000         166.000
  22978573.933    -7042080.99649  -5477027.50445  22978573.475    22978579.175
       223.000         161.000
  21945072.389    -9751262.78249  -7560851.83846  21945071.473    21945078.358
       228.000         184.000
  23161930.845    -8131367.21749  -6290926.78846  23161931.249    23161937.974
       219.000         163.000
  23021872.902   -11882731.04349  -9242957.92045  23021872.469    23021878.522
       219.000         162.000
 03  4 16  1 16 30.0000000  0  8G11G25G14G23G31G15G 3G18
  24133345.461    -4035061.09249  -3133903.26145  24133345.243    24133351.168
       208.000         143.000
  22910999.005   -10330229.10449  -7828962.71646  22910999.205    22911004.832
       227.000         170.000
  20356738.109   -24398285.71949 -19000041.91548  20356738.143    20356741.728
       241.000         214.000
  23200449.696    -9097592.45749  -7073997.36046  23200448.943    23200456.219
       219.000         165.000
  22985989.147    -7003113.60549  -5446663.30545  22985988.781    22985994.793
       220.000         159.000
  21961452.999    -9665181.88349  -7493775.84246  21961452.703    21961458.627
       228.000         181.000
  23175124.885    -8062031.52349  -6236899.01045  23175125.025    23175133.197
       218.000         162.000
  23033306.963   -11822645.25249  -9196137.84945  23033306.644    23033312.293
       221.000         162.000
 03  4 16  1 17  0.0000000  0  8G11G25G14G23G31G15G 3G18
  24114872.507    -4132137.45049  -3209547.13245  24114872.541    24114877.660
       210.000         144.000
  22893143.655   -10424059.54349  -7902077.27146  22893143.686    22893149.909
       225.000         169.000
  20361694.260   -24372241.62249 -18979747.81148  20361693.653    20361697.750
       240.000         214.000
  23209604.653    -9049482.16449  -7036508.84646  23209604.965    23209610.332
       219.000         163.000
  22993486.815    -6963713.05549  -5415961.59145  22993486.441    22993493.352
       219.000         158.000
  21977900.875    -9578748.03749  -7426424.82246  21977900.246    21977906.987
       230.000         182.000
  23188362.160    -7992469.15149  -6182694.60946  23188362.990    23188369.973
       218.000         163.000
  23044759.826   -11762460.62049  -9149240.74545  23044759.495    23044765.152
       219.000         161.000
 03  4 16  1 17 30.0000000  0  8G11G25G14G23G31G15G 3G18
  24096425.461    -4229077.09549  -3285084.45045  24096424.722    24096430.495
       210.000         146.000
  22875319.684   -10517724.44549  -7975062.84246  22875319.496    22875326.180
       224.000         168.000
  20366727.981   -24345788.73749 -18959135.16748  20366727.678    20366731.379
       240.000         214.000
  23218772.557    -9001304.42449  -6998967.74746  23218772.378    23218778.458
       219.000         163.000
  23001066.496    -6923882.30349  -5384924.65445  23001066.213    23001072.708
       216.000         157.000
  21994415.432    -9491963.42349  -7358800.46646  21994414.764    21994421.673
       232.000         185.000
  23201641.912    -7922683.62349  -6128316.31446  23201642.657    23201649.756
       219.000         163.000
  23056231.293   -11702177.60549  -9102267.00145  23056230.903    23056236.602
       220.000         161.000
 03  4 16  1 18  0.0000000  0  8G11G25G14G23G31G15G 3G18
  24078004.954    -4325877.31849  -3360513.15645  24078005.624    24078009.432
       211.000         147.000
  22857527.767   -10611220.56549  -8047916.88046  22857527.083    22857534.718
       221.000         166.000
  20371839.381   -24318928.11749 -18938204.81448  20371839.019    20371842.980
       240.000         214.000
  23227953.434    -8953058.23149  -6961373.33146  23227953.193    23227960.338
       217.000         163.000
  23008727.578    -6883623.13049  -5353553.90445  23008726.780    23008732.568
       213.000         155.000
  22010996.572    -9404829.48349  -7290903.93046  22010996.224    22011002.703
       230.000         186.000
  23214963.877    -7852677.69949  -6073766.27146  23214964.115    23214971.273
       220.000         164.000
  23067721.626   -11641795.72549  -9055216.22245  23067720.929    23067727.206
       220.000         160.000
 03  4 16  1 18 30.0000000  0  8G11G25G14G23G31G15G 3G18
  24059611.442    -4422536.02049  -3435831.57245  24059611.827    24059616.282
       213.000         149.000
  22839768.515   -10704545.59949  -8120637.59646  22839768.337    22839775.076
       222.000         166.000
  20377027.964   -24291661.86049 -18916958.37848  20377027.797    20377031.768
       241.000         214.000
  23237147.433    -8904743.16049  -6923725.26846  23237147.168    23237154.422
       215.000         163.000
  23016469.356    -6842938.09449  -5321851.30745  23016468.680    23016475.731
       209.000         153.000
  22027643.917    -9317347.90249  -7222736.51946  22027643.250    22027649.763
       228.000         184.000
  23228326.977    -7782454.43149  -6019046.86746  23228326.974    23228334.674
       218.000         164.000
  23079230.720   -11581314.94849  -9008088.37645  23079230.531    23079236.109
       219.000         160.000
 03  4 16  1 19  0.0000000  0  8G11G25G14G23G31G15G 3G18
  24041245.447    -4519050.93049  -3511037.93745  24041245.582    24041250.088
       215.000         149.000
  22822042.542   -10797696.57449  -8193222.67646  22822042.419    22822049.039
       224.000         169.000
  20382293.479   -24263991.67749 -18895397.19348  20382292.992    20382297.129
       241.000         215.000
  23246354.826    -8856358.75349  -6886023.14445  23246354.664    23246361.019
       218.000         162.000
  23024291.696    -6801829.55249  -5289818.72445  23024291.465    23024297.941
       212.000         152.000
  22044356.938    -9229520.41749  -7154299.57146  22044356.200    22044363.083
       228.000         182.000
  23241730.712    -7712016.76249  -5964160.39445  23241730.605    23241737.984
       217.000         162.000
  23090758.706   -11520735.07949  -8960883.33545  23090758.570    23090763.667
       219.000         160.000
 03  4 16  1 19 30.0000000  0  8G11G25G14G23G31G15G 3G18
  24022907.426    -4615419.95049  -3586130.62645  24022907.367    24022911.604
       215.000         150.000
  22804350.090   -10890670.86049  -8265670.08846  22804350.287    22804356.353
       227.000         172.000
  20387635.363   -24235919.84149 -18873523.03248  20387635.414    20387638.947
       241.000         214.000
  23255575.339    -8807904.65549  -6848266.71045  23255574.661    23255582.292
       214.000         159.000
  23032194.489    -6760299.97949  -5257458.03945  23032194.354    23032201.983
       215.000         153.000
  22061135.447    -9141348.77549  -7085594.42046  22061134.924    22061141.805
       230.000         181.000
  23255174.738    -7641367.68449  -5909109.19045  23255173.688    23255181.498
       218.000         161.000
  23102305.638   -11460055.98749  -8913600.97545  23102305.047    23102310.794
       219.000         160.000
 03  4 16  1 20  0.0000000  0  8G11G25G14G23G31G15G 3G18
  24004597.346    -4711641.02049  -3661108.03645  24004596.464    24004601.860
       215.000         150.000
  22786691.833   -10983465.83949  -8337977.77446  22786691.702    22786698.501
       226.000         174.000
  20393053.358   -24207448.29349 -18851337.40848  20393053.203    20393056.834
       240.000         214.000
  23264809.010    -8759380.62749  -6810455.80845  23264808.089    23264815.728
       214.000         159.000
  23040176.921    -6718352.01349  -5224771.34245  23040177.617    23040184.527
       217.000         154.000
  22077979.102    -9052834.78149  -7016622.49946  22077978.763    22077985.140
       229.000         181.000
  23268658.338    -7570510.59749  -5853895.92245  23268657.933    23268665.350
       216.000         159.000
  23113871.352   -11399277.70249  -8866241.30045  23113871.670    23113876.355
       219.000         159.000
 03  4 16  1 20 30.0000000  0  8G11G25G14G23G31G15G 3G18
  23986315.663    -4807711.57849  -3735968.17245  23986314.700    23986319.760
       214.000         149.000
  22769068.011   -11076078.79149  -8410143.61946  22769067.173    22769074.103
       226.000         174.000
  20398547.034   -24178578.64049 -18828841.57448  20398546.720    20398550.514
       241.000         214.000
  23274056.293    -8710785.91149  -6772589.82845  23274056.026    23274062.517
       216.000         160.000
  23048238.865    -6675987.71449  -5191760.22045  23048238.526    23048244.074
       218.000         155.000
  22094887.594    -8963979.82449  -6947384.89146  22094887.088    22094894.249
       228.000         180.000
  23282180.927    -7499448.07249  -5798522.56045  23282181.481    23282187.993
       217.000         160.000
  23125456.068   -11338399.94749  -8818804.11545  23125456.130    23125461.603
       218.000         158.000
 03  4 16  1 21  0.0000000  0  8G11G25G14G23G31G15G 3G18
  23968062.989    -4903628.86949  -3810708.87945  23968062.646    23968066.892
       212.000         149.000
  22751479.588   -11168506.34849  -8482164.99946  22751479.249    22751485.040
       225.000         172.000
  20404116.240   -24149312.15449 -18806036.51748  20404115.725    20404120.019
       241.000         214.000
  23283317.117    -8662119.38749  -6734667.87045  23283316.435    23283323.060
       215.000         161.000
  23056379.550    -6633208.84549  -5158426.05345  23056379.840    23056385.323
       217.000         153.000
  22111860.572    -8874785.19349  -6877882.62446  22111859.538    22111867.783
       226.000         179.000
  23295742.375    -7428182.48649  -5742990.96945  23295742.743    23295750.394
       217.000         160.000
  23137059.929   -11277421.83349  -8771288.71745  23137059.267    23137065.408
       216.000         157.000
 03  4 16  1 21 30.0000000  0  8G11G25G14G23G31G15G 3G18
  23949839.955    -4999391.21149  -3885328.85245  23949839.821    23949843.811
       214.000         149.000
  22733926.943   -11260746.17149  -8554040.08046  22733926.700    22733931.291
       223.000         170.000
  20409760.438   -24119651.26549 -18782924.14148  20409760.097    20409764.264
       240.000         214.000
  23292591.602    -8613381.08649  -6696690.00245  23292590.965    23292598.411
       215.000         159.000
  23064598.552    -6590018.41949  -5124771.19945  23064599.370    23064605.406
       217.000         151.000
  22128897.882    -8785253.06349  -6808117.37446  22128897.703    22128904.152
       226.000         179.000
  23309341.877    -7356717.27249  -5687303.81045  23309341.539    23309349.544
       216.000         161.000
  23148682.449   -11216343.73049  -8723695.42545  23148681.861    23148688.113
       217.000         158.000
 03  4 16  1 22  0.0000000  0  8G11G25G14G23G31G15G 3G18
  23931646.959    -5094996.03549  -3959826.07445  23931647.275    23931650.789
       216.000         148.000
  22716410.467   -11352795.14549  -8625766.46046  22716409.737    22716415.686
       225.000         170.000
  20415479.515   -24089597.28049 -18759505.45448  20415479.328    20415483.054
       241.000         214.000
  23301880.063    -8564569.97549  -6658655.40045  23301880.214    23301887.021
       217.000         161.000
  23072895.509    -6546418.20049  -5090797.01945  23072894.897    23072900.675
       215.000         148.000
  22145999.398    -8695384.48349  -6738089.96546  22145999.184    22146005.889
       228.000         179.000
  23322978.866    -7285054.78449  -5631462.95045  23322978.798    23322986.013
       219.000         161.000
  23160324.427   -11155164.66049  -8676023.46245  23160324.031    23160329.670
       217.000         159.000
 03  4 16  1 22 30.0000000  0  8G11G25G14G23G31G15G 3G18
  23913484.267    -5190441.35349  -4034199.02645  23913483.870    23913487.810
       214.000         148.000
  22698930.730   -11444651.40449  -8697342.65746  22698930.008    22698936.598
       225.000         171.000
  20421272.942   -24059152.85049 -18735782.52448  20421272.787    20421276.708
       241.000         214.000
  23311182.413    -8515686.39149  -6620564.32046  23311182.594    23311188.861
       218.000         163.000
  23081269.582    -6502411.47549  -5056506.10445  23081268.131    23081274.086
       212.000         144.000
  22163164.356    -8605182.07149  -6667802.40846  22163164.550    22163169.880
       228.000         178.000
  23336652.556    -7213198.90449  -5575471.38445  23336652.272    23336659.805
       218.000         161.000
  23171985.520   -11093885.56949  -8628273.54745  23171985.778    23171990.433
       217.000         158.000
 03  4 16  1 23  0.0000000  0  8G11G25G14G23G31G15G 3G18
  23895352.204    -5285724.25149  -4108445.41045  23895351.612    23895356.634
       213.000         147.000
  22681488.411   -11536311.27649  -8768765.83146  22681488.412    22681494.908
       228.000         175.000
  20427140.385   -24028319.20749 -18711756.31048  20427140.175    20427143.929
       241.000         214.000
  23320498.733    -8466728.95849  -6582415.68845  23320498.195    23320505.118
       216.000         161.000
  23089720.916    -6457999.96149  -5021899.77245  23089721.768    23089726.458
       212.000         143.000
  22180392.692    -8514646.80249  -6597255.48446  22180392.274    22180398.568
       225.000         176.000
  23350362.820    -7141151.76249  -5519330.78945  23350362.081    23350370.428
       218.000         162.000
  23183665.864   -11032505.36949  -8580444.84145  23183664.943    23183671.203
       217.000         159.000
 03  4 16  1 23 30.0000000  0  8G11G25G14G23G31G15G 3G18
  23877251.599    -5380843.12849  -4182563.98745  23877251.853    23877255.674
       216.000         149.000
  22664084.014   -11627772.32249  -8840034.07946  22664083.481    22664089.083
       227.000         177.000
  20433081.415   -23997098.74549 -18687428.67848  20433081.042    20433085.008
       240.000         214.000
  23329829.040    -8417697.63649  -6544209.48745  23329829.265    23329835.999
       216.000         160.000
  23098248.546    -6413186.63549  -4986980.33145  23098249.335    23098254.262
       209.000         141.000
  22197683.783    -8423780.95949  -6526450.96746  22197683.583    22197690.256
       225.000         175.000
  23364108.801    -7068916.81449  -5463043.84445  23364108.944    23364115.790
       218.000         161.000
  23195365.323   -10971024.30849  -8532537.54445  23195365.243    23195370.738
       216.000         161.000
 03  4 16  1 24  0.0000000  0  8G11G25G14G23G31G15G 3G18
  23859182.747    -5475796.02349  -4256553.20345  23859183.331    23859187.372
       216.000         150.000
  22646717.764   -11719032.20449  -8911145.56346  22646717.973    22646723.507
       228.000         178.000
  20439095.618   -23965493.60849 -18662801.29748  20439095.539    20439099.168
       242.000         214.000
  23339173.578    -8368592.12349  -6505945.46345  23339173.376    23339180.185
       219.000         159.000
  23106852.033    -6367974.17749  -4951749.85445  23106850.650    23106857.746
       210.000         138.000
  22215037.546    -8332586.40649  -6455390.31546  22215037.669    22215043.442
       227.000         176.000
  23377889.866    -6996497.23749  -5406613.03245  23377890.343    23377897.197
       219.000         160.000
  23207084.008   -10909442.41349  -8484551.69445  23207083.860    23207090.511
       215.000         162.000
 03  4 16  1 24 30.0000000  0  8G11G25G14G23G31G15G 3G18
  23841146.183    -5570579.41149  -4330410.35245  23841146.138    23841149.986
       216.000         151.000
  22629390.525   -11810087.08649  -8982097.31346  22629390.929    22629396.349
       227.000         177.000
  20445182.962   -23933504.67749 -18637874.85448  20445182.705    20445186.602
       241.000         214.000
  23348532.636    -8319410.85449  -6467622.42145  23348532.267    23348540.096
       216.000         160.000
  23115531.151    -6322363.93149  -4916209.39545  23115531.021    23115537.783
       209.000         136.000
  22232453.806    -8241063.74749  -6384074.01746  22232453.753    22232460.219
       227.000         178.000
  23391705.622    -6923894.83149  -5350039.78945  23391705.349    23391713.139
       217.000         160.000
  23218822.151   -10847758.33449  -8436486.22945  23218822.234    23218827.997
       217.000         160.000
 03  4 16  1 25  0.0000000  0  8G11G25G14G23G31G15G 3G18
  23823141.950    -5665192.39849  -4404134.68845  23823141.772    23823145.687
       214.000         152.000
  22612102.658   -11900935.42749  -9052888.12546  22612102.437    22612108.674
       227.000         176.000
  20451342.671   -23901135.18249 -18612651.86648  20451342.540    20451346.416
       241.000         214.000
  23357905.822    -8270154.60149  -6429240.97045  23357904.469    23357912.351
       215.000         159.000
  23124285.525    -6276359.80949  -4880362.03945  23124285.021    23124292.901
       208.000         135.000
  22249931.923    -8149216.31649  -6312504.63046  22249932.222    22249938.755
       227.000         179.000
  23405555.401    -6851113.74949  -5293327.33345  23405555.851    23405562.322
       219.000         162.000
  23230579.530   -10785973.40749  -8388342.15745  23230579.315    23230584.494
       217.000         158.000
 03  4 16  1 25 30.0000000  0  8G11G25G14G23G31G15G 3G18
  23805170.643    -5759631.76249  -4477723.75445  23805169.844    23805175.521
       214.000         151.000
  22594854.590   -11991573.96149  -9123515.45746  22594854.148    22594859.500
       227.000         176.000
  20457574.546   -23868386.41949 -18587133.34348  20457574.206    20457578.283
       241.000         214.000
  23367293.377    -8220822.31649  -6390800.28245  23367293.429    23367299.181
       217.000         159.000
  23133114.621    -6229963.66349  -4844209.20545  23133115.887    23133122.062
       211.000         133.000
  22267471.597    -8057045.07049  -6240682.91946  22267471.610    22267477.743
       227.000         178.000
  23419438.890    -6778156.60749  -5236477.63746  23419438.640    23419445.709
       221.000         163.000
  23242356.139   -10724086.83249  -8340118.87345  23242355.132    23242361.344
       218.000         157.000
 03  4 16  1 26  0.0000000  0  8G11G25G14G23G31G15G 3G18
  23787232.801    -5853894.68049  -4551175.33045  23787232.542    23787237.288
       213.000         151.000
  22577647.026   -12081999.17649  -9193976.58146  22577646.840    22577651.928
       227.000         176.000
  20463878.389   -23835259.14049 -18561319.87148  20463878.182    20463882.135
       241.000         214.000
  23376695.972    -8171412.37949  -6352299.03245  23376696.300    23376701.190
       217.000         158.000
  23142018.084    -6183177.03349  -4807752.12045  23142018.884    23142022.529
       209.000         132.000
  22285072.794    -7964550.78449  -6168609.48946  22285072.695    22285078.678
       227.000         177.000
  23433355.569    -6705025.44549  -5179492.36446  23433356.175    23433362.621
       223.000         165.000
  23254152.514   -10662097.26149  -8291815.33745  23254152.325    23254157.241
       218.000         159.000
 03  4 16  1 26 30.0000000  0  8G11G25G14G23G31G15G 3G18
  23769328.714    -5947980.46749  -4624488.87245  23769328.816    23769332.900
       213.000         151.000
  22560480.365   -12172209.75949  -9264270.46346  22560480.394    22560486.512
       227.000         176.000
  20470253.596   -23801757.13249 -18535214.39948  20470253.358    20470257.196
       240.000         214.000
  23386112.993    -8121925.91649  -6313738.17045  23386111.672    23386119.370
       214.000         158.000
  23150995.048    -6136004.14849  -4770994.06745  23150994.880    23151001.581
       209.000         132.000
  22302734.731    -7871736.86449  -6096286.99046  22302734.398    22302741.131
       224.000         175.000
  23447304.374    -6631724.90549  -5122375.10146  23447304.499    23447311.553
       221.000         165.000
  23265968.231   -10600006.10149  -8243432.63545  23265968.645    23265973.974
       218.000         162.000
 03  4 16  1 27  0.0000000  0  8G11G25G14G23G31G15G 3G18
  23751459.207    -6041885.27049  -4697661.40945  23751459.567    23751464.005
       216.000         152.000
  22543355.405   -12262201.61949  -9334393.89346  22543355.050    22543361.398
       228.000         177.000
  20476700.009   -23767880.93249 -18508817.35448  20476699.766    20476703.598
       242.000         214.000
  23395544.686    -8072361.23249  -6275116.40245  23395544.312    23395551.445
       214.000         159.000
  23160045.197    -6088446.14449  -4733935.88145  23160045.014    23160051.852
       205.000         132.000
  22320457.217    -7778604.04949  -6023716.00846  22320455.820    22320464.313
       224.000         174.000
  23461284.975    -6558256.37249  -5065126.92346  23461284.870    23461291.859
       220.000         166.000
  23277803.408   -10537812.04649  -8194969.76946  23277803.522    23277808.916
       220.000         163.000
 03  4 16  1 27 30.0000000  0  8G11G25G14G23G31G15G 3G18
  23733624.655    -6135606.75349  -4770691.10245  23733626.172    23733628.514
       217.000         154.000
  22526272.558   -12351972.27349  -9404344.95446  22526272.456    22526278.638
       228.000         178.000
  20483217.221   -23733632.59349 -18482130.33448  20483217.134    20483221.161
       241.000         214.000
  23404991.544    -8022717.65649  -6236433.11945  23404991.971    23404998.068
       217.000         159.000
  23169167.403    -6040505.60749  -4696579.66945  23169166.710    23169175.615
       203.000         134.000
  22338240.152    -7685154.00249  -5950897.83346  22338240.558    22338246.399
       223.000         174.000
  23475296.963    -6484623.16149  -5007750.42646  23475296.151    23475303.982
       220.000         166.000
  23289658.194   -10475514.81049  -8146426.48846  23289657.526    23289663.114
       219.000         163.000
 03  4 16  1 28  0.0000000  0  8G11G25G14G23G31G15G 3G18
  23715825.344    -6229143.08249  -4843576.51545  23715825.995    23715829.774
       219.000         154.000
  22509232.239   -12441519.41449  -9474121.84946  22509231.923    22509237.507
       228.000         178.000
  20489804.862   -23699014.36049 -18455155.08848  20489804.683    20489808.336
       241.000         213.000
  23414453.595    -7972995.07549  -6197688.24345  23414452.912    23414459.243
       217.000         157.000
  23178362.140    -5992185.46749  -4658927.66745  23178362.004    23178369.857
       204.000         137.000
  22356083.106    -7591389.03249  -5877834.26846  22356082.286    22356089.617
       224.000         175.000
  23489339.776    -6410828.23549  -4950247.92046  23489340.678    23489346.548
       221.000         164.000
  23301532.577   -10413114.52549  -8097802.91346  23301532.035    23301538.548
       219.000         163.000
 03  4 16  1 28 30.0000000  0  8G11G25G14G23G31G15G 3G18
  23698061.769    -6322491.25849  -4916315.34045  23698061.793    23698065.848
       218.000         154.000
  22492235.088   -12530839.37949  -9543721.72746  22492234.530    22492240.074
       228.000         179.000
  20496462.678   -23664027.40149 -18427892.52048  20496462.474    20496466.404
       240.000         213.000
  23423930.805    -7923192.17449  -6158880.81845  23423930.191    23423937.205
       213.000         156.000
  23187629.098    -5943487.67549  -4620981.35345  23187629.398    23187635.837
       204.000         139.000
  22373985.722    -7497310.15849  -5804526.10346  22373985.472    22373991.702
       224.000         174.000
  23503412.888    -6336873.87949  -4892621.20045  23503412.996    23503419.834
       218.000         162.000
  23313426.730   -10350610.28449  -8049098.33646  23313426.541    23313431.688
       219.000         163.000
 03  4 16  1 29  0.0000000  0  8G11G25G14G23G31G15G 3G18
  23680334.126    -6415649.99249  -4988906.52245  23680333.656    23680338.199
       219.000         153.000
  22475281.504   -12619930.67049  -9613143.41946  22475281.866    22475286.758
       228.000         179.000
  20503189.975   -23628675.22049 -18400345.35348  20503189.607    20503193.696
       241.000         213.000
  23433423.046    -7873309.72549  -6120011.40845  23433422.669    23433429.097
       215.000         156.000
  23196966.852    -5894416.01049  -4582743.69145  23196966.105    23196974.518
       203.000         138.000
  22391947.536    -7402920.50749  -5730975.77346  22391947.867    22391953.509
       223.000         173.000
  23517515.301    -6262764.37549  -4834873.57045  23517514.214    23517521.980
       217.000         160.000
  23325340.512   -10288003.05149  -8000313.50745  23325340.803    23325346.114
       220.000         162.000
 03  4 16  1 29 30.0000000  0  8G11G25G14G23G31G15G 3G18
  23662643.178    -6508616.03949  -5061347.57045  23662642.603    23662646.938
       217.000         153.000
  22458372.248   -12708789.16749  -9682383.72646  22458372.222    22458378.057
       229.000         179.000
  20509986.645   -23592958.33649 -18372514.01148  20509986.442    20509990.245
       241.000         213.000
  23442930.880    -7823345.85649  -6081078.53645  23442931.336    23442936.936
       215.000         158.000
  23206375.788    -5844971.90949  -4544215.87945  23206376.950    23206382.393
       208.000         141.000
  22409968.396    -7308220.64149  -5657183.72046  22409968.452    22409974.378
       222.000         171.000
  23531646.987    -6188501.47649  -4777006.41745  23531647.569    23531653.757
       218.000         159.000
  23337274.172   -10225291.12549  -7951447.08945  23337274.611    23337279.805
       220.000         161.000
 03  4 16  1 30  0.0000000  0  8G11G25G14G23G31G15G 3G18
  23644989.223    -6601387.38649  -5133636.90745  23644988.515    23644992.933
       216.000         153.000
  22441507.763   -12797412.97149  -9751441.16846  22441507.338    22441513.051
       230.000         179.000
  20516852.322   -23556879.19049 -18344400.39748  20516852.289    20516855.946
       241.000         213.000
  23452454.169    -7773300.35149  -6042082.04845  23452454.154    23452461.170
       215.000         158.000
  23215855.285    -5795158.31849  -4505400.14345  23215854.259    23215861.789
       206.000         143.000
  22428047.930    -7213212.86249  -5583151.74246  22428048.425    22428054.655
       224.000         171.000
  23545807.372    -6114088.58049  -4719022.38545  23545807.097    23545814.482
       218.000         160.000
  23349227.797   -10162474.90049  -7902499.41645  23349227.516    23349233.435
       216.000         160.000
 03  4 16  1 30 30.0000000  0  8G11G25G14G23G31G15G 3G18
  23627372.568    -6693962.40049  -5205773.24045  23627372.291    23627377.315
       218.000         154.000
  22424688.150   -12885800.25849  -9820314.30246  22424687.992    22424693.258
       231.000         179.000
  20523786.293   -23520440.61949 -18316006.70048  20523786.039    20523789.896
       242.000         213.000
  23461992.972    -7723173.48949  -6003022.17845  23461992.591    23461999.400
       216.000         159.000
  23225404.145    -5744978.78749  -4466299.25445  23225402.798    23225408.780
       208.000         143.000
  22446185.425    -7117900.02849  -5508882.03746  22446185.419    22446191.363
       226.000         172.000
  23559995.554    -6039529.36549  -4660924.34145  23559995.195    23560002.201
       217.000         159.000
  23361201.051   -10099555.14049  -7853471.05845  23361201.557    23361206.132
       218.000         159.000
 03  4 16  1 31  0.0000000  0  8G11G25G14G23G31G15G 3G18
  23609793.984    -6786337.84549  -5277754.06445  23609793.330    23609798.950
       217.000         156.000
  22407914.198   -12973947.18449  -9889000.13546  22407913.614    22407920.010
       228.000         180.000
  20530788.567   -23483643.64349 -18287333.73548  20530788.441    20530792.169
       242.000         213.000
  23471547.520    -7672963.82949  -5963897.79445  23471548.055    23471554.391
       218.000         161.000
  23235022.283    -5694434.87749  -4426914.39245  23235022.089    23235028.643
       208.000         144.000
  22464380.827    -7022282.94349  -5434375.25846  22464380.093    22464387.075
       226.000         172.000
  23574211.206    -5964825.96349  -4602713.93145  23574211.533    23574218.348
       216.000         159.000
  23373194.191   -10036530.64449  -7804361.08545  23373194.094    23373198.978
       217.000         158.000
 03  4 16  1 31 30.0000000  0  8G11G25G14G23G31G15G 3G18
  23592253.810    -6878511.93449  -5349577.99245  23592253.793    23592258.060
       218.000         158.000
  22391186.301   -13061851.72949  -9957497.10346  22391185.795    22391192.441
       228.000         181.000
  20537858.538   -23446490.68749 -18258383.38348  20537858.327    20537862.112
       241.000         213.000
  23481118.018    -7622671.31749  -5924708.86945  23481117.940    23481125.039
       218.000         162.000
  23244709.388    -5643529.79149  -4387248.12645  23244709.942    23244715.268
       206.000         144.000
  22482633.631    -6926364.02749  -5359633.28546  22482634.066    22482639.867
       225.000         173.000
  23588453.521    -5889981.80849  -4544393.84945  23588453.414    23588460.999
       217.000         159.000
  23385207.306    -9973401.70649  -7755169.71945  23385206.538    23385211.742
       217.000         157.000
 03  4 16  1 32  0.0000000  0  8G11G25G14G23G31G15G 3G18
  23574752.497    -6970481.55649  -5421242.58745  23574752.568    23574757.035
       219.000         160.000
  22374505.341   -13149510.32849 -10025802.42646  22374505.612    22374511.756
       229.000         182.000
  20544995.990   -23408983.06449 -18229156.65948  20544995.965    20545000.036
       241.000         213.000
  23490704.478    -7572294.60049  -5885454.32145  23490704.434    23490711.334
       215.000         160.000
  23254464.707    -5592265.46449  -4347301.92745  23254463.930    23254471.675
       207.000         143.000
  22500943.708    -6830144.39749  -5284657.00946  22500943.231    22500949.941
       223.000         172.000
  23602722.310    -5814999.20049  -4485965.88345  23602721.646    23602729.269
       212.000         158.000
  23397240.474    -9910167.33949  -7705896.21945  23397240.597    23397244.872
       218.000         157.000
 03  4 16  1 32 30.0000000  0  8G11G25G14G23G31G15G 3G18
  23557290.411    -7062245.71249  -5492747.07945  23557290.797    23557294.625
       221.000         162.000
  22357871.427   -13236921.72949 -10093915.11846  22357870.878    22357877.167
       230.000         182.000
  20552200.327   -23371124.14349 -18199656.19448  20552199.648    20552203.996
       241.000         213.000
  23500306.780    -7521834.54149  -5846134.83545  23500306.696    23500313.468
       216.000         158.000
  23264287.578    -5540645.91949  -4307078.89445  23264287.949    23264295.034
       203.000         143.000
  22519310.327    -6733627.42949  -5209449.03746  22519310.136    22519317.005
       224.000         173.000
  23617016.345    -5739882.49349  -4427433.42245  23617015.091    23617024.130
       212.000         155.000
  23409293.482    -9846828.90049  -7656541.62345  23409293.573    23409298.440
       221.000         160.000
 03  4 16  1 33  0.0000000  0  8G11G25G14G23G31G15G 3G18
  23539868.319    -7153799.99949  -5564088.04545  23539868.538    23539872.770
       222.000         162.000
  22341285.502   -13324080.80549 -10161831.22246  22341285.550    22341290.980
       230.000         181.000
  20559471.417   -23332913.79149 -18169881.89648  20559470.904    20559475.421
       241.000         213.000
  23509925.504    -7471288.41449  -5806748.25145  23509925.507    23509932.187
       218.000         159.000
  23274177.900    -5488671.60749  -4266579.43545  23274177.922    23274185.464
       203.000         142.000
  22537733.531    -6636812.72749  -5134009.04646  22537732.592    22537739.434
       225.000         173.000
  23631335.901    -5664632.19349  -4368796.86145  23631335.577    23631343.455
       215.000         155.000
  23421366.811    -9783383.64349  -7607103.78945  23421366.216    23421371.531
       217.000         159.000
 03  4 16  1 33 30.0000000  0  8G11G25G14G23G31G15G 3G18
  23522486.174    -7245144.34449  -5635265.43045  23522486.332    23522489.961
       221.000         161.000
  22324747.566   -13410987.67849 -10229550.80946  22324747.289    22324753.251
       229.000         181.000
  20566808.614   -23294356.28349 -18139837.09347  20566808.505    20566812.331
       241.000         212.000
  23519560.261    -7420658.29449  -5767296.21645  23519559.818    23519567.059
       219.000         160.000
  23284134.972    -5436347.84149  -4225807.70145  23284135.139    23284142.371
       204.000         142.000
  22556212.538    -6539704.96849  -5058340.70346  22556212.249    22556218.777
       224.000         172.000
  23645679.919    -5589253.87349  -4310060.55045  23645679.747    23645687.387
       215.000         157.000
  23433459.933    -9719833.81649  -7557584.48345  23433459.633    23433465.296
       216.000         157.000
 03  4 16  1 34  0.0000000  0  8G11G25G14G23G31G15G 3G18
  23505144.777    -7336274.11249  -5706275.59045  23505144.897    23505148.959
       221.000         161.000
  22308258.624   -13497637.47949 -10297070.08046  22308258.914    22308264.540
       230.000         181.000
  20574211.933   -23255451.71349 -18109521.84447  20574211.760    20574215.645
       240.000         212.000
  23529211.415    -7369941.54449  -5727776.70145  23529210.946    23529217.997
       218.000         161.000
  23294158.333    -5383675.18649  -4184764.08345  23294158.640    23294165.862
       206.000         143.000
  22574747.346    -6442303.92749  -4982443.82346  22574746.468    22574754.064
       223.000         171.000
  23660048.178    -5513748.35249  -4251225.13145  23660047.960    23660055.766
       213.000         156.000
  23445573.288    -9656177.25049  -7507981.99745  23445573.497    23445577.559
       213.000         153.000
 03  4 16  1 34 30.0000000  0  8G11G25G14G23G31G15G 3G18
  23487844.347    -7427188.51649  -5777117.96345  23487843.844    23487849.379
       220.000         160.000
  22291818.958   -13584028.56949 -10364387.75746  22291818.925    22291825.090
       229.000         182.000
  20581680.636   -23216203.06149 -18078938.48147  20581680.609    20581684.539
       241.000         212.000
  23538878.840    -7319138.50749  -5688189.95645  23538877.844    23538885.693
       216.000         162.000
  23304247.235    -5330657.31949  -4143451.47745  23304246.716    23304254.743
       204.000         140.000
  22593337.358    -6344612.39249  -4906320.60446  22593336.329    22593344.092
       222.000         170.000
  23674439.908    -5438119.69349  -4192293.74445  23674439.227    23674447.330
       212.000         153.000
  23457706.920    -9592414.72949  -7458296.94945  23457706.278    23457710.154
       213.000         150.000
 03  4 16  1 35  0.0000000  0  8G11G25G14G23G31G15G 3G18
  23470585.487    -7517883.96549  -5847789.69245  23470584.732    23470589.992
       218.000         159.000
  22275429.189   -13670156.88249 -10431500.64946  22275428.911    22275435.543
       230.000         183.000
  20589214.701   -23176611.36549 -18048087.81547  20589214.513    20589218.657
       242.000         212.000
  23548562.966    -7268247.48949  -5648534.66345  23548562.579    23548570.102
       216.000         162.000
  23314401.342    -5277295.77149  -4101871.09545  23314400.716    23314409.033
       208.000         141.000
  22611982.546    -6246631.19549  -4829971.66946  22611982.101    22611989.385
       224.000         171.000
  23688854.613    -5362369.93949  -4133268.01345  23688853.998    23688861.739
       215.000         152.000
  23469860.790    -9528544.92049  -7408528.29645  23469860.404    23469865.506
       214.000         148.000
 03  4 16  1 35 30.0000000  0  8G11G25G14G23G31G15G 3G18
  23453368.629    -7608358.47749  -5918289.27145  23453368.641    23453372.229
       218.000         158.000
  22259089.853   -13756020.55449 -10498407.34646  22259089.713    22259095.873
       229.000         184.000
  20596813.621   -23136678.96449 -18016971.66948  20596813.563    20596817.554
       241.000         213.000
  23558263.907    -7217268.51349  -5608810.83645  23558263.773    23558270.380
       216.000         161.000
  23324620.431    -5223593.97149  -4060025.58545  23324620.072    23324627.152
       210.000         144.000
  22630682.485    -6148362.92749  -4753399.05346  22630682.075    22630689.103
       223.000         172.000
  23703291.787    -5286502.23949  -4074150.38645  23703291.133    23703300.064
       214.000         154.000
  23482035.048    -9464568.28449  -7358676.41545  23482035.335    23482040.951
       212.000         150.000
 03  4 16  1 36  0.0000000  0  8G11G25G14G23G31G15G 3G18
  23436194.142    -7698609.89449  -5988615.00745  23436193.411    23436198.213
       219.000         158.000
  22242801.215   -13841617.39049 -10565106.11146  22242801.479    22242807.368
       232.000         184.000
  20604476.899   -23096408.26249 -17985591.91248  20604476.947    20604480.318
       243.000         213.000
  23567981.663    -7166201.25249  -5569018.22045  23567981.366    23567988.311
       219.000         161.000
  23334903.802    -5169554.89449  -4017917.25745  23334903.433    23334910.369
       212.000         145.000
  22649436.645    -6049809.77049  -4676604.43446  22649436.701    22649443.489
       225.000         173.000
  23717750.947    -5210519.93449  -4014943.41645  23717751.352    23717758.813
       215.000         155.000
  23494229.717    -9400484.71849  -7308741.18745  23494229.573    23494234.592
       214.000         151.000
 03  4 16  1 36 30.0000000  0  8G11G25G14G23G31G15G 3G18
  23419062.653    -7788635.41949  -6058764.70845  23419062.490    23419066.545
       219.000         158.000
  22226564.045   -13926944.15349 -10631594.44846  22226563.520    22226569.116
       231.000         183.000
  20612204.277   -23055800.81149 -17953949.74748  20612204.398    20612208.034
       243.000         213.000
  23577716.570    -7115044.61849  -5529155.93245  23577716.976    23577723.790
       219.000         161.000
  23345250.972    -5115180.59449  -3975547.71845  23345250.349    23345257.972
       211.000         145.000
  22668244.643    -5950973.19549  -4599588.97946  22668243.462    22668251.079
       225.000         172.000
  23732231.286    -5134425.27149  -3955648.92045  23732230.878    23732238.735
       215.000         152.000
  23506444.967    -9336293.48049  -7258722.07445  23506444.737    23506449.291
       213.000         150.000
 03  4 16  1 37  0.0000000  0  8G11G25G14G23G31G15G 3G18
  23401974.535    -7878433.89149  -6128737.49645  23401974.260    23401979.179
       220.000         160.000
  22210378.585   -14011999.02849 -10697870.91746  22210378.715    22210383.839
       230.000         182.000
  20619995.226   -23014859.31049 -17922047.28248  20619995.044    20619999.188
       241.000         213.000
  23587468.308    -7063799.01049  -5489224.30845  23587468.595    23587475.856
       216.000         160.000
  23355661.136    -5060474.87249  -3932919.94945  23355661.812    23355667.844
       211.000         144.000
  22687105.970    -5851856.16549  -4522354.96746  22687104.784    22687113.069
       223.000         171.000
  23746732.326    -5058222.28649  -3896270.03945  23746732.649    23746738.627
       215.000         151.000
  23518680.410    -9271995.28649  -7208619.64445  23518679.867    23518685.644
       212.000         149.000
 03  4 16  1 37 30.0000000  0  8G11G25G14G23G31G15G 3G18
  23384930.318    -7968001.49649  -6198530.38545  23384929.620    23384935.096
       221.000         162.000
  22194245.597   -14096778.57949 -10763932.84346  22194245.324    22194251.171
       231.000         182.000
  20627849.516   -22973585.08849 -17889885.56248  20627849.517    20627853.066
       242.000         213.000
  23597237.152    -7012462.93249  -5449222.20045  23597237.782    23597243.703
       216.000         159.000
  23366134.135    -5005439.72049  -3890035.46545  23366133.562    23366140.771
       211.000         143.000
  22706020.339    -5752459.87749  -4444903.35646  22706019.740    22706027.368
       222.000         169.000
  23761253.594    -4981913.20049  -3836808.46945  23761254.536    23761260.989
       212.000         151.000
  23530936.585    -9207589.06449  -7158433.02645  23530936.941    23530942.699
       211.000         149.000
 03  4 16  1 38  0.0000000  0  8G11G25G14G23G31G15G 3G18
  23367930.400    -8057336.07649  -6268141.68546  23367930.458    23367935.171
       221.000         163.000
  22178165.489   -14181279.74549 -10829777.84646  22178165.296    22178171.511
       232.000         184.000
  20635766.671   -22931980.09049 -17857466.08547  20635766.286    20635770.355
       241.000         212.000
  23607023.509    -6961035.61349  -5409148.99645  23607023.967    23607029.776
       216.000         157.000
  23376669.216    -4950077.58249  -3846896.17645  23376669.349    23376676.176
       210.000         144.000
  22724987.595    -5652785.92649  -4367235.38546  22724986.469    22724993.881
       221.000         166.000
  23775794.352    -4905500.55649  -3777266.16745  23775795.010    23775801.885
       215.000         151.000
  23543213.402    -9143074.44349  -7108161.93145  23543213.113    23543218.570
       214.000         150.000
 03  4 16  1 38 30.0000000  0  8G11G25G14G23G31G15G 3G18
  23350974.988    -8146436.81849  -6337570.78746  23350975.096    23350979.619
       221.000         164.000
  22162138.609   -14265501.67549 -10895405.27346  22162138.721    22162143.986
       231.000         185.000
  20643746.090   -22890047.55749 -17824791.39347  20643745.742    20643749.790
       240.000         212.000
  23616827.129    -6909517.98249  -5369005.42545  23616826.431    23616833.148
       213.000         156.000
  23387265.770    -4894392.75649  -3803505.46045  23387265.573    23387272.759
       212.000         145.000
  22744007.146    -5552837.96949  -4289353.90446  22744007.191    22744013.040
       220.000         165.000
  23790354.243    -4828988.63749  -3717646.54445  23790354.700    23790359.189
       215.000         151.000
  23555510.530    -9078452.62149  -7057807.28945  23555510.060    23555516.024
       211.000         150.000
 03  4 16  1 39  0.0000000  0  8G11G25G14G23G31G15G 3G18
  23334064.775    -8235300.51449  -6406815.17246  23334063.864    23334070.658
       222.000         164.000
  22146165.443   -14349440.89549 -10960812.39246  22146165.029    22146171.129
       231.000         186.000
  20651787.590   -22847789.08849 -17791862.72047  20651787.495    20651791.299
       242.000         212.000
  23626648.018    -6857908.77949  -5328790.49945  23626647.782    23626654.221
       214.000         156.000
  23397923.382    -4838387.35549  -3759864.93245  23397922.895    23397929.676
       213.000         148.000
  22763078.642    -5452617.23049  -4211259.87846  22763078.369    22763084.988
       221.000         165.000
  23804932.588    -4752379.98449  -3657951.57945  23804933.338    23804939.213
       214.000         150.000
  23567828.103    -9013722.87549  -7007368.54845  23567828.472    23567833.720
       213.000         149.000
 03  4 16  1 39 30.0000000  0  8G11G25G14G23G31G15G 3G18
  23317200.497    -8323923.51949  -6475872.01146  23317199.459    23317204.767
       221.000         164.000
  22130246.718   -14433093.75749 -11025996.38346  22130246.319    22130252.300
       232.000         185.000
  20659890.965   -22805205.63749 -17758680.81247  20659890.795    20659894.556
       241.000         212.000
  23636486.703    -6806206.58949  -5288503.09945  23636486.251    23636492.834
       216.000         158.000
  23408641.367    -4782063.20249  -3715976.03445  23408640.865    23408648.566
       212.000         151.000
  22782201.803    -5352124.91749  -4132954.23846  22782201.770    22782208.418
       221.000         166.000
  23819528.868    -4675676.52449  -3598182.69845  23819528.134    23819536.056
       213.000         151.000
  23580166.589    -8948883.81749  -6956844.62545  23580167.690    23580172.100
       214.000         150.000
 03  4 16  1 40  0.0000000  0  8G11G25G14G23G31G15G 3G18
  23300382.164    -8412304.62949  -6544740.36246  23300381.911    23300386.840
       222.000         164.000
  22114382.872   -14516458.31149 -11090955.71146  22114382.562    22114388.246
       232.000         185.000
  20668055.650   -22762299.93749 -17725247.79847  20668055.343    20668059.334
       241.000         212.000
  23646343.179    -6754411.49249  -5248143.31945  23646342.768    23646349.558
       215.000         159.000
  23419419.446    -4725423.80049  -3671841.49545  23419419.753    23419425.772
       215.000         154.000
  22801376.043    -5251363.69049  -4054439.06146  22801375.866    22801382.465
       222.000         167.000
  23834142.330    -4598881.83249  -3538342.71245  23834142.237    23834150.505
       214.000         152.000
  23592525.795    -8883936.01749  -6906235.98745  23592526.334    23592531.188
       215.000         151.000
 03  4 16  1 40 30.0000000  0  8G11G25G14G23G31G15G 3G18
  23283610.288    -8500441.44749  -6613418.36746  23283610.622    23283613.702
       220.000         163.000
  22098574.512   -14599532.25049 -11155688.59246  22098574.385    22098579.941
       233.000         186.000
  20676281.261   -22719074.09549 -17691565.32547  20676281.378    20676285.238
       241.000         212.000
  23656217.184    -6702522.86449  -5207710.64745  23656216.762    23656223.442
       213.000         157.000
  23430257.229    -4668471.98949  -3627463.49845  23430257.550    23430263.837
       217.000         158.000
  22820601.053    -5150335.80649  -3975716.09346  22820601.077    22820607.758
       222.000         167.000
  23848772.671    -4521998.72249  -3478433.83445  23848772.079    23848780.430
       211.000         152.000
  23604905.827    -8818879.27749  -6855542.45745  23604906.114    23604911.758
       215.000         153.000
 03  4 16  1 41  0.0000000  0  8G11G25G14G23G31G15G 3G18
  23266885.455    -8588330.53649  -6681903.32946  23266885.380    23266888.595
       221.000         164.000
  22082822.012   -14682312.10849 -11220192.31746  22082822.240    22082827.253
       233.000         187.000
  20684567.515   -22675529.46249 -17657634.44347  20684567.342    20684571.512
       241.000         212.000
  23666109.264    -6650539.42749  -5167204.08245  23666108.264    23666115.041
       213.000         155.000
  23441153.951    -4611209.84149  -3582843.68245  23441153.627    23441160.242
       217.000         160.000
  22839876.590    -5049042.20649  -3896786.06946  22839876.143    22839883.257
       222.000         168.000
  23863419.316    -4445029.48949  -3418457.86545  23863418.709    23863427.452
       210.000         150.000
  23617306.817    -8753712.53149  -6804763.20545  23617307.268    23617312.729
       216.000         153.000
 03  4 16  1 41 30.0000000  0  8G11G25G14G23G31G15G 3G18
  23250208.263    -8675970.15549  -6750193.90346  23250208.556    23250212.299
       222.000         164.000
  22067125.839   -14764795.87049 -11284465.31147  22067125.617    22067131.242
       232.000         188.000
  20692914.048   -22631668.35849 -17623456.96447  20692913.894    20692917.934
       242.000         212.000
  23676019.402    -6598460.96149  -5126623.48445  23676019.253    23676026.064
       212.000         153.000
  23452108.956    -4553640.53549  -3537984.53745  23452108.613    23452116.296
       217.000         161.000
  22859202.281    -4947485.42549  -3817650.96546  22859202.803    22859208.499
       221.000         166.000
  23878081.498    -4367977.45549  -3358417.36845  23878081.048    23878090.029
       210.000         149.000
  23629728.804    -8688435.86849  -6753898.32645  23629729.679    23629733.828
       216.000         154.000
 03  4 16  1 42  0.0000000  0  8G11G25G14G23G31G15G 3G18
  23233579.069    -8763357.98649  -6818288.28646  23233578.978    23233583.539
       224.000         165.000
  22051486.396   -14846981.00649 -11348505.60047  22051486.014    22051492.119
       233.000         188.000
  20701320.359   -22587492.88349 -17589034.51947  20701320.134    20701324.409
       242.000         212.000
  23685947.843    -6546287.10149  -5085968.56645  23685948.469    23685953.892
       214.000         154.000
  23463121.931    -4495767.21049  -3492888.47446  23463122.268    23463128.703
       217.000         163.000
  22878577.629    -4845667.73849  -3738312.56846  22878576.711    22878584.811
       220.000         164.000
  23892758.981    -4290845.64249  -3298314.72045  23892759.427    23892766.915
       211.000         149.000
  23642171.512    -8623049.56149  -6702948.01745  23642171.006    23642175.622
       215.000         154.000
 03  4 16  1 42 30.0000000  0  8G11G25G14G23G31G15G 3G18
  23216997.967    -8850492.16849  -6886185.02346  23216997.667    23217002.652
       222.000         166.000
  22035904.349   -14928864.91549 -11412311.15947  22035903.971    22035910.031
       232.000         189.000
  20709786.021   -22543005.66649 -17554369.15747  20709785.554    20709789.675
       242.000         212.000
  23695894.415    -6494017.65849  -5045239.14545  23695894.414    23695901.042
       214.000         154.000
  23474192.275    -4437592.88949  -3447557.87546  23474192.195    23474198.867
       218.000         164.000
  22898002.142    -4743591.52149  -3658772.71745  22898001.433    22898007.767
       219.000         161.000
  23907451.275    -4213637.38849  -3238152.50245  23907451.356    23907458.961
       209.000         149.000
  23654634.939    -8557553.60149  -6651912.25945  23654634.217    23654640.195
       211.000         152.000
 03  4 16  1 43  0.0000000  0  8G11G25G14G23G31G15G 3G18
  23200465.841    -8937368.96149  -6953881.20246  23200466.301    23200470.611
       223.000         166.000
  22020380.304   -15010443.92449 -11475879.14747  22020380.118    22020385.869
       233.000         189.000
  20718310.853   -22498207.35449 -17519461.37847  20718310.692    20718314.850
       242.000         212.000
  23705859.408    -6441650.80249  -5004433.83145  23705859.425    23705865.695
       211.000         151.000
  23485319.551    -4379119.07949  -3401993.90446  23485319.202    23485326.183
       217.000         165.000
  22917475.743    -4641257.50949  -3579031.98645  22917474.932    22917481.559
       218.000         160.000
  23922157.767    -4136354.32649  -3177931.97245  23922158.634    23922166.288
       208.000         148.000
  23667119.390    -8491946.43749  -6600789.84145  23667120.004    23667124.702
       213.000         151.000
 03  4 16  1 43 30.0000000  0  8G11G25G14G23G31G15G 3G18
  23183983.081    -9023986.76349  -7021375.55346  23183982.813    23183987.130
       222.000         166.000
  22004914.566   -15091716.47349 -11539208.34647  22004913.945    22004919.892
       233.000         189.000
  20726894.327   -22453100.78749 -17484313.40347  20726893.870    20726897.955
       241.000         212.000
  23715842.836    -6389186.81449  -4963552.82845  23715842.244    23715849.832
       211.000         150.000
  23496503.006    -4320349.65949  -3356199.58146  23496502.959    23496510.025
       216.000         164.000
  22936997.714    -4538668.82049  -3499092.80145  22936997.657    22937004.460
       218.000         160.000
  23936877.874    -4059000.34049  -3117656.16645  23936878.264    23936885.689
       211.000         149.000
  23679625.055    -8426228.61549  -6549581.20445  23679625.486    23679630.462
       214.000         151.000
 03  4 16  1 44  0.0000000  0  8G11G25G14G23G31G15G 3G18
  23167549.938    -9110343.58849  -7088666.55346  23167549.629    23167554.298
       222.000         166.000
  21989507.515   -15172680.68249 -11602297.29547  21989507.221    21989512.459
       234.000         188.000
  20735535.994   -22407688.41849 -17448927.14547  20735535.597    20735539.824
       241.000         212.000
  23725845.059    -6336625.55849  -4922596.03945  23725843.860    23725851.404
       212.000         152.000
  23507742.048    -4261287.82849  -3310177.41046  23507741.010    23507748.559
       216.000         163.000
  22956567.661    -4435827.90549  -3418957.06045  22956566.760    22956573.782
       221.000         160.000
  23951610.916    -3981578.33349  -3057327.42645  23951610.485    23951618.384
       210.000         149.000
  23692151.876    -8360400.33149  -6498286.47845  23692150.456    23692157.280
       215.000         149.000
 03  4 16  1 44 30.0000000  0  8G11G25G14G23G31G15G 3G18
  23151166.973    -9196435.66849  -7155751.26346  23151166.061    23151172.461
       221.000         166.000
  21974160.058   -15253332.17949 -11665142.55947  21974160.006    21974165.751
       234.000         189.000
  20744235.690   -22361970.91949 -17413303.11647  20744235.215    20744239.759
       241.000         211.000
  23735866.088    -6283964.86449  -4881561.76245  23735866.162    23735873.150
       212.000         152.000
  23519036.381    -4201934.99949  -3263928.50246  23519036.200    23519043.744
       217.000         163.000
  22976185.587    -4332735.39749  -3338625.28045  22976185.598    22976191.510
       222.000         162.000
  23966356.344    -3904089.89549  -2996946.89045  23966356.826    23966365.415
       209.000         147.000
  23704699.798    -8294460.07649  -6446904.49045  23704700.098    23704704.190
       214.000         148.000
 03  4 16  1 45  0.0000000  0  8G11G25G14G23G31G15G 3G18
  23134834.781    -9282260.92749  -7222628.04046  23134834.807    23134839.641
       222.000         167.000
  21958872.420   -15333669.06849 -11727742.66147  21958871.909    21958877.664
       234.000         190.000
  20752993.012   -22315950.84649 -17377443.32447  20752992.962    20752996.799
       242.000         211.000
  23745905.948    -6231204.82449  -4840450.05945  23745904.982    23745912.530
       211.000         151.000
  23530385.732    -4142294.65549  -3217455.52845  23530386.133    23530391.544
       217.000         161.000
  22995850.869    -4229393.93749  -3258099.51446  22995850.844    22995858.314
       222.000         163.000
  23981113.702    -3826538.56649  -2936517.30845  23981113.031    23981122.202
       210.000         148.000
  23717269.019    -8228408.32249  -6395435.61645  23717269.346    23717273.483
       215.000         149.000
 03  4 16  1 45 30.0000000  0  8G11G25G14G23G31G15G 3G18
  23118553.709    -9367818.57549  -7289296.30546  23118553.319    23118557.498
       224.000         167.000
  21943644.737   -15413690.43949 -11790096.90447  21943644.581    21943650.203
       233.000         191.000
  20761807.267   -22269631.63749 -17341350.43147  20761806.800    20761810.861
       242.000         211.000
  23755964.550    -6178346.15049  -4799261.51545  23755964.758    23755970.819
       213.000         150.000
  23541788.961    -4082371.01149  -3170761.82445  23541788.709    23541794.927
       215.000         160.000
  23015562.932    -4125807.01749  -3177382.48246  23015563.667    23015569.651
       221.000         163.000
  23995882.587    -3748928.45149  -2876041.94545  23995883.895    23995890.625
       215.000         151.000
  23729859.431    -8162246.09849  -6343880.65345  23729858.351    23729865.634
       217.000         151.000
 03  4 16  1 46  0.0000000  0  8G11G25G14G23G31G15G 3G18
  23102324.195    -9453105.33049  -7355753.48146  23102324.324    23102328.780
       222.000         167.000
  21928477.918   -15493392.10949 -11852202.04147  21928477.841    21928483.859
       234.000         191.000
  20770678.208   -22223014.41849 -17305025.32847  20770678.289    20770681.873
       241.000         210.000
  23766042.468    -6125387.13749  -4757994.78645  23766042.551    23766049.069
       212.000         149.000
  23553245.552    -4022165.73049  -3123848.66145  23553245.278    23553252.205
       215.000         159.000
  23035321.546    -4021975.38949  -3096474.77946  23035321.249    23035328.088
       218.000         163.000
  24010662.489    -3671261.47049  -2815522.30345  24010662.854    24010669.655
       212.000         149.000
  23742471.041    -8095972.06749  -6292238.57745  23742471.909    23742475.584
       214.000         149.000
 03  4 16  1 46 30.0000000  0  8G11G25G14G23G31G15G 3G18
  23086146.592    -9538118.43849  -7421997.42546  23086145.904    23086150.783
       221.000         166.000
  21913372.553   -15572771.35249 -11914055.94547  21913372.438    21913377.876
       234.000         191.000
  20779605.687   -22176100.45749 -17268469.00047  20779605.508    20779609.271
       241.000         210.000
  23776139.600    -6072326.92149  -4716649.19945  23776139.621    23776146.289
       211.000         149.000
  23564755.309    -3961681.33949  -3076718.02745  23564755.599    23564761.770
       216.000         159.000
  23055126.236    -3917901.08949  -3015377.98345  23055125.629    23055132.883
       215.000         162.000
  24025452.404    -3593540.26549  -2754960.38845  24025451.346    24025460.789
       210.000         148.000
  23755103.968    -8029585.61849  -6240508.91845  23755103.214    23755108.551
       214.000         148.000
 03  4 16  1 47  0.0000000  0  8G11G25G14G23G31G15G 3G18
  23070021.594    -9622855.41649  -7488026.20746  23070020.937    23070026.485
       222.000         167.000
  21898328.877   -15651826.53849 -11975657.34247  21898328.792    21898334.217
       234.000         190.000
  20788589.087   -22128892.26049 -17231683.38947  20788588.969    20788592.566
       242.000         210.000
  23786256.040    -6019165.53849  -4675224.76145  23786256.028    23786261.815
       213.000         148.000
  23576317.715    -3900921.39849  -3029372.65145  23576317.935    23576323.028
       216.000         157.000
  23074976.512    -3813586.78749  -2934094.18045  23074975.907    23074983.728
       214.000         161.000
  24040251.907    -3515768.03549  -2694358.71245  24040252.190    24040260.635
       212.000         151.000
  23767758.365    -7963086.90749  -6188691.77745  23767757.184    23767763.632
       214.000         148.000
 03  4 16  1 47 30.0000000  0  8G11G25G14G23G31G15G 3G18
  23053949.590    -9707314.65349  -7553838.55446  23053949.693    23053953.982
       225.000         167.000
  21883347.222   -15730555.03649 -12037004.16047  21883346.574    21883352.573
       233.000         190.000
  20797628.089   -22081392.33149 -17194670.46247  20797628.012    20797631.914
       241.000         211.000
  23796391.794    -5965902.61749  -4633721.21445  23796392.490    23796398.528
       213.000         147.000
  23587931.888    -3839888.95749  -2981814.92945  23587931.445    23587939.079
       214.000         155.000
  23094871.996    -3709034.77449  -2852625.13845  23094870.704    23094878.999
       214.000         159.000
  24055060.847    -3437947.81849  -2633719.64345  24055061.338    24055068.758
       213.000         152.000
  23780433.959    -7896476.05649  -6136787.27845  23780434.298    23780439.066
       213.000         150.000
 03  4 16  1 48  0.0000000  0  8G11G25G14G23G31G15G 3G18
  23037931.106    -9791492.55749  -7619431.68246  23037931.122    23037935.205
       225.000         167.000
  21868428.385   -15808953.34349 -12098093.68947  21868428.362    21868433.985
       233.000         191.000
  20806722.350   -22033601.72649 -17157431.04147  20806722.126    20806726.200
       241.000         211.000
  23806547.177    -5912536.48849  -4592137.26745  23806547.030    23806552.135
       213.000         148.000
  23599597.379    -3778585.93249  -2934046.38245  23599595.830    23599604.863
       213.000         153.000
  23114812.581    -3604246.07549  -2770971.67045  23114811.639    23114819.234
       214.000         157.000
  24069878.365    -3360081.46549  -2573044.63545  24069877.890    24069886.284
       211.000         151.000
  23793131.232    -7829751.69249  -6084794.30045  23793131.528    23793136.628
       215.000         150.000
 03  4 16  1 48 30.0000000  0  8G11G25G14G23G31G15G 3G18
  23021966.436    -9875387.75049  -7684804.54446  23021966.005    23021971.089
       226.000         167.000
  21853572.724   -15887019.96749 -12158924.75147  21853572.447    21853578.294
       233.000         193.000
  20815871.350   -21985523.35649 -17119967.38147  20815871.102    20815875.184
       241.000         211.000
  23816722.010    -5859067.45549  -4550473.11645  23816721.537    23816728.061
       211.000         149.000
  23611313.701    -3717016.04749  -2886069.92145  23611312.918    23611320.566
       212.000         153.000
  23134797.594    -3499223.81449  -2689136.19445  23134796.763    23134804.082
       214.000         156.000
  24084703.587    -3282172.93449  -2512336.76045  24084703.647    24084711.665
       206.000         147.000
  23805849.946    -7762914.80949  -6032713.63545  23805849.323    23805854.629
       216.000         149.000
 03  4 16  1 49  0.0000000  0  8G11G25G14G23G31G15G 3G18
  23006056.049    -9958997.50949  -7749954.98746  23006055.209    23006060.912
       224.000         168.000
  21838780.696   -15964752.22349 -12219495.27447  21838780.687    21838786.514
       235.000         193.000
  20825074.769   -21937158.96049 -17082280.84347  20825074.251    20825078.668
       241.000         210.000
  23826916.422    -5805494.77049  -4508728.18645  23826915.859    23826923.524
       209.000         150.000
  23623080.344    -3655181.88849  -2837887.51445  23623080.192    23623086.632
       212.000         153.000
  23154826.695    -3393969.63349  -2607119.98545  23154826.167    23154833.773
       216.000         156.000
  24099536.793    -3204224.54449  -2451597.82245  24099538.127    24099545.493
       212.000         148.000
  23818590.144    -7695964.64849  -5980544.72245  23818589.963    23818596.286
       216.000         150.000
 03  4 16  1 49 30.0000000  0  8G11G25G14G23G31G15G 3G18
  22990200.548   -10042318.41049  -7814880.34546  22990200.445    22990204.278
       226.000         168.000
  21824052.960   -16042146.76049 -12279802.64947  21824053.112    21824058.515
       233.000         193.000
  20834332.439   -21888509.61649 -17044372.26947  20834332.202    20834335.999
       241.000         209.000
  23837130.873    -5751816.97449  -4466901.36645  23837130.748    23837137.573
       210.000         150.000
  23634896.818    -3593085.64149  -2789500.87945  23634896.901    23634903.525
       212.000         153.000
  23174899.760    -3288484.85649  -2524924.09445  23174899.071    23174906.668
       216.000         156.000
  24114377.505    -3126238.48249  -2390829.53545  24114378.243    24114386.259
       207.000         148.000
  23831351.966    -7628900.42049  -5928286.89145  23831351.559    23831357.984
       216.000         151.000
 03  4 16  1 50  0.0000000  0  8G11G25G14G23G31G15G 3G18
  22974400.207   -10125349.23649  -7879579.65946  22974400.484    22974405.172
       227.000         169.000
  21809389.688   -16119202.39049 -12339845.94347  21809389.604    21809395.151
       234.000         192.000
  20843643.757   -21839578.29349 -17006243.96947  20843643.426    20843647.315
       241.000         209.000
  23847365.228    -5698034.43149  -4424992.93645  23847364.613    23847370.564
       210.000         149.000
  23646762.466    -3530731.09049  -2740912.93945  23646762.387    23646768.258
       213.000         151.000
  23195016.115    -3182772.68049  -2442551.00545  23195015.565    23195024.859
       217.000         156.000
  24129224.227    -3048218.54249  -2330034.86745  24129223.546    24129233.059
       208.000         148.000
  23844135.459    -7561722.70149  -5875940.66045  23844135.099    23844140.962
       216.000         151.000
 03  4 16  1 50 30.0000000  0  8G11G25G14G23G31G15G 3G18
  22958655.629   -10208087.39649  -7944050.94246  22958655.054    22958661.033
       226.000         170.000
  21794791.527   -16195915.90449 -12399622.65447  21794791.900    21794796.856
       236.000         192.000
  20853008.302   -21790366.93749 -16967897.45147  20853007.923    20853011.773
       241.000         209.000
  23857619.591    -5644146.27749  -4383002.19245  23857618.864    23857626.092
       209.000         147.000
  23658676.624    -3468120.92149  -2692125.83845  23658676.259    23658683.532
       211.000         151.000
  23215175.474    -3076835.06849  -2360002.26345  23215175.319    23215183.884
       218.000         157.000
  24144076.808    -2970167.21349  -2269215.71845  24144077.183    24144085.174
       208.000         147.000
  23856940.545    -7494431.09049  -5823505.68245  23856941.063    23856945.090
       215.000         149.000
 03  4 16  1 51  0.0000000  0  8G11G25G14G23G31G15G 3G18
  22942967.244   -10290529.61949  -8008291.61846  22942967.274    22942972.372
       226.000         170.000
  21780259.131   -16272284.03349 -12459130.23747  21780258.891    21780264.306
       235.000         193.000
  20862425.979   -21740876.75149 -16929333.67347  20862425.783    20862429.741
       240.000         209.000
  23867894.505    -5590151.28349  -4340928.22845  23867894.251    23867900.448
       210.000         148.000
  23670639.248    -3405257.24349  -2643141.20545  23670639.327    23670646.304
       214.000         153.000
  23235377.467    -2970673.41349  -2277278.95245  23235377.793    23235385.325
       217.000         159.000
  24158935.016    -2892086.61349  -2208373.77945  24158935.977    24158942.257
       211.000         145.000
  23869767.534    -7427024.66449  -5770981.22745  23869767.804    23869773.855
       214.000         148.000
 03  4 16  1 51 30.0000000  0  8G11G25G14G23G31G15G 3G18
  22927335.362   -10372675.58049  -8072301.44246  22927335.826    22927340.249
       226.000         169.000
  21765792.503   -16348306.47349 -12518368.44847  21765792.316    21765797.698
       235.000         194.000
  20871895.925   -21691111.67049 -16890555.68747  20871895.657    20871899.699
       241.000         208.000
  23878189.574    -5536050.80549  -4298772.05145  23878189.693    23878196.834
       209.000         149.000
  23682649.218    -3342145.07049  -2593962.91645  23682649.133    23682656.786
       213.000         155.000
  23255621.445    -2864291.65349  -2194384.12145  23255621.428    23255628.351
       217.000         160.000
  24173798.265    -2813981.38549  -2147512.62645  24173799.237    24173806.526
       211.000         149.000
  23882616.123    -7359505.07549  -5718368.59445  23882615.949    23882622.565
       215.000         149.000
 03  4 16  1 52  0.0000000  0  8G11G25G14G23G31G15G 3G18
  22911760.560   -10454521.60949  -8136077.55046  22911761.098    22911765.432
       227.000         170.000
  21751392.288   -16423979.72049 -12577334.55847  21751391.725    21751398.166
       234.000         193.000
  20881418.059   -21641072.36849 -16851564.02647  20881417.815    20881421.725
       240.000         208.000
  23888504.937    -5481842.89249  -4256532.14445  23888504.562    23888511.954
       209.000         148.000
  23694706.131    -3278785.91049  -2544592.16845  23694706.846    23694713.582
       214.000         156.000
  23275907.127    -2757690.76249  -2111318.55845  23275906.975    23275914.570
       217.000         161.000
  24188665.800    -2735853.05249  -2086633.46645  24188664.836    24188674.468
       210.000         148.000
  23895486.761    -7291870.50049  -5665666.36645  23895487.178    23895492.163
       215.000         151.000
 03  4 16  1 52 30.0000000  0  8G11G25G14G23G31G15G 3G18
  22896243.270   -10536065.72849  -8199618.40446  22896243.600    22896248.614
       227.000         171.000
  21737058.930   -16499301.94349 -12636027.14047  21737058.797    21737064.488
       235.000         193.000
  20890991.897   -21590761.52549 -16812360.77447  20890991.987    20890995.864
       241.000         208.000
  23898840.656    -5427527.74349  -4214208.66445  23898841.316    23898846.798
       209.000         146.000
  23706809.512    -3215183.35249  -2495031.75345  23706809.377    23706816.251
       213.000         154.000
  23296233.882    -2650873.72849  -2028084.56645  23296234.043    23296241.404
       215.000         161.000
  24203536.805    -2657705.21849  -2025739.10745  24203536.760    24203545.001
       209.000         146.000
  23908379.018    -7224121.89149  -5612875.29645  23908379.124    23908384.308
       211.000         149.000
 03  4 16  1 53  0.0000000  0  8G11G25G14G23G31G15G 3G18
  22880784.004   -10617304.99449  -8262921.70046  22880784.742    22880788.569
       227.000         172.000
  21722793.012   -16574269.48449 -12694443.36147  21722793.113    21722798.443
       236.000         194.000
  20900617.217   -21540180.26049 -16772946.79947  20900617.154    20900621.087
       241.000         209.000
  23909197.224    -5373103.84549  -4171800.45045  23909196.867    23909205.059
       212.000         148.000
  23718958.544    -3151339.48049  -2445283.30345  23718957.358    23718965.369
       212.000         152.000
  23316601.548    -2543841.68749  -1944683.04045  23316601.283    23316608.845
       216.000         162.000
  24218411.347    -2579539.52249  -1964830.85645  24218411.862    24218419.534
       210.000         146.000
  23921293.112    -7156257.95849  -5559994.34745  23921292.594    23921298.302
       213.000         149.000
 03  4 16  1 53 30.0000000  0  8G11G25G14G23G31G15G 3G18
  22865382.966   -10698237.73549  -8325986.16146  22865382.875    22865387.320
       227.000         172.000
  21708594.848   -16648881.24749 -12752582.36047  21708594.823    21708599.971
       236.000         195.000
  20910293.464   -21489331.75149 -16733324.58147  20910293.675    20910297.087
       242.000         209.000
  23919574.373    -5318571.63949  -4129307.84845  23919573.674    23919582.206
       208.000         149.000
  23731152.757    -3087258.26649  -2395349.94145  23731152.375    23731160.448
       215.000         154.000
  23337009.487    -2436598.03849  -1861116.62945  23337008.485    23337016.401
       217.000         162.000
  24233288.344    -2501360.13549  -1903911.91045  24233288.014    24233296.119
       206.000         144.000
  23934229.022    -7088279.39749  -5507024.09345  23934228.728    23934234.503
       212.000         151.000
 03  4 16  1 54  0.0000000  0  8G11G25G14G23G31G15G 3G18
  22850041.080   -10778859.80849  -8388808.54246  22850040.186    22850046.081
       227.000         172.000
  21694465.109   -16723133.14149 -12810440.92747  21694464.855    21694470.291
       235.000         195.000
  20920020.487   -21438216.14849 -16693494.23247  20920019.962    20920023.751
       241.000         208.000
  23929972.662    -5263928.73549  -4086729.00145  23929972.515    23929980.147
       210.000         150.000
  23743392.088    -3022940.82449  -2345232.50245  23743392.931    23743399.390
       218.000         156.000
  23357457.653    -2329142.78249  -1777385.32045  23357457.389    23357464.267
       217.000         162.000
  24248167.600    -2423167.89449  -1842982.95045  24248167.403    24248176.081
       208.000         143.000
  23947186.978    -7020184.38649  -5453963.08045  23947186.568    23947192.317
       211.000         149.000
 03  4 16  1 54 30.0000000  0  8G11G25G14G23G31G15G 3G18
  22834758.483   -10859170.31049  -8451388.14746  22834758.296    22834762.643
       227.000         171.000
  21680404.149   -16797023.87149 -12868018.06047  21680404.318    21680409.558
       235.000         195.000
  20929797.698   -21386836.60049 -16653458.22347  20929797.453    20929801.268
       241.000         208.000
  23940392.005    -5209175.79149  -4044064.42345  23940391.772    23940398.032
       213.000         149.000
  23755675.626    -2958391.43149  -2294934.33245  23755676.387    23755683.263
       217.000         156.000
  23377945.249    -2221479.69449  -1693492.06945  23377944.876    23377952.832
       218.000         161.000
  24263048.906    -2344966.81949  -1782047.11345  24263049.340    24263057.494
       211.000         147.000
  23960167.041    -6951974.01449  -5400812.18445  23960167.581    23960172.129
       213.000         150.000
 03  4 16  1 55  0.0000000  0  8G11G25G14G23G31G15G 3G18
  22819535.390   -10939168.23249  -8513724.16246  22819535.224    22819539.052
       226.000         171.000
  21666412.110   -16870552.45149 -12925312.99447  21666412.405    21666417.939
       237.000         196.000
  20939624.553   -21335196.43249 -16613219.13047  20939624.080    20939628.386
       241.000         208.000
  23950832.189    -5154313.40649  -4001314.55245  23950832.434    23950838.747
       212.000         149.000
  23768002.392    -2893614.21749  -2244458.63545  23768003.044    23768007.897
       212.000         152.000
  23398471.754    -2113612.02549  -1609439.38745  23398470.706    23398478.437
       217.000         161.000
  24277931.212    -2266761.04349  -1721107.60645  24277929.749    24277939.760
       204.000         146.000
  23973168.966    -6883649.20749  -5347572.11945  23973168.681    23973175.129
       211.000         150.000
 03  4 16  1 55 30.0000000  0  8G11G25G14G23G31G15G 3G18
  22804372.690   -11018848.47149  -8575812.66646  22804372.711    22804376.537
       227.000         170.000
  21652490.083   -16943713.90749 -12982321.88647  21652490.373    21652495.431
       237.000         197.000
  20949501.026   -21283295.02649 -16572776.49147  20949500.952    20949504.842
       241.000         208.000
  23961293.583    -5099338.45849  -3958476.96545  23961293.602    23961299.840
       213.000         150.000
  23780372.521    -2828609.49749  -2193805.62845  23780373.080    23780378.274
       211.000         149.000
  23419037.288    -2005539.25349  -1525226.90745  23419036.948    23419043.959
       218.000         159.000
  24292813.897    -2188550.80249  -1660164.62945  24292811.656    24292820.378
       208.000         141.000
  23986193.061    -6815207.07349  -5294240.61845  23986192.115    23986198.455
       210.000         148.000
 03  4 16  1 56  0.0000000  0  8G11G25G14G23G31G15G 3G18
  22789270.777   -11098209.52949  -8637652.43846  22789270.396    22789274.126
       226.000         170.000
  21638638.033   -17016506.70249 -13039043.48947  21638637.773    21638642.910
       235.000         196.000
  20959426.710   -21231135.15249 -16532132.43247  20959426.481    20959430.302
       240.000         208.000
  23971776.385    -5044251.40249  -3915552.00945  23971775.635    23971782.416
       214.000         150.000
  23792785.021    -2763381.13249  -2142978.33945  23792784.908    23792790.960
       212.000         147.000
  23439641.278    -1897264.60749  -1440857.10245  23439641.054    23439647.827
       216.000         157.000
  24307697.129    -2110339.51549  -1599220.86145  24307697.701    24307705.925
       209.000         143.000
  23999239.241    -6746648.42949  -5240818.34745  23999239.562    23999244.482
       210.000         147.000
 03  4 16  1 56 30.0000000  0  8G11G25G14G23G31G15G 3G18
  22774229.758   -11177250.29449  -8699242.62246  22774229.209    22774234.057
       225.000         170.000
  21624856.246   -17088929.83149 -13095477.04247  21624855.924    21624861.531
       235.000         195.000
  20969400.829   -21178720.40649 -16491289.78047  20969400.816    20969404.521
       240.000         207.000
  23982280.347    -4989053.11849  -3872540.41945  23982279.613    23982286.488
       213.000         149.000
  23805239.191    -2697933.52949  -2091980.22045  23805239.096    23805246.201
       212.000         150.000
  23460282.987    -1788791.80949  -1356332.89745  23460282.694    23460290.613
       216.000         154.000
  24322579.742    -2032131.43049  -1538279.56145  24322579.069    24322589.848
       205.000         145.000
  24012307.467    -6677974.56449  -5187306.28045  24012307.366    24012312.678
       209.000         146.000
 03  4 16  1 57  0.0000000  0  8G11G25G14G23G31G15G 3G18
  22759250.787   -11255965.19449  -8760578.89146  22759250.199    22759255.412
       227.000         171.000
  21611145.925   -17160977.84549 -13151618.30047  21611146.085    21611151.034
       238.000         196.000
  20979423.778   -21126049.49149 -16450247.51247  20979423.627    20979427.322
       240.000         207.000
  23992805.978    -4933739.83749  -3829439.19445  23992805.356    23992812.799
       213.000         149.000
  23817735.212    -2632266.49649  -2040811.15545  23817735.255    23817741.772
       215.000         154.000
  23480962.553    -1680119.66949  -1271653.35045  23480960.279    23480968.546
       214.000         150.000
  24337461.382    -1953926.20249  -1477340.44545  24337461.186    24337470.872
       205.000         143.000
  24025398.170    -6609182.13849  -5133701.79345  24025397.563    24025403.768
       209.000         146.000
 03  4 16  1 57 30.0000000  0  8G11G25G14G23G31G15G 3G18
  22744333.408   -11334356.48949  -8821662.98046  22744332.916    22744337.565
       227.000         172.000
  21597506.655   -17232652.70149 -13207468.79447  21597506.817    21597512.034
       239.000         198.000
  20989494.264   -21073128.75749 -16409010.58347  20989494.106    20989498.193
       241.000         207.000
  24003352.710    -4878315.21449  -3786251.18045  24003353.194    24003360.296
       214.000         149.000
  23830271.760    -2566387.14049  -1989476.63745  23830272.126    23830278.084
       217.000         157.000
  23501678.910    -1571254.82749  -1186823.64245  23501678.097    23501685.974
       213.000         147.000
  24352341.588    -1875730.93949  -1416409.16245  24352343.304    24352349.368
       209.000         143.000
  24038510.802    -6540275.03049  -5080007.97945  24038511.954    24038516.682
       210.000         144.000
 03  4 16  1 58  0.0000000  0  8G11G25G14G23G31G15G 3G18
  22729478.781   -11412418.09849  -8882490.16146  22729479.159    22729483.508
       227.000         173.000
  21583939.437   -17303948.63649 -13263024.02847  21583939.440    21583944.502
       237.000         198.000
  20999612.585   -21019956.61149 -16367577.74347  20999612.341    20999616.622
       240.000         207.000
  24013921.724    -4822775.10249  -3742973.17945  24013921.868    24013928.809
       214.000         150.000
  23842848.820    -2500295.02549  -1937976.33045  23842848.539    23842855.717
       217.000         158.000
  23522432.182    -1462195.97049  -1101842.77045  23522431.559    23522438.531
       209.000         146.000
  24367220.131    -1797544.85449  -1355485.02545  24367219.455    24367228.701
       208.000         141.000
  24051646.053    -6471249.84249  -5026222.18445  24051645.742    24051650.469
       207.000         142.000
 03  4 16  1 58 30.0000000  0  8G11G25G14G23G31G15G 3G18
  22714686.801   -11490150.23949  -8943060.62046  22714686.050    22714691.018
       225.000         174.000
  21570444.264   -17374865.74749 -13318284.06647  21570444.312    21570449.444
       237.000         197.000
  21009777.933   -20966537.43649 -16325952.42147  21009777.734    21009781.771
       241.000         208.000
  24024512.240    -4767121.59449  -3699606.82745  24024512.426    24024519.165
       213.000         150.000
  23855465.335    -2433995.39749  -1886314.32545  23855465.905    23855472.850
       214.000         157.000
  23543221.509    -1352947.59949  -1016714.23245  23543221.867    23543227.707
       212.000         145.000
  24382095.896    -1719373.07649  -1294571.98245  24382095.696    24382104.660
       210.000         141.000
  24064803.121    -6402108.78549  -4972346.07045  24064802.824    24064808.625
       207.000         142.000
 03  4 16  1 59  0.0000000  0  8G11G25G14G23G31G15G 3G18
  22699958.362   -11567548.22449  -9003370.68346  22699958.116    22699962.416
       225.000         174.000
  21557022.060   -17445400.24849 -13373245.96447  21557022.484    21557027.387
       238.000         197.000
  21019990.241   -20912871.44749 -16284134.77147  21019990.074    21019994.004
       240.000         208.000
  24035125.057    -4711352.34249  -3656150.30045  24035125.949    24035132.222
       215.000         151.000
  23868120.912    -2367489.69049  -1834491.72245  23868121.194    23868127.901
       213.000         153.000
  23564046.670    -1243510.67749   -931438.75845  23564046.200    23564054.532
       210.000         144.000
  24396968.703    -1641216.55849  -1233670.83645  24396969.000    24396976.136
       206.000         141.000
  24077982.809    -6332849.46349  -4918377.79845  24077983.049    24077988.304
       207.000         143.000
 03  4 16  1 59 30.0000000  0  8G11G25G14G23G31G15G 3G18
  22685293.728   -11644611.22849  -9063419.73146  22685293.708    22685298.865
       226.000         174.000
  21543672.943   -17515550.71949 -13427908.62647  21543673.205    21543678.157
       240.000         199.000
  21030248.895   -20858961.84249 -16242127.29547  21030249.092    21030252.797
       241.000         207.000
  24045759.652    -4655467.97149  -3612604.08045  24045758.838    24045766.808
       212.000         151.000
  23880814.981    -2300781.85749  -1782511.63245  23880814.856    23880821.410
       211.000         149.000
  23584907.218    -1133888.14749   -846018.67045  23584907.498    23584914.766
       209.000         144.000
  24411837.701    -1563079.09849  -1172784.57445  24411837.956    24411845.772
       204.000         138.000
  24091184.768    -6263473.11549  -4864318.34545  24091184.320    24091190.297
       204.000         141.000
 03  4 16  2  0  0.0000000  0  8G11G25G14G23G31G15G 3G18
  22670693.517   -11721336.13949  -9123205.31946  22670693.665    22670698.395
       228.000         176.000
  21530397.491   -17585313.74549 -13482269.37547  21530397.346    21530402.997
       239.000         200.000
  21040553.819   -20804809.20149 -16199930.42947  21040553.738    21040557.482
       241.000         207.000
  24056416.229    -4599466.52149  -3568966.59945  24056415.650    24056422.809
       210.000         150.000
  23893547.096    -2233873.48149  -1730375.29245  23893545.842    23893554.637
       212.000         149.000
  23605802.885    -1024081.00049   -760454.71545  23605802.073    23605808.616
       211.000         144.000
  24426702.745    -1484962.10149  -1111914.25445  24426703.045    24426710.163
       209.000         138.000
  24104409.140    -6193978.08149  -4810166.42145  24104408.106    24104415.159
       204.000         140.000
 03  4 16  2  0 30.0000000  0  8G11G25G14G23G31G15G 3G18
  22656158.063   -11797721.03149  -9182725.95646  22656158.258    22656162.343
       228.000         176.000
  21517195.948   -17654687.62849 -13536326.89247  21517195.775    21517201.440
       238.000         199.000
  21050904.407   -20750416.33449 -16157546.38347  21050904.222    21050908.307
       241.000         207.000
  24067095.104    -4543348.38049  -3525238.23045  24067094.977    24067101.529
       214.000         150.000
  23906316.664    -2166768.40349  -1678085.66045  23906316.911    23906324.141
       215.000         152.000
  23626733.090     -914092.04149   -674749.09145  23626732.683    23626739.732
       208.000         145.000
  24441563.608    -1406869.14649  -1051062.66145  24441564.207    24441572.381
       212.000         142.000
  24117655.893    -6124365.32649  -4755922.75045  24117657.043    24117661.613
       203.000         139.000
 03  4 16  2  1  0.0000000  0  8G11G25G14G23G31G15G 3G18
  22641687.396   -11873764.45749  -9241980.53346  22641687.666    22641691.645
       228.000         176.000
  21504068.702   -17723670.97149 -13590080.10647  21504068.763    21504073.984
       240.000         199.000
  21061300.146   -20695786.03249 -16114977.32947  21061299.856    21061303.755
       241.000         206.000
  24077796.280    -4487113.71649  -3481419.04245  24077795.349    24077802.866
       213.000         151.000
  23919123.073    -2099470.42949  -1625645.72445  23919123.206    23919130.415
       217.000         156.000
  23647697.186     -803924.55749   -588904.35445  23647696.930    23647703.827
       207.000         146.000
  24456419.122    -1328803.77849   -990232.58945  24456418.474    24456428.660
       207.000         141.000
  24130924.993    -6054635.51249  -4701587.84645  24130924.688    24130930.612
       207.000         140.000
 03  4 16  2  1 30.0000000  0  8G11G25G14G23G31G15G 3G18
  22627282.452   -11949462.22149  -9300965.75546  22627281.769    22627286.816
       227.000         176.000
  21491016.638   -17792260.07449 -13643526.12547  21491016.669    21491021.559
       240.000         200.000
  21071741.073   -20640918.48749 -16072223.39847  21071741.027    21071744.893
       240.000         206.000
  24088519.781    -4430760.44849  -3437507.42045  24088520.304    24088526.986
       209.000         150.000
  23931965.914    -2031981.03249  -1573056.60745  23931966.195    23931972.959
       217.000         158.000
  23668695.134     -693579.24449   -502921.04345  23668694.454    23668702.424
       209.000         148.000
  24471268.709    -1250767.10049   -929424.84545  24471268.693    24471278.775
       208.000         139.000
  24144216.772    -5984786.71849  -4647160.23345  24144217.936    24144223.544
       209.000         143.000
 03  4 16  2  2  0.0000000  0  8G11G25G14G23G31G15G 3G18
  22612943.646   -12024812.58949  -9359680.28346  22612944.075    22612947.029
       227.000         176.000
  21478040.002   -17860453.08449 -13696663.50647  21478040.152    21478045.045
       239.000         200.000
  21082226.669   -20585816.21549 -16029286.57447  21082226.208    21082230.505
       240.000         206.000
  24099266.044    -4374288.25749  -3393503.17945  24099267.145    24099273.224
       211.000         150.000
  23944844.567    -1964303.41149  -1520320.82245  23944844.679    23944851.908
       213.000         156.000
  23689726.572     -583058.80549   -416801.28745  23689726.154    23689733.912
       212.000         151.000
  24486112.611    -1172762.19749   -868641.86545  24486113.157    24486122.858
       209.000         142.000
  24157531.349    -5914819.07949  -4592640.04745  24157531.599    24157536.280
       211.000         144.000
 03  4 16  2  2 30.0000000  0  8G11G25G14G23G31G15G 3G18
  22598671.255   -12099814.11249  -9418123.00046  22598670.866    22598675.722
       227.000         176.000
  21465138.881   -17928248.85249 -13749491.33047  21465138.494    21465144.015
       239.000         200.000
  21092756.335   -20530482.14249 -15986169.12147  21092755.969    21092760.436
       240.000         206.000
  24110035.053    -4317697.48949  -3349406.49745  24110034.760    24110041.887
       210.000         150.000
  23957758.270    -1896441.45649  -1467441.42145  23957758.389    23957765.764
       211.000         154.000
  23710790.800     -472366.21349   -330547.37745  23710790.741    23710797.552
       213.000         152.000
  24500949.875    -1094792.59649   -807886.41745  24500948.896    24500958.699
       208.000         140.000
  24170868.336    -5844733.26549  -4538027.76645  24170868.436    24170873.295
       209.000         144.000
 03  4 16  2  3  0.0000000  0  8G11G25G14G23G31G15G 3G18
  22584465.938   -12174463.73649  -9476291.50946  22584466.040    22584469.700
       228.000         177.000
  21452313.737   -17995644.71849 -13802007.52847  21452313.552    21452319.015
       239.000         200.000
  21103329.824   -20474917.76849 -15942872.20947  21103329.439    21103334.016
       240.000         206.000
  24120826.561    -4260987.43649  -3305216.86745  24120826.389    24120833.797
       213.000         151.000
  23970706.386    -1828397.82749  -1414420.45545  23970707.085    23970713.486
       212.000         152.000
  23731887.393     -361503.35849   -244160.79545  23731887.346    23731895.192
       213.000         154.000
  24515779.826    -1016860.73849   -747160.34045  24515779.959    24515788.547
       209.000         138.000
  24184228.021    -5774528.61149  -4483322.86045  24184229.017    24184233.484
       210.000         145.000
 03  4 16  2  3 30.0000000  0  8G11G25G14G23G31G15G 3G18
  22570327.821   -12248760.06849  -9534184.73146  22570327.617    22570332.057
       228.000         177.000
  21439565.187   -18062638.67549 -13854210.57447  21439565.298    21439570.631
       240.000         201.000
  21113946.784   -20419125.09349 -15899397.40947  21113946.829    21113950.854
       241.000         206.000
  24131641.019    -4204157.63749  -3260933.95745  24131642.152    24131648.649
       214.000         151.000
  23983688.834    -1760175.66349  -1361260.36045  23983689.567    23983695.723
       215.000         151.000
  23753015.811     -250472.73049   -157643.48345  23753015.609    23753023.534
       216.000         155.000
  24530602.270     -938969.21949   -686465.71245  24530601.968    24530612.300
       209.000         140.000
  24197610.140    -5704205.45349  -4428525.64245  24197610.403    24197614.899
       206.000         143.000
 03  4 16  2  4  0.0000000  0  8G11G25G14G23G31G15G 3G18
  22556257.394   -12322700.31049  -9591800.49046  22556257.308    22556260.869
       227.000         176.000
  21426893.482   -18129228.55649 -13906098.75847  21426893.670    21426898.619
       240.000         201.000
  21124606.940   -20363106.01949 -15855746.18747  21124607.029    21124611.226
       241.000         207.000
  24142478.422    -4147207.54149  -3216557.30045  24142478.180    24142484.493
       210.000         149.000
  23996704.823    -1691777.81949  -1307963.37445  23996705.177    23996712.201
       216.000         153.000
  23774175.944     -139276.35349    -70997.00245  23774176.100    23774182.934
       217.000         156.000
  24545416.295     -861120.92449   -625804.76545  24545416.362    24545425.425
       208.000         140.000
  24211014.478    -5633763.72649  -4373636.01945  24211013.134    24211019.702
       209.000         141.000
 03  4 16  2  4 30.0000000  0  8G11G25G14G23G31G15G 3G18
  22542255.404   -12396280.90749  -9649136.00946  22542255.231    22542259.346
       227.000         176.000
  21414299.350   -18195410.99749 -13957669.45947  21414299.239    21414304.588
       240.000         201.000
  21135310.053   -20306861.39049 -15811919.20547  21135310.129    21135313.832
       241.000         207.000
  24153338.863    -4090135.41849  -3172085.53445  24153339.121    24153346.275
       210.000         150.000
  24009753.638    -1623206.01749  -1254530.84745  24009752.654    24009761.468
       214.000         155.000
  23795367.317      -27915.42449     15777.69745  23795366.780    23795374.191
       216.000         156.000
  24560221.798     -783317.04549   -565178.40145  24560222.512    24560231.402
       210.000         142.000
  24224441.904    -5563201.74449  -4318652.69445  24224442.068    24224447.763
       211.000         144.000
 03  4 16  2  5  0.0000000  0  8G11G25G14G23G31G15G 3G18
  22528322.108   -12469500.80049  -9706190.45646  22528322.737    22528325.565
       228.000         177.000
  21401783.001   -18261185.12249 -14008921.97747  21401783.204    21401788.021
       240.000         201.000
  21146055.435   -20250394.33849 -15767918.90947  21146055.351    21146059.117
       241.000         206.000
  24164222.464    -4032941.92749  -3127519.21545  24164222.427    24164229.294
       209.000         150.000
  24022834.637    -1554464.68549  -1200966.19945  24022834.847    24022842.197
       213.000         156.000
  23816589.237       83606.44649    102677.79845  23816588.489    23816596.114
       216.000         156.000
  24575018.432     -705561.63849   -504589.85545  24575019.578    24575027.684
       211.000         143.000
  24237892.007    -5492520.68049  -4263576.57945  24237891.147    24237897.396
       210.000         144.000
 03  4 16  2  5 30.0000000  0  8G11G25G14G23G31G15G 3G18
  22514457.845   -12542358.02049  -9762962.28846  22514457.815    22514461.800
       229.000         178.000
  21389344.701   -18326548.72549 -14059854.60747  21389344.245    21389349.392
       240.000         201.000
  21156842.780   -20193706.69549 -15723746.71547  21156842.393    21156846.419
       241.000         206.000
  24175129.195    -3975626.54249  -3082857.89245  24175129.056    24175136.004
       208.000         148.000
  24035947.371    -1485556.60249  -1147271.60945  24035947.290    24035954.472
       210.000         155.000
  23837841.525      195287.22649    189701.73245  23837841.166    23837848.706
       216.000         155.000
  24589805.229     -627857.20449   -444041.04745  24589805.672    24589812.133
       208.000         140.000
  24251365.036    -5421720.12049  -4208407.35945  24251364.780    24251371.369
       213.000         146.000
 03  4 16  2  6  0.0000000  0  8G11G25G14G23G31G15G 3G18
  22500663.099   -12614849.67149  -9819449.28346  22500663.225    22500666.879
       229.000         178.000
  21376984.900   -18391499.26649 -14110465.38447  21376984.612    21376989.882
       240.000         201.000
  21167671.790   -20136799.91949 -15679403.78247  21167671.556    21167675.423
       240.000         206.000
  24186059.263    -3918188.31949  -3038100.86345  24186058.740    24186065.627
       209.000         147.000
  24049091.454    -1416484.31949  -1093449.08045  24049091.990    24049097.967
       208.000         151.000
  23859123.614      307125.08149    276848.06345  23859123.373    23859131.306
       216.000         155.000
  24604581.912     -550205.99949   -383533.68145  24604582.772    24604590.392
       208.000         139.000
  24264860.953    -5350799.71349  -4153144.73745  24264860.926    24264867.026
       210.000         146.000
 03  4 16  2  6 30.0000000  0  8G11G25G14G23G31G15G 3G18
  22486938.357   -12686974.11149  -9875650.12746  22486938.426    22486942.706
       230.000         179.000
  21364704.096   -18456035.12849 -14160753.03747  21364704.003    21364709.049
       240.000         202.000
  21178542.003   -20079676.38749 -15634891.93747  21178541.791    21178545.666
       239.000         205.000
  24197012.734    -3860627.26549  -2993248.12545  24197012.107    24197019.892
       208.000         146.000
  24062266.124    -1347251.39949  -1039501.38245  24062265.740    24062272.450
       211.000         149.000
  23880435.067      419117.12649    364114.54045  23880434.629    23880441.027
       214.000         154.000
  24619347.922     -472611.17749   -323070.22845  24619348.210    24619356.197
       207.000         139.000
  24278379.418    -5279759.78449  -4097788.98445  24278379.588    24278385.114
       211.000         144.000
 03  4 16  2  7  0.0000000  0  8G11G25G14G23G31G15G 3G18
  22473284.030   -12758728.09549  -9931562.30246  22473283.989    22473287.834
       229.000         179.000
  21352502.811   -18520153.67049 -14210715.50547  21352502.660    21352507.853
       240.000         203.000
  21189453.151   -20022337.71149 -15590212.46147  21189452.707    21189456.801
       239.000         205.000
  24207989.863    -3802942.42449  -2948298.94245  24207990.447    24207997.618
       209.000         146.000
  24075470.852    -1277860.24549   -985430.44045  24075471.058    24075477.616
       213.000         148.000
  23901775.243      531261.60049    451499.79845  23901774.216    23901782.378
       212.000         153.000
  24634102.550     -395074.90049   -262652.42845  24634099.738    24634110.625
       204.000         135.000
  24291920.720    -5208599.89949  -4042339.76145  24291920.673    24291926.256
       211.000         143.000
 03  4 16  2  7 30.0000000  0  8G11G25G14G23G31G15G 3G18
  22459700.620   -12830109.32149  -9987184.02046  22459700.423    22459704.011
       231.000         178.000
  21340381.195   -18583852.66749 -14260351.03847  21340380.822    21340386.837
       241.000         203.000
  21200404.914   -19964785.39749 -15545366.51047  21200404.965    21200408.593
       243.000         204.000
  24218990.929    -3745132.74849  -2903252.47645  24218991.001    24218998.112
       213.000         146.000
  24088705.147    -1208313.40349   -931238.19445  24088704.737    24088712.358
       214.000         148.000
  23923144.185      643556.85549    539002.54945  23923143.842    23923151.600
       214.000         152.000
  24648845.608     -317599.49549   -202282.09545  24648845.689    24648854.245
       205.000         135.000
  24305485.037    -5137319.33449  -3986796.50045  24305484.183    24305491.873
       209.000         142.000
 03  4 16  2  8  0.0000000  0  8G11G25G14G23G31G15G 3G18
  22446188.256   -12901116.88349 -10042514.56646  22446187.818    22446192.389
       229.000         178.000
  21328339.530   -18647131.44449 -14309659.13647  21328339.628    21328344.838
       240.000         203.000
  21211396.907   -19907022.58449 -15500356.52347  21211396.796    21211400.735
       241.000         205.000
  24230015.388    -3687199.29549  -2858109.57245  24230016.079    24230021.445
       208.000         144.000
  24101968.205    -1138615.30449   -876928.02445  24101967.285    24101975.649
       208.000         149.000
  23944541.118      755998.98549    626619.74645  23944540.659    23944548.545
       213.000         151.000
  24663576.433     -240188.82349   -141962.13745  24663576.501    24663584.416
       204.000         136.000
  24319071.737    -5065919.30649  -3931160.13945  24319071.887    24319078.140
       206.000         141.000
 03  4 16  2  8 30.0000000  0  8G11G25G14G23G31G15G 3G18
  22432747.777   -12971746.93549 -10097550.94146  22432748.062    22432751.249
       230.000         178.000
  21316378.569   -18709986.58449 -14358637.13347  21316378.598    21316383.321
       240.000         202.000
  21222428.728   -19849049.76549 -15455182.90847  21222428.588    21222432.645
       241.000         205.000
  24241063.864    -3629139.95449  -2812868.55745  24241063.491    24241069.914
       208.000         143.000
  24115259.677    -1068767.50249   -822501.17645  24115260.113    24115266.985
       208.000         150.000
  23965966.014      868587.22849    714350.79445  23965966.227    23965974.460
       212.000         149.000
  24678294.364     -162844.15549    -81693.65245  24678291.754    24678303.670
       201.000         133.000
  24332681.682    -4994398.33949  -3875429.56045  24332682.225    24332687.603
       208.000         140.000
 03  4 16  2  9  0.0000000  0  8G11G25G14G23G31G15G 3G18
  22419379.459   -13041998.17249 -10152292.14646  22419379.267    22419383.088
       229.000         179.000
  21304498.472   -18772416.81149 -14407284.03647  21304498.603    21304503.359
       242.000         202.000
  21233500.103   -19790869.37749 -15409847.54147  21233500.104    21233503.745
       242.000         204.000
  24252136.066    -3570955.09049  -2767529.73845  24252135.606    24252142.735
       208.000         144.000
  24128579.241     -998773.76949   -767960.61545  24128579.202    24128587.614
       208.000         151.000
  23987418.224      981318.58049    802193.34845  23987418.596    23987425.863
       212.000         148.000
  24692999.103      -85568.70749    -21479.06445  24692998.913    24693008.029
       205.000         134.000
  24346314.534    -4922756.98449  -3819605.16245  24346313.488    24346319.848
       206.000         140.000
 03  4 16  2  9 30.0000000  0  8G11G25G14G23G31G15G 3G18
  22406083.497   -13111868.35949 -10206736.41446  22406083.081    22406087.521
       230.000         179.000
  21292699.763   -18834419.80949 -14455598.02647  21292699.761    21292705.067
       241.000         203.000
  21244610.576   -19732483.55149 -15364352.09747  21244610.232    21244614.494
       240.000         204.000
  24263232.136    -3512644.09549  -2722092.62145  24263231.854    24263239.318
       206.000         141.000
  24141925.836     -928636.75149   -713308.43145  24141925.723    24141932.700
       212.000         152.000
  24008897.330     1094190.82749    890145.70545  24008895.907    24008904.491
       211.000         147.000
  24707690.713       -8364.85949     38679.66345  24707691.981    24707700.153
       207.000         137.000
  24359970.253    -4850995.06849  -3763686.80345  24359971.103    24359977.539
       210.000         139.000
 03  4 16  2 10  0.0000000  0  8G11G25G14G23G31G15G 3G18
  22392860.622   -13181354.70849 -10260881.59146  22392859.866    22392864.554
       231.000         179.000
  21280982.755   -18895993.19749 -14503577.24647  21280982.522    21280988.133
       241.000         204.000
  21255759.821   -19673893.64349 -15318697.63247  21255759.484    21255763.834
       240.000         204.000
  24274352.484    -3454206.05649  -2676556.50445  24274352.296    24274359.986
       209.000         143.000
  24155299.225     -858359.20249   -658546.76745  24155299.734    24155306.321
       215.000         151.000
  24030402.783     1207202.01449    978206.32845  24030401.939    24030409.240
       209.000         144.000
  24722368.141       68764.87449     98780.68645  24722369.100    24722376.859
       205.000         136.000
  24373649.306    -4779112.17149  -3707674.19745  24373649.763    24373656.206
       210.000         140.000
 03  4 16  2 10 30.0000000  0  8G11G25G14G23G31G15G 3G18
  22379711.094   -13250455.91149 -10314726.66346  22379710.998    22379714.398
       229.000         180.000
  21269347.534   -18957135.98449 -14551220.92847  21269347.247    21269352.761
       240.000         204.000
  21266947.416   -19615102.43949 -15272886.30947  21266947.319    21266951.507
       239.000         203.000
  24285497.141    -3395641.19549  -2630921.59945  24285495.941    24285503.201
       208.000         144.000
  24168698.864     -787944.90149   -603678.53845  24168698.748    24168705.247
       211.000         149.000
  24051933.869     1320348.99649   1066372.75745  24051931.774    24051942.373
       207.000         142.000
  24737030.925      145817.36349    158821.48745  24737031.230    24737040.868
       205.000         138.000
  24387351.074    -4707109.01049  -3651567.89345  24387350.878    24387357.485
       205.000         137.000
 03  4 16  2 11  0.0000000  0  8G11G25G14G23G31G15G 3G18
  22366635.059   -13319170.53149 -10368270.49346  22366634.891    22366638.852
       231.000         180.000
  21257794.490   -19017847.19549 -14598528.32247  21257794.595    21257799.565
       242.000         204.000
  21278172.785   -19556112.47849 -15226920.11447  21278172.568    21278177.107
       240.000         203.000
  24296665.727    -3336949.91449  -2585188.16745  24296664.829    24296672.322
       209.000         145.000
  24182123.534     -717397.63449   -548706.70145  24182122.705    24182130.787
       205.000         146.000
  24073490.090     1433628.57749   1154642.52545  24073490.359    24073497.477
       207.000         140.000
  24751678.412      222789.00449    218799.31545  24751679.869    24751687.773
       206.000         139.000
  24401075.716    -4634985.99449  -3595368.15745  24401075.947    24401082.255
       205.000         136.000
 03  4 16  2 11 30.0000000  0  8G11G25G14G23G31G15G 3G18
  22353633.522   -13387493.86449 -10421509.43646  22353633.941    22353637.667
       230.000         181.000
  21246324.618   -19078121.88649 -14645495.58547  21246324.715    21246329.319
       243.000         204.000
  21289436.156   -19496923.13949 -15180798.56347  21289435.920    21289439.976
       241.000         203.000
  24307858.805    -3278129.32449  -2539353.98445  24307857.940    24307867.470
       211.000         147.000
  24195573.295     -646717.78249   -493631.52945  24195573.073    24195580.920
       209.000         145.000
  24095071.865     1547041.15749   1243015.91145  24095071.879    24095078.966
       205.000         138.000
  24766310.573      299680.03449    278714.28045  24766309.800    24766317.987
       200.000         137.000
  24414823.536    -4562740.36249  -3539072.88545  24414821.101    24414828.674
       201.000         133.000
 03  4 16  2 12  0.0000000  0  8G11G25G14G23G31G15G 3G18
  22340706.625   -13455424.84649 -10474442.65046  22340706.411    22340710.777
       230.000         181.000
  21234937.943   -19137959.57949 -14692122.33847  21234938.028    21234942.844
       241.000         204.000
  21300736.927   -19437537.31549 -15134523.90547  21300736.597    21300741.036
       239.000         203.000
  24319076.468    -3219180.05649  -2493419.50445  24319076.504    24319082.964
       212.000         147.000
  24209047.869     -575909.45849   -438456.22245  24209047.425    24209054.576
       211.000         146.000
  24116678.191     1660583.24149   1331490.23445  24116678.221    24116685.751
       205.000         135.000
  24780926.127      376486.64249    338563.53345  24780925.282    24780933.541
       202.000         132.000
  24428594.357    -4490373.58549  -3482683.24644  24428595.245    24428600.922
       202.000         131.000
 03  4 16  2 12 30.0000000  0  8G11G25G14G23G31G15G 3G18
  22327854.862   -13522961.23549 -10527068.39646  22327855.148    22327859.311
       230.000         181.000
  21223634.647   -19197358.25149 -14738406.96847  21223634.474    21223639.683
       240.000         204.000
  21312074.655   -19377956.94649 -15088097.66047  21312074.658    21312078.604
       239.000         202.000
  24330318.771    -3160101.87149  -2447384.59245  24330318.871    24330325.732
       212.000         146.000
  24222546.243     -504975.77049   -383183.24145  24222545.910    24222553.355
       214.000         148.000
  24138308.899     1774252.62349   1420063.72945  24138309.326    24138317.201
       203.000         133.000
  24795525.692      453206.25949    398344.98545  24795528.113    24795533.209
       202.000         136.000
  24442388.408    -4417885.46049  -3426199.00244  24442388.996    24442394.070
       200.000         129.000
 03  4 16  2 13  0.0000000  0  8G11G25G14G23G31G15G 3G18
  22315078.447   -13590101.82749 -10579385.72346  22315078.832    22315082.914
       230.000         182.000
  21212415.027   -19256317.09549 -14784348.87847  21212415.071    21212420.065
       242.000         204.000
  21323448.872   -19318185.10549 -15041522.19547  21323448.844    21323453.015
       239.000         201.000
  24341585.602    -3100894.95249  -2401249.36345  24341584.202    24341593.168
       212.000         146.000
  24236067.677     -433920.53749   -327815.58245  24236067.030    24236075.171
       214.000         149.000
  24159963.327     1888046.12449   1508733.93744  24159962.586    24159971.611
       202.000         130.000
  24810108.041      529835.52349    458055.94545  24810107.680    24810117.792
       198.000         136.000
  24456205.221    -4345277.10749  -3369621.09644  24456205.471    24456211.787
       197.000         127.000
 03  4 16  2 13 30.0000000  0  7G11G25G14G23G31G15G18
  22302378.254   -13656841.77349 -10631390.85746  22302378.545    22302382.657
       231.000         182.000
  21201280.202   -19314831.27849 -14829944.30247  21201280.149    21201285.131
       242.000         205.000
  21334859.690   -19258220.72749 -14994796.71247  21334859.244    21334863.856
       238.000         201.000
  24352877.306    -3041556.18349  -2355011.38945  24352877.294    24352884.829
       208.000         147.000
  24249612.238     -362744.09449   -272353.45945  24249612.373    24249618.977
       211.000         147.000
  24181641.116     2001963.85749   1597500.94144  24181639.529    24181647.530
       201.000         129.000
  24470045.478    -4272545.43149  -3312947.10744  24470045.330    24470051.214
       202.000         125.000
 03  4 16  2 14  0.0000000  0  7G11G25G14G23G31G15G18
  22289754.973   -13723178.11649 -10683081.49146  22289755.064    22289759.630
       234.000         184.000
  21190230.435   -19372898.26149 -14875191.27147  21190230.039    21190235.401
       244.000         205.000
  21346307.007   -19198064.40849 -14947921.66447  21346306.729    21346311.054
       240.000         200.000
  24364194.396    -2982084.20049  -2308669.60545  24364193.950    24364202.150
       210.000         147.000
  24263179.443     -291448.23349   -216798.30745  24263178.881    24263185.694
       211.000         146.000
  24203342.311     2116004.87649   1686364.07244  24203339.767    24203351.192
       200.000         126.000
  24483909.885    -4199689.19349  -3256176.06144  24483909.922    24483915.090
       199.000         124.000
 03  4 16  2 14 30.0000000  0  7G11G25G14G23G31G15G18
  22277207.989   -13789113.28549 -10734459.51746  22277207.550    22277211.639
       232.000         184.000
  21179265.076   -19430520.86649 -14920091.95747  21179264.770    21179270.166
       242.000         205.000
  21357789.661   -19137722.79449 -14900902.23147  21357789.440    21357793.337
       239.000         200.000
  24375536.014    -2922483.21749  -2262227.33345  24375535.908    24375544.138
       209.000         147.000
  24276767.673     -220040.81049   -161156.20145  24276767.244    24276775.149
       206.000         146.000
  24225065.400     2230161.94749   1775317.57944  24225063.897    24225075.503
       196.000         123.000
  24497796.945    -4126713.01749  -3199311.52144  24497796.488    24497801.339
       200.000         123.000
 03  4 16  2 15  0.0000000  0  7G11G25G14G23G31G15G18
  22264737.813   -13854643.96249 -10785522.39146  22264737.503    22264741.825
       232.000         184.000
  21168384.861   -19487696.10349 -14964644.05447  21168385.092    21168389.895
       243.000         206.000
  21369307.443   -19077196.73549 -14853739.07847  21369307.346    21369310.882
       239.000         200.000
  24386902.572    -2862751.82649  -2215683.42745  24386901.639    24386909.797
       213.000         147.000
  24290376.582     -148523.73849   -105428.65045  24290376.232    24290385.318
       208.000         145.000
  24246810.511     2344433.76549   1864360.50644  24246809.133    24246817.082
       196.000         122.000
  24511707.044    -4053615.89048  -3142352.76044  24511707.848    24511711.786
       193.000         121.000
 03  4 16  2 15 30.0000000  0  7G11G25G14G23G31G15G18
  22252345.134   -13919767.19649 -10836267.76146  22252345.042    22252348.916
       232.000         185.000
  21157590.586   -19544421.37949 -15008845.54447  21157590.765    21157595.378
       243.000         207.000
  21380860.074   -19016487.40049 -14806433.11247  21380859.579    21380863.850
       238.000         200.000
  24398294.201    -2802888.58149  -2169036.77045  24398294.023    24398301.660
       211.000         148.000
  24304006.366      -76899.09749    -49617.26745  24304006.446    24304014.397
       210.000         146.000
  24268577.378     2458819.04248   1953491.87344  24268576.464    24268585.573
       194.000         118.000
  24525639.499    -3980397.07549  -3085299.17244  24525635.546    24525644.598
       196.000         118.000
 03  4 16  2 16  0.0000000  0  7G11G25G14G23G31G15G18
  22240030.474   -13984481.56849 -10886694.52446  22240030.467    22240034.204
       233.000         185.000
  21146881.981   -19600695.58949 -15052695.54447  21146881.459    21146886.621
       240.000         205.000
  21392447.049   -18955597.08949 -14758986.12547  21392446.827    21392450.981
       238.000         200.000
  24409710.943    -2742893.74349  -2122287.58745  24409711.259    24409717.863
       210.000         147.000
  24317655.993       -5170.41449      6275.16245  24317656.986    24317663.787
       214.000         149.000
  24290365.490     2573314.82548   2042709.28644  24290365.440    24290370.575
       194.000         114.000
  24539596.009    -3907056.89948  -3028151.01144  24539597.780    24539602.905
       193.000         120.000
 03  4 16  2 16 30.0000000  0  7G11G25G14G23G31G15G18
  22227793.638   -14048786.81549 -10936802.49646  22227793.449    22227798.277
       233.000         186.000
  21136258.915   -19656518.71449 -15096194.04547  21136258.403    21136263.544
       240.000         203.000
  21404067.898   -18894529.30449 -14711400.84547  21404067.712    21404071.779
       239.000         200.000
  24421152.363    -2682768.80349  -2075437.01745  24421152.448    24421160.025
       211.000         145.000
  24331324.479       66657.64449     62245.03545  24331324.075    24331331.914
       211.000         149.000
  24312174.000     2687917.12948   2132009.73944  24312174.142    24312177.085
       190.000         112.000
  24553574.896    -3833597.39148  -2970909.83644  24553573.565    24553580.959
       187.000         116.000
 03  4 16  2 17  0.0000000  0  7G11G25G14G23G31G15G18
  22215635.724   -14112677.12849 -10986587.14246  22215635.306    22215640.018
       233.000         187.000
  21125722.818   -19711885.60149 -15139337.03347  21125723.156    21125727.948
       243.000         205.000
  21415722.777   -18833282.28149 -14663675.89047  21415722.354    21415726.637
       239.000         200.000
  24432619.405    -2622509.56149  -2028481.80045  24432619.180    24432626.802
       206.000         143.000
  24345011.936      138585.49549    118292.65245  24345012.329    24345018.763
       209.000         146.000
  24334002.607     2802626.80448   2221393.85944  24334004.070    24334009.247
       192.000         110.000
  24567577.142    -3760014.80048  -2913572.78844  24567576.541    24567584.172
       193.000         115.000
 03  4 16  2 17 30.0000000  0  7G11G25G14G23G31G15G18
  22203556.937   -14176151.44949 -11036047.64646  22203556.698    22203561.350
       232.000         186.000
  21115274.067   -19766795.00849 -15182123.55747  21115274.700    21115279.303
       243.000         208.000
  21427411.285   -18771858.74249 -14615813.40247  21427411.052    21427415.395
       238.000         200.000
  24444111.657    -2562116.53149  -1981422.30945  24444111.604    24444118.993
       206.000         141.000
  24358717.718      210609.45849    174415.17545  24358716.951    24358724.402
       206.000         143.000
  24355851.201     2917441.19248   2310859.61544  24355848.387    24355859.377
       190.000         107.000
  24581602.904    -3686309.83848  -2856140.41244  24581602.301    24581611.383
       191.000         116.000
 03  4 16  2 18  0.0000000  0  7G11G25G14G23G31G15G18
  22191557.591   -14239208.05749 -11085182.66246  22191557.654    22191562.061
       232.000         185.000
  21104912.543   -19821245.78849 -15224552.69147  21104912.163    21104917.471
       241.000         207.000
  21439132.970   -18710260.93449 -14567815.11447  21439132.787    21439136.788
       239.000         200.000
  24455629.267    -2501589.99649  -1934258.82245  24455628.970    24455638.098
       207.000         140.000
  24372440.918      282725.96649    230609.78045  24372440.431    24372446.874
       207.000         140.000
  24377718.836     3032357.07748   2400404.40544                  24377720.255
       186.000         105.000
  24595651.632    -3612483.05748  -2798613.02744  24595654.503    24595653.394
       187.000         110.000
 03  4 16  2 18 30.0000000  0  6G11G25G14G23G31G15
  22179638.036   -14301845.80249 -11133991.29446  22179638.446    22179642.273
       233.000         186.000
  21094638.033   -19875237.44349 -15266624.06047  21094637.916    21094642.729
       241.000         206.000
  21450887.225   -18648491.73349 -14519683.27747  21450886.840    21450891.137
       238.000         199.000
  24467172.495    -2440930.22149  -1886991.49445  24467172.029    24467179.037
       203.000         138.000
  24386181.035      354931.28849    286873.60045  24386181.418    24386189.050
       208.000         140.000
  24399605.206     3147371.11448   2490025.68644                  24399601.867
       185.000         103.000
 03  4 16  2 19  0.0000000  0  6G11G25G14G23G31G15
  22167798.586   -14364063.08549 -11182472.28346  22167798.502    22167802.822
       233.000         186.000
  21084451.375   -19928768.16449 -15308336.28347  21084451.868    21084456.260
       243.000         207.000
  21462673.839   -18586552.79349 -14471419.17547  21462673.690    21462678.469
       238.000         198.000
  24478741.027    -2380136.80149  -1839620.01445  24478739.851    24478748.234
       206.000         137.000
  24399937.553      427222.30949    343204.20145  24399937.635    24399945.011
       206.000         139.000
  24421509.591     3262481.04958   2579721.71444                  24421509.861
       181.000         100.000
 03  4 16  2 19 30.0000000  0  6G11G25G14G23G31G15
  22156040.033   -14425854.84149 -11230621.68546  22156039.563    22156044.551
       233.000         187.000
  21074353.499   -19981833.65849 -15349686.00247  21074353.539    21074358.643
       243.000         208.000
  21474492.985   -18524443.29649 -14423022.16447  21474493.338    21474496.872
       238.000         199.000
  24490335.474    -2319206.76849  -1792142.11345  24490336.393    24490343.547
       204.000         136.000
  24413710.174      499598.81949    399601.44745  24413710.220    24413716.330
       207.000         139.000
                   3377687.62448  -5369039.84943
       185.000          74.000
 03  4 16  2 20  0.0000000  0  6G11G25G14G23G31G15
  22144362.773   -14487218.86549 -11278437.80846  22144363.066    22144367.157
       233.000         187.000
  21064344.335   -20034432.33949 -15390671.94547  21064343.978    21064349.781
       240.000         208.000
  21486344.287   -18462164.91549 -14374493.56747  21486344.044    21486348.471
       237.000         199.000
  24501955.985    -2258139.81349  -1744557.52345  24501955.419    24501963.714
       201.000         134.000
  24427498.683      572057.80949    456062.97545  24427499.024    24427506.221
       212.000         142.000
                   3492988.24148  -5279206.62143
       186.000          74.000
 03  4 16  2 20 30.0000000  0  6G11G25G14G23G31G15
  22132766.709   -14548156.04949 -11325921.31946  22132766.585    22132770.825
       233.000         187.000
  21054423.655   -20086565.18549 -15431294.89347  21054423.816    21054428.589
       241.000         208.000
  21498226.694   -18399722.35049 -14325837.03147  21498226.408    21498230.726
       237.000         199.000
  24513602.423    -2196938.30949  -1696868.09245  24513603.046    24513609.130
       201.000         133.000
  24441302.273      644593.55449    512584.28245  24441303.418    24441309.489
       215.000         146.000
                   3608377.67258  -5189309.05943
       183.000          74.000
 03  4 16  2 21  0.0000000  0  6G11G25G14G23G31G15
  22121252.500   -14608663.35849 -11373069.86046  22121252.306    22121256.362
       232.000         187.000
  21044592.156   -20138229.50849 -15471552.78447  21044592.302    21044596.879
       242.000         208.000
  21510140.283   -18337116.09349 -14277052.94847  21510140.070    21510143.995
       237.000         198.000
  24525274.575    -2135600.68949  -1649072.58944  24525273.786    24525281.631
       202.000         131.000
  24455119.943      717204.39749    569164.08545  24455119.863    24455126.769
       210.000         146.000
                   3723854.88458  -5396298.52543
       184.000          74.000
 03  4 16  2 21 30.0000000  0  6G11G25G14G23G31G15
  22109820.624   -14668738.01349 -11419881.25946  22109820.830    22109824.694
       233.000         186.000
  21034850.416   -20189422.83649 -15511443.66047  21034850.456    21034855.137
       242.000         207.000
  21522084.702   -18274347.15049 -14228142.07947  21522084.521    21522088.663
       237.000         197.000
  24536972.890    -2074125.71849  -1601170.02145  24536975.226    24536982.712
       200.000         132.000
  24468951.264      789888.14149    625800.68545  24468951.268    24468958.207
       209.000         143.000
                   3839418.23448  -5306159.06643
       182.000          74.000
 03  4 16  2 22  0.0000000  0  6G11G25G14G23G31G15
  22098471.048   -14728380.26649 -11466355.72446  22098470.627    22098475.509
       231.000         186.000
  21025198.097   -20240146.08949 -15550968.23447  21025198.008    21025203.228
       242.000         208.000
  21534059.347   -18211419.66049 -14179107.68547  21534058.981    21534063.627
       237.000         198.000
  24548697.301    -2012515.54949  -1553162.13444  24548697.291    24548704.558
       201.000         131.000
  24482795.303      862639.29749    682489.83845  24482796.403    24482801.571
       209.000         140.000
                   3955063.13248  -5215899.91143
       175.000          74.000
 03  4 16  2 22 30.0000000  0  6G11G25G14G23G31G15
  22087204.558   -14787585.83849 -11512489.92046  22087204.876    22087208.863
       231.000         186.000
  21015635.913   -20290395.59849 -15590123.65647  21015635.858    21015641.136
       242.000         209.000
  21546064.333   -18148333.04749 -14129949.28647  21546063.720    21546068.412
       237.000         198.000
  24560447.583    -1950767.43349  -1505046.75944  24560445.917    24560454.346
       196.000         128.000
  24496652.339      935457.38149    739231.18545  24496652.061    24496659.361
       207.000         141.000
                   4070789.53158  -5423330.22743
       176.000          74.000
 03  4 16  2 23  0.0000000  0  6G11G25G14G23G31G15
  22076021.803   -14846351.71549 -11558281.50546  22076021.928    22076025.994
       232.000         186.000
  21006164.380   -20340168.42949 -15628907.64547  21006164.395    21006169.317
       241.000         209.000
  21558099.453   -18085087.80349 -14080667.28447  21558099.159    21558103.422
       236.000         197.000
  24572224.218    -1888879.80049  -1456822.63644  24572224.733    24572233.802
       196.000         127.000
  24510521.474     1008340.63649    796023.29245  24510520.999    24510528.389
       207.000         143.000
                   4186596.32158  -5333120.27943
       172.000          74.000
 03  4 16  2 23 30.0000000  0  6G11G25G14G23G31G15
  22064922.644   -14904678.03249 -11603730.56646  22064922.322    22064927.047
       233.000         187.000
  20996783.420   -20389465.21649 -15667320.69547  20996783.409    20996787.937
       242.000         208.000
  21570164.106   -18021687.71049 -14031264.61247  21570164.156    21570168.365
       237.000         197.000
  24584027.415    -1826854.34549  -1408491.13444  24584027.742    24584031.934
       198.000         123.000
  24524402.099     1081284.08849    852862.28345  24524401.360    24524410.567
       211.000         145.000
                   4302479.00358  -5242876.64743
       171.000          74.000
 03  4 16  2 24  0.0000000  0  6G11G25G14G23G31G15
  22053907.725   -14962561.77149 -11648834.77646  22053907.557    22053911.926
       233.000         187.000
  20987493.637   -20438283.43249 -15705360.84347  20987493.830    20987498.686
       243.000         208.000
  21582258.141   -17958133.24049 -13981741.66347  21582257.784    21582261.825
       237.000         197.000
  24595857.062    -1764689.59349  -1360051.13444  24595857.372    24595865.414
       195.000         121.000
  24538294.014     1154285.99249    909746.80645  24538293.953    24538302.520
       208.000         145.000
                   4418436.43058  -5450426.90743
       168.000          74.000
 03  4 16  2 24 30.0000000  0  6G11G25G14G23G31G15
  22042977.431   -15020000.32949 -11693592.08046  22042977.514    22042982.011
       234.000         187.000
  20978295.472   -20486620.77649 -15743026.27247  20978295.778    20978300.615
       243.000         209.000
  21594381.359   -17894425.48049 -13932099.25447  21594381.181    21594385.109
       236.000         196.000
  24607713.221    -1702384.68349  -1311501.88144  24607711.196    24607720.422
       196.000         120.000
  24552196.471     1227343.99049    966675.05845  24552195.839    24552204.222
       203.000         139.000
                   4534467.58557  -5360018.79643
       157.000          74.000
 03  4 16  2 25  0.0000000  0  6G11G25G14G23G31G15
  22032132.368   -15076991.75949 -11738000.97047  22032132.792    22032136.902
       234.000         188.000
  20969188.935   -20534475.96049 -15780315.98447  20969188.983    20969193.982
       241.000         210.000
  21606533.333   -17830566.44149 -13882338.97447  21606533.538    21606536.872
       236.000         196.000
  24619596.295    -1639939.65949  -1262843.43444  24619597.337    24619602.093
       195.000         117.000
  24566108.670     1300454.96549   1023644.64245  24566105.549    24566114.923
       206.000         135.000
                   4650569.07057  -5269562.82443
       159.000          74.000
 03  4 16  2 25 30.0000000  0  5G11G25G14G23G31
  22021372.249   -15133536.95649 -11782062.14947  22021372.551    22021376.533
       234.000         189.000
  20960173.691   -20581850.46249 -15817231.13447  20960173.474    20960178.444
       241.000         209.000
  21618713.206   -17766560.74649 -13832464.40847  21618713.176    21618717.225
       237.000         196.000
  24631505.765    -1577356.80248  -1214077.63244  24631507.312    24631512.808
       190.000         116.000
  24580030.079     1373613.22449   1080651.01545  24580030.759    24580038.445
       211.000         137.000
 03  4 16  2 26  0.0000000  0  5G11G25G14G23G31
  22010697.634   -15189632.91649 -11825773.27647  22010698.141    22010702.222
       235.000         189.000
  20951250.621   -20628741.35149 -15853769.46547  20951250.841    20951255.280
       243.000         209.000
  21630921.041   -17702408.52649 -13782475.66447  21630920.785    21630924.936
       237.000         196.000
  24643441.193    -1514634.35449  -1165202.96144  24643439.922    24643446.956
       195.000         111.000
  24593960.436     1446817.31249   1137693.09045  24593960.765    24593969.123
       205.000         142.000
 03  4 16  2 26 30.0000000  0  5G11G25G14G23G31
  22000108.839   -15245277.70249 -11869132.83647  22000109.081    22000112.678
       234.000         189.000
  20942419.777   -20675147.75449 -15889930.27747  20942419.854    20942424.573
       243.000         209.000
  21643156.241   -17638111.94049 -13732374.43447  21643156.035    21643160.198
       237.000         196.000
  24655403.618    -1451772.09048  -1116219.41744  24655406.257    24655409.652
       192.000         110.000
  24607898.669     1520063.81049   1194768.25645  24607898.087    24607906.836
       204.000         143.000
 03  4 16  2 27  0.0000000  0  5G11G25G14G23G31
  21989606.564   -15300467.44349 -11912137.81447  21989606.242    21989610.367
       234.000         189.000
  20933681.934   -20721065.58949 -15925710.37347  20933682.193    20933687.090
       242.000         210.000
  21655419.177   -17573670.04249 -13682159.97247  21655419.345    21655422.500
       237.000         195.000
  24667392.987    -1388767.49848  -1067124.95844  24667395.228    24667396.733
       190.000         110.000
  24621844.998     1593352.59349   1251876.35545  24621845.301    24621852.709
       205.000         143.000
 03  4 16  2 27 30.0000000  0  5G11G25G14G23G31
  21979190.751   -15355203.00949 -11954788.88147  21979191.063    21979194.709
       234.000         189.000
  20925036.670   -20766496.42049 -15961110.97747  20925036.719    20925041.858
       242.000         210.000
  21667708.915   -17509087.28949 -13631835.74747  21667708.677    21667712.552
       236.000         195.000
  24679409.165    -1325623.21048  -1017921.62744                  24679406.772
       188.000         106.000
  24635798.289     1666677.73349   1309012.77045  24635797.372    24635806.921
       202.000         140.000
 03  4 16  2 28  0.0000000  0  5G11G25G14G23G31
  21968861.782   -15409482.00049 -11997084.18247  21968861.204    21968865.456
       234.000         189.000
  20916484.457   -20811438.43849 -15996130.69447  20916484.539    20916489.360
       243.000         210.000
  21680025.225   -17444364.90249 -13581402.72247  21680025.021    21680029.548
       237.000         196.000
  24691451.877    -1262338.23248   -968608.69144                  24691452.973
       189.000         105.000
  24649757.966     1740036.85349   1366175.65845  24649757.808    24649767.214
       204.000         138.000
 03  4 16  2 28 30.0000000  0  4G11G25G14G31
  21958619.649   -15463304.20949 -12039023.55947  21958619.214    21958623.735
       233.000         189.000
  20908025.310   -20855891.91049 -16030769.74147  20908025.475    20908029.949
       243.000         210.000
  21692367.460   -17379506.11049 -13530863.41547  21692367.267    21692371.102
       236.000         195.000
  24663723.443     1813425.59749   1423361.61645  24663724.239    24663734.208
       208.000         140.000
 03  4 16  2 29  0.0000000  0  4G11G25G14G31
  21948464.977   -15516666.99349 -12080604.94047  21948465.154    21948469.054
       234.000         189.000
  20899659.482   -20899854.63449 -16065026.37647  20899659.317    20899664.048
       242.000         209.000
  21704735.452   -17314511.71949 -13480218.44047  21704735.175    21704739.324
       235.000         195.000
  24677694.330     1886841.75049   1480568.96045  24677693.848    24677703.298
       207.000         142.000
 03  4 16  2 29 30.0000000  0  4G11G25G14G31
  21938398.735   -15569565.61149 -12121824.62547  21938398.693    21938403.064
       235.000         189.000
  20891387.703   -20943322.39149 -16098897.31847  20891387.563    20891392.545
       242.000         209.000
  21717129.443   -17249380.45349 -13429466.82047  21717129.254    21717133.390
       235.000         194.000
  24691670.327     1960285.55349   1537797.89545  24691671.042    24691679.040
       206.000         143.000
 03  4 16  2 30  0.0000000  0  4G11G25G14G31
  21928421.026   -15621998.83549 -12162681.65747  21928420.850    21928424.859
       233.000         190.000
  20883210.287   -20986294.71749 -16132382.22047  20883210.394    20883215.404
       243.000         210.000
  21729549.029   -17184114.65849 -13378610.35847  21729548.816    21729552.889
       235.000         193.000
  24705650.919     2033753.26249   1595045.41745  24705651.443    24705659.508
       204.000         141.000
 03  4 16  2 30 30.0000000  0  4G11G25G14G31
  21918532.163   -15673964.60349 -12203174.44547  21918531.806    21918536.600
       234.000         190.000
  20875127.554   -21028770.17549 -16165479.95447  20875127.660    20875132.463
       243.000         211.000
  21741994.117   -17118715.49349 -13327649.97647  21741994.191    21741997.627
       234.000         193.000
  24719635.477     2107242.42549   1652309.62945  24719635.982    24719644.166
       202.000         140.000
 03  4 16  2 31  0.0000000  0  4G11G25G14G31
  21908732.580   -15725461.64849 -12243301.98847  21908732.760    21908736.980
       234.000         191.000
  20867139.473   -21070747.72949 -16198189.70747  20867139.180    20867143.952
       242.000         210.000
  21754464.196   -17053184.91349 -13276587.19447  21754463.608    21754468.006
       235.000         193.000
  24733623.579     2180749.82449   1709588.08345  24733624.598    24733632.805
       206.000         139.000
 03  4 16  2 31 30.0000000  0  4G11G25G14G31
  21899022.159   -15776490.00849 -12283064.31847  21899021.853    21899026.314
       234.000         191.000
  20859246.021   -21112227.31249 -16230511.41947  20859245.855    20859250.589
       242.000         209.000
  21766958.561   -16987526.09249 -13225424.48347  21766958.478    21766962.386
       235.000         193.000
  24747614.432     2254271.19349   1766877.37045  24747615.402    24747622.775
       208.000         141.000
 03  4 16  2 32  0.0000000  0  4G11G25G14G31
  21889401.449   -15827046.97549 -12322459.34447  21889401.932    21889405.770
       234.000         191.000
  20851447.701   -21153207.69749 -16262444.16347  20851447.923    20851452.654
       243.000         210.000
  21779477.211   -16921740.31449 -13174162.84647  21779477.242    21779481.171
       234.000         193.000
  24761607.476     2327804.08549   1824175.64345  24761607.466    24761615.921
       203.000         141.000
 03  4 16  2 32 30.0000000  0  4G11G25G14G31
  21879871.002   -15877129.92149 -12361484.99747  21879871.140    21879875.477
       234.000         191.000
  20843744.896   -21193686.56449 -16293986.10947  20843745.265    20843750.026
       243.000         211.000
  21792019.999   -16855827.69149 -13122802.37347  21792019.719    21792024.130
       234.000         192.000
  24775602.161     2401346.74249   1881481.61445  24775600.998    24775611.409
       201.000         138.000
 03  4 16  2 33  0.0000000  0  4G11G25G14G31
  21870430.862   -15926737.90249 -12400140.53947  21870430.586    21870435.089
       235.000         191.000
  20836137.495   -21233663.50249 -16325136.92847  20836137.102    20836142.078
       243.000         211.000
  21804586.404   -16789790.72549 -13071344.98947  21804586.359    21804590.412
       235.000         192.000
  24789598.107     2474895.71349   1938792.46045  24789598.878    24789606.680
       206.000         140.000
 03  4 16  2 33 30.0000000  0  4G11G25G14G31
  21861081.483   -15975869.08749 -12438424.56747  21861081.408    21861085.638
       235.000         190.000
  20828625.783   -21273136.96649 -16355895.44647  20828625.503    20828630.098
       243.000         210.000
  21817176.205   -16723630.86549 -13019791.86547  21817176.023    21817180.113
       235.000         192.000
  24803594.752     2548448.27549   1996106.02045  24803595.318    24803602.144
       203.000         141.000
